GFSSGP_sfc_rhum_000.txt.gz
RH
57 48 38 40 49 62 66 56 46 44 35 25 25 26 26 34 28 26 73 71 84 82 82 80 80 77 72 69 66 65 62 60 56 61 56 65 63 59 57 58 58 58 62 55 57 53 55 63 68
63 37 37 52 55 71 61 50 52 42 36 24 25 30 28 33 58 78 74 83 80 83 84 86 84 75 70 69 67 64 62 60 57 58 65 65 62 63 60 58 55 57 59 59 61 52 53 56 54
37 34 38 51 65 62 58 50 45 37 26 24 26 26 31 32 56 71 70 78 81 88 87 85 85 76 71 68 68 64 63 59 60 60 67 68 63 64 61 59 56 57 59 59 63 58 57 56 52
34 32 35 49 54 44 46 38 32 39 27 20 24 32 39 53 53 60 63 72 86 93 94 89 85 79 76 70 68 65 61 61 58 68 69 69 64 63 59 57 58 60 59 58 58 62 60 60 56
39 36 42 45 40 36 31 27 29 34 33 26 22 32 42 56 72 65 65 70 82 90 94 89 86 81 78 72 70 67 62 62 58 59 67 67 68 63 62 60 58 61 62 62 60 60 64 63 63
43 38 42 44 37 30 25 23 25 34 35 24 25 37 45 67 68 66 62 71 73 85 88 88 87 84 80 75 72 69 64 64 62 64 67 67 63 63 65 64 62 63 68 68 64 61 62 66 65
48 52 52 44 37 31 24 24 33 33 36 23 23 42 64 70 62 62 64 67 84 90 92 94 92 88 83 79 78 74 70 71 70 60 67 70 69 67 68 65 68 66 68 67 64 59 60 64 66
49 48 53 44 36 33 27 32 28 28 26 22 27 38 43 52 59 63 64 63 86 94 93 97 95 91 92 90 84 80 78 77 73 72 76 78 77 79 72 76 73 69 70 68 64 61 56 58 65
46 56 54 40 38 32 29 32 28 28 26 26 40 41 44 52 64 68 72 70 79 91 96 97 96 94 93 91 87 83 82 79 77 81 82 83 91 89 88 87 83 76 72 70 66 62 57 62 69
50 64 53 37 36 39 32 34 30 31 31 32 46 61 63 62 69 67 69 70 72 82 93 96 96 94 91 69 84 94 85 88 89 92 92 94 93 92 85 92 86 76 76 75 70 66 62 70 85
51 56 45 39 37 38 34 32 31 33 33 29 28 55 66 70 70 67 68 69 68 70 71 85 94 91 89 76 87 98 97 97 96 94 95 95 88 96 96 98 96 97 89 95 83 85 83 82 88
61 46 42 40 39 38 33 31 32 31 29 28 27 34 66 67 69 67 66 66 74 71 67 67 81 86 89 79 87 94 91 96 98 96 94 97 96 96 97 98 95 97 97 97 97 98 94 89 86
59 50 44 40 40 35 31 34 34 30 25 28 27 51 64 66 66 68 68 68 68 70 68 66 72 77 76 80 92 92 85 87 88 91 87 88 91 92 95 96 97 97 98 98 98 98 94 95 89
48 42 37 35 33 35 35 34 36 28 25 25 29 42 58 65 62 70 68 62 64 63 62 65 66 68 71 70 84 82 80 80 84 82 82 82 81 82 85 84 87 89 96 94 93 94 92 89 82
41 48 43 36 35 34 35 33 30 26 28 25 27 30 34 48 57 62 59 61 61 58 56 65 65 68 74 69 68 67 74 73 78 77 76 76 75 76 73 77 76 78 89 88 88 89 89 88 79
46 49 55 41 40 35 31 46 31 27 34 29 27 31 28 30 31 34 32 39 52 56 52 59 54 64 71 70 72 65 60 66 70 72 74 72 72 77 80 80 79 79 82 84 82 78 79 83 80
56 60 54 43 35 35 34 40 29 31 27 28 34 31 34 38 39 45 46 47 43 44 55 53 63 65 67 72 74 80 70 66 64 76 74 70 73 75 80 81 80 82 82 81 78 76 83 70 78
60 60 52 46 33 40 39 36 31 32 26 31 32 38 40 40 41 48 52 60 54 57 52 51 56 62 76 75 85 94 91 79 81 74 72 73 72 72 78 73 74 83 84 79 85 77 81 76 71
47 49 48 39 32 36 38 38 32 32 30 34 39 41 44 43 48 50 54 60 62 64 58 55 50 53 73 91 94 94 84 90 94 87 79 78 76 72 75 73 72 83 80 74 74 76 78 78 93
45 47 47 38 35 36 38 33 34 27 33 41 40 44 46 49 49 50 54 60 60 62 64 58 54 54 67 78 83 85 90 94 92 91 89 85 84 79 76 75 72 74 81 80 79 80 79 78 88
50 50 47 46 40 39 48 45 34 35 39 42 44 44 46 48 50 54 58 64 65 63 60 54 56 60 61 72 81 86 87 90 90 92 93 90 88 84 83 78 77 76 82 80 80 85 85 81 74
51 39 39 44 49 51 47 56 42 40 41 45 49 46 46 48 53 57 60 62 67 64 60 56 54 53 50 63 67 73 80 81 85 88 88 83 83 88 87 84 83 82 81 84 82 79 86 83 87
41 40 44 46 52 60 51 51 44 40 43 44 48 47 46 51 56 60 61 60 63 64 64 61 56 53 55 55 58 66 65 78 81 78 70 69 72 73 76 86 91 90 86 85 83 85 86 86 88
40 40 48 55 55 64 50 48 46 45 38 45 52 48 44 51 59 60 61 59 60 62 63 63 58 58 57 56 56 57 59 60 60 64 66 66 69 74 64 59 72 90 93 91 86 86 89 90 90
41 52 67 67 70 64 52 50 40 34 40 34 45 48 47 52 58 60 61 62 61 61 60 56 59 60 59 59 59 61 62 64 65 65 66 65 61 64 55 57 56 56 59 64 78 91 93 93 94
45 49 66 70 75 61 45 47 34 36 39 40 43 47 48 53 58 58 60 62 60 58 60 59 60 61 62 62 62 64 66 69 68 67 68 68 67 66 62 59 56 55 54 55 59 70 76 80 88
42 54 49 58 70 62 56 46 36 46 51 49 52 48 49 53 57 58 59 59 58 60 61 61 62 65 66 68 68 68 70 70 71 72 70 70 63 53 55 60 64 59 59 58 58 59 63 67 74
44 39 52 60 65 66 56 52 45 52 54 53 54 52 51 51 57 59 59 58 61 62 65 67 69 70 71 71 72 69 74 71 70 66 66 59 56 55 57 56 55 56 58 59 61 61 59 63 65
44 45 42 50 56 60 62 50 41 38 45 49 51 51 51 54 58 59 59 62 64 68 72 74 74 67 65 69 70 72 76 72 69 62 60 56 55 53 54 53 55 56 59 54 55 56 55 57 61
49 44 43 50 52 59 57 48 36 45 36 40 47 49 56 56 58 60 63 69 74 76 77 74 69 64 62 65 67 66 69 61 56 52 49 49 50 48 48 50 52 50 47 50 56 57 57 63 56

GFSSGP_sfc_rhum_003.txt.gz
RH
70 52 38 45 47 60 68 54 53 43 42 30 26 26 29 36 26 27 71 84 90 87 86 79 79 75 76 73 71 68 66 61 57 57 53 64 60 60 58 59 60 59 54 53 56 57 50 65 64
66 37 40 54 57 68 58 53 50 45 40 30 27 28 27 29 59 78 82 77 85 86 88 87 82 80 76 73 70 68 65 62 58 58 63 67 62 59 57 54 56 55 57 58 60 54 52 55 64
34 29 39 55 66 64 57 48 46 38 36 28 26 31 32 31 54 73 76 87 87 92 91 87 84 79 74 72 70 68 65 64 61 62 68 69 65 58 62 59 58 56 60 60 63 60 57 56 57
33 32 36 45 54 47 49 37 30 30 32 25 26 28 39 55 56 68 75 89 95 96 95 90 87 78 75 72 71 68 65 62 62 62 64 74 66 61 63 59 59 61 62 61 61 64 62 61 60
38 35 39 49 41 36 34 27 26 30 35 26 22 28 41 55 78 73 82 86 94 96 96 95 86 80 75 72 71 70 63 63 62 63 67 71 66 59 61 60 59 62 63 64 61 61 65 66 62
44 39 41 42 37 31 28 24 29 29 38 30 26 40 40 71 74 72 74 89 89 94 97 96 88 85 81 75 72 71 66 65 61 61 63 65 69 67 62 66 64 63 66 68 66 63 62 65 68
49 51 50 47 41 31 26 29 36 38 38 31 30 40 52 75 69 68 74 85 86 90 97 98 96 91 86 81 79 78 71 72 70 68 62 69 71 68 66 68 66 67 67 71 70 66 62 63 65
52 51 57 52 40 32 28 31 29 32 30 23 37 35 36 53 63 70 72 75 92 96 96 98 98 97 95 92 86 83 78 77 77 75 71 77 80 80 73 76 74 69 69 70 70 67 64 60 62
49 58 61 48 40 32 32 37 31 30 31 29 46 50 52 55 69 75 78 76 90 94 98 98 98 97 96 94 91 87 84 83 81 80 83 83 92 90 90 88 85 76 71 71 71 68 66 67 69
53 67 56 42 34 38 39 40 34 33 32 32 35 65 67 72 80 73 75 76 81 95 97 98 98 96 96 80 92 94 91 94 92 88 92 95 94 94 88 93 89 79 76 76 71 70 70 75 86
56 58 49 42 35 42 43 38 34 35 34 31 29 33 70 78 76 73 73 74 78 84 94 96 98 96 95 90 92 99 98 97 96 93 95 96 93 97 97 98 98 98 94 97 91 92 94 89 92
63 50 45 45 44 47 43 35 35 33 30 27 30 30 67 69 73 71 70 71 75 75 74 88 96 97 96 92 92 96 97 98 98 97 95 98 99 98 98 98 98 98 98 98 98 98 96 94 92
66 54 49 46 48 47 42 40 37 34 28 29 28 36 59 68 69 69 69 69 74 73 72 73 90 94 93 95 93 96 95 98 97 97 96 98 98 98 97 97 98 98 98 98 98 98 98 97 95
56 54 48 40 38 38 39 38 41 33 30 28 27 28 47 69 67 72 75 74 74 73 70 70 72 81 88 88 94 92 97 93 97 97 94 95 94 97 97 96 97 98 98 98 98 97 97 95 96
50 52 45 42 41 39 39 39 36 29 31 30 29 29 33 44 57 60 66 62 66 64 62 68 70 73 82 82 86 89 90 86 91 87 92 93 92 94 90 94 92 90 95 94 94 96 97 97 93
46 54 60 44 42 39 34 46 36 31 39 30 35 34 36 40 42 46 48 46 46 56 65 61 57 70 76 75 80 75 82 85 83 85 89 86 84 86 91 84 84 82 86 85 86 84 87 88 84
50 65 58 44 38 41 41 45 34 35 31 29 36 40 42 46 49 57 59 63 59 60 56 62 66 72 78 82 85 82 73 72 71 83 84 80 80 82 82 82 78 86 83 84 80 79 85 76 76
63 66 58 54 40 47 46 42 33 36 29 33 38 45 48 48 51 56 57 64 63 66 60 57 60 72 81 84 93 96 94 85 81 78 76 75 75 76 81 76 76 84 84 82 87 82 81 80 74
56 52 53 46 36 41 44 41 34 36 33 36 43 47 49 49 54 55 58 60 58 56 61 63 60 64 83 94 95 96 96 95 96 95 86 80 80 78 79 76 75 77 82 75 75 84 85 84 90
49 56 56 42 41 42 44 40 36 31 34 40 44 49 51 53 56 57 61 65 63 61 60 58 60 66 77 91 93 93 94 94 95 95 93 91 90 88 86 85 81 80 84 86 85 87 87 86 80
54 57 58 48 44 44 47 48 44 37 44 42 46 48 50 53 58 61 63 67 67 65 64 57 57 55 63 78 88 89 86 88 85 87 89 85 84 89 93 94 94 90 94 88 86 90 92 92 86
76 45 49 47 53 58 56 62 46 39 46 47 53 52 51 57 61 61 61 66 68 67 65 61 58 54 51 59 61 75 81 80 83 87 79 71 71 72 72 77 84 94 94 96 92 85 87 91 94
63 42 45 50 53 64 56 58 48 44 45 46 48 50 55 59 60 61 63 62 65 66 67 64 58 56 59 58 62 65 67 71 73 70 64 65 63 68 61 62 64 67 71 81 91 92 95 93 93
43 44 51 63 59 69 55 51 50 46 36 49 52 49 53 60 64 64 64 61 62 64 65 66 59 61 61 60 62 66 68 67 65 68 66 68 66 68 56 56 58 64 67 69 70 73 81 89 93
45 54 72 72 73 70 60 61 39 38 36 36 45 48 53 60 63 63 64 63 63 66 65 59 64 66 67 65 66 70 72 73 72 72 71 68 64 62 60 64 61 60 60 65 71 77 80 79 84
50 52 68 71 78 65 55 56 38 42 41 38 42 46 51 59 64 64 65 65 65 64 66 68 70 70 69 71 72 71 71 73 72 72 71 68 68 64 58 58 57 57 58 61 63 70 82 78 85
44 56 53 63 75 73 60 50 40 51 55 50 49 50 53 58 63 63 64 66 65 69 72 73 71 71 71 72 72 75 70 68 70 69 68 66 60 49 51 57 56 56 57 60 62 57 64 66 73
43 41 56 66 73 72 62 58 48 55 59 57 54 51 52 58 63 63 65 67 70 74 77 73 69 68 69 69 72 70 72 67 66 63 59 55 52 51 52 51 54 54 55 52 51 58 59 61 63
42 44 50 55 62 64 67 52 42 40 53 52 52 49 52 57 63 65 69 70 75 77 74 70 64 62 63 65 66 69 66 61 56 48 47 46 48 46 46 44 46 45 44 45 56 54 54 63 57
53 43 44 56 58 63 63 51 42 44 48 51 51 54 57 58 62 67 72 78 79 78 70 64 60 60 62 61 60 61 53 44 43 45 42 40 40 40 42 40 40 37 40 46 49 47 58 52 53

GFSSGP_sfc_rhum_006.txt.gz
RH
72 44 39 46 46 61 68 54 65 45 45 36 27 30 30 34 24 29 68 85 88 88 85 86 80 76 76 70 72 69 66 61 58 54 49 58 58 58 56 60 59 50 51 52 56 52 54 52 60
50 31 41 53 56 64 58 55 51 46 42 41 29 31 30 28 57 71 78 80 88 86 90 90 81 76 76 74 74 70 67 64 58 58 55 66 62 55 56 53 54 57 54 58 60 64 53 55 60
31 29 38 58 67 63 57 51 49 37 31 35 28 29 31 29 47 68 77 80 90 93 94 90 80 76 79 75 73 70 67 65 61 59 60 69 63 61 59 59 58 58 60 61 63 63 57 58 59
32 29 34 41 55 49 52 45 32 28 29 33 27 27 36 42 54 69 81 90 94 96 95 90 84 81 78 75 72 70 67 65 62 62 64 73 68 60 64 59 60 60 61 62 62 65 64 60 63
39 35 38 47 42 37 36 29 25 34 34 36 28 26 36 50 77 78 92 92 94 97 96 94 83 80 77 75 73 71 67 64 62 62 63 66 72 64 64 62 60 61 64 63 63 61 63 65 65
48 39 46 48 37 32 30 27 33 40 36 35 29 37 36 68 80 79 92 94 93 96 97 95 89 85 81 76 74 73 67 65 64 63 58 68 70 66 62 63 64 63 63 65 66 65 63 62 65
51 51 55 55 45 37 27 33 36 37 39 38 31 34 42 65 71 76 87 92 93 94 97 98 96 92 86 82 79 77 71 72 68 66 68 60 72 70 64 67 68 66 65 64 71 70 67 65 64
52 53 61 62 46 36 28 36 33 38 35 27 37 34 36 62 74 76 80 89 92 95 96 98 98 97 95 94 85 83 81 79 77 77 77 72 78 79 73 76 75 69 68 65 70 70 69 67 64
50 60 65 53 42 36 34 42 38 34 35 33 37 48 48 64 74 81 82 80 93 93 97 98 98 98 97 95 92 87 85 83 83 84 83 83 91 89 89 87 85 79 73 70 65 69 70 73 76
55 69 59 45 37 36 40 48 40 36 35 34 34 48 67 74 83 77 79 78 84 94 97 98 98 98 98 90 94 96 93 94 93 91 89 93 93 93 88 92 87 82 79 78 72 71 75 81 94
58 62 53 45 39 39 48 47 42 39 38 33 29 29 50 77 77 77 74 75 79 85 95 97 98 98 98 97 97 98 99 98 97 92 92 95 94 96 97 98 97 97 95 98 95 96 97 94 96
67 51 49 48 46 50 52 44 42 38 34 30 30 33 41 63 70 74 76 78 83 79 82 93 97 98 97 98 97 97 98 98 98 96 94 97 98 98 98 98 97 97 98 98 98 99 97 96 95
72 60 54 49 50 53 50 47 44 38 31 32 31 31 33 55 67 80 74 74 76 74 74 78 95 97 97 98 98 97 97 98 97 97 95 97 98 98 98 98 98 98 98 98 98 98 97 97 96
60 57 55 53 46 44 42 42 42 38 35 30 30 31 31 45 68 79 71 69 76 75 74 72 77 94 96 96 97 94 97 96 97 97 96 95 97 98 98 98 98 98 98 97 97 97 97 97 97
58 66 53 46 46 45 45 42 41 33 38 32 33 36 34 36 46 54 58 56 54 59 70 72 73 79 94 95 95 94 96 91 97 96 95 95 96 97 95 98 98 93 97 95 97 97 98 98 95
54 57 68 51 45 40 40 39 34 35 43 35 33 40 47 52 57 62 63 62 62 61 59 60 61 74 83 90 93 94 96 96 94 96 96 93 93 94 95 96 90 89 96 96 95 92 93 92 88
48 56 60 50 40 44 47 50 33 38 33 34 38 54 53 54 57 61 61 68 68 68 63 63 68 74 82 88 90 89 86 91 92 94 94 90 88 89 92 89 85 90 95 95 89 84 90 79 78
65 56 67 59 46 48 46 45 34 38 38 36 39 53 58 57 59 61 60 64 61 68 67 67 68 72 84 92 94 96 95 91 86 85 82 80 82 82 88 86 85 87 94 90 95 91 80 80 78
64 61 66 50 41 47 46 47 38 36 36 37 45 51 58 56 62 62 63 64 60 61 60 63 64 79 92 96 96 95 95 96 96 96 94 92 89 86 86 87 86 88 92 85 84 92 94 87 91
52 51 60 52 46 46 46 44 39 40 34 37 44 53 58 60 62 62 64 67 66 65 61 56 57 62 82 94 95 95 96 97 95 91 81 80 86 87 86 95 96 96 97 95 96 94 89 87 86
58 59 71 64 50 50 52 50 48 40 46 46 49 53 60 58 61 66 67 70 70 69 68 60 61 57 59 68 80 78 79 79 79 78 68 70 68 60 63 69 78 86 95 97 97 97 95 95 86
90 55 50 52 58 65 52 66 54 42 47 50 57 59 61 64 69 64 63 67 69 68 66 65 62 62 58 65 62 70 73 76 79 80 72 67 68 66 61 63 65 70 76 76 80 68 92 93 93
80 50 50 52 62 68 68 62 52 50 49 51 56 57 63 66 67 67 66 64 67 68 71 70 64 64 66 65 69 69 72 76 75 74 68 70 64 68 59 59 64 65 66 74 79 76 77 85 90
53 50 49 55 60 74 59 53 57 49 45 54 57 54 60 67 70 69 68 66 68 71 72 73 67 70 70 68 70 73 74 70 65 68 66 66 64 67 60 59 62 65 66 69 73 77 84 84 87
53 51 78 70 77 75 68 67 51 44 40 41 47 51 60 68 71 70 68 70 70 72 73 68 70 74 74 70 68 71 75 76 73 73 68 63 58 59 56 56 59 59 60 64 70 79 83 82 88
61 60 72 76 79 70 64 64 43 49 53 44 44 48 60 69 70 70 70 71 72 74 76 75 74 73 74 72 73 70 69 69 65 66 66 62 62 61 52 55 55 57 56 59 57 63 76 73 84
56 58 56 67 78 80 68 52 42 52 54 58 51 53 62 68 69 70 72 72 77 79 78 73 70 70 71 72 72 70 64 63 63 65 61 56 55 41 47 54 52 50 49 46 49 56 60 60 72
47 44 60 68 76 79 71 61 53 43 58 62 57 56 62 67 69 72 72 76 82 81 75 68 67 68 68 67 67 60 60 55 54 52 51 49 46 45 46 44 43 42 38 42 43 60 45 52 69
45 51 57 59 68 68 71 53 47 44 48 56 57 55 62 66 68 73 74 81 83 76 70 66 64 63 62 62 59 52 47 47 46 46 47 44 45 44 42 40 41 38 38 39 43 52 40 51 54
48 45 49 64 66 70 67 55 45 50 50 56 56 56 58 62 68 75 78 85 79 71 64 60 58 58 57 57 50 46 44 44 44 44 44 42 41 39 39 37 40 37 37 38 45 40 39 51 47

GFSSGP_sfc_rhum_009.txt.gz
RH
54 32 36 44 42 50 50 45 39 34 32 27 26 22 20 21 19 24 49 61 68 66 65 71 81 77 79 77 72 69 67 62 60 54 52 50 53 55 53 58 56 50 50 53 52 52 53 50 56
37 24 42 49 47 48 44 40 40 33 26 30 26 23 22 19 32 38 51 60 67 65 66 72 83 77 78 73 73 72 68 63 59 57 51 54 59 56 54 53 52 57 56 57 59 64 60 58 61
25 27 40 53 55 47 42 38 33 26 23 27 21 19 20 20 26 37 50 62 70 66 68 74 80 77 77 76 76 73 69 68 62 59 60 65 65 54 56 58 57 58 58 61 61 64 64 60 60
29 31 29 32 37 39 40 34 28 23 25 29 19 20 22 25 32 44 56 64 70 69 68 78 83 78 81 78 75 71 70 66 64 61 61 65 69 62 62 60 59 58 61 61 61 61 64 64 62
35 34 37 35 32 30 28 27 23 29 29 27 20 20 23 31 54 53 68 69 68 74 73 70 81 81 79 76 75 70 70 66 63 62 64 64 71 68 58 62 61 60 61 63 63 62 61 61 64
47 37 43 47 35 27 26 23 26 30 30 29 22 22 23 42 52 58 73 72 69 73 77 73 83 87 82 79 76 73 70 67 64 63 62 62 67 71 64 63 63 64 62 61 65 66 65 63 63
51 50 50 41 40 36 24 28 28 29 31 27 22 25 22 34 52 62 72 74 74 74 77 74 72 79 88 84 81 79 74 73 72 68 67 72 69 72 62 65 67 68 66 62 64 73 70 70 65
46 47 50 46 43 37 23 31 29 29 28 25 25 25 25 34 52 60 64 74 76 78 76 77 76 78 76 71 85 84 82 80 78 78 78 79 76 79 72 77 76 71 69 68 65 70 74 69 68
42 52 57 48 41 37 26 36 33 29 29 27 25 31 33 50 61 61 62 67 74 78 78 79 79 80 79 77 77 83 84 83 82 79 86 76 64 66 70 80 83 80 76 72 69 67 70 75 78
48 61 54 42 37 32 30 39 36 34 33 29 25 28 42 52 58 57 58 57 62 71 76 78 80 81 83 80 78 76 74 70 67 66 68 64 67 67 70 80 85 81 81 83 80 76 77 79 64
53 56 49 42 37 33 38 43 38 34 39 29 26 25 27 42 49 57 56 57 56 57 70 76 80 80 83 82 79 78 77 76 73 71 67 68 73 74 72 75 72 73 80 67 68 67 64 66 66
54 48 45 43 42 43 44 42 42 37 33 28 29 29 30 28 34 46 56 55 55 58 58 66 76 82 82 79 79 75 76 77 76 74 72 73 74 77 75 71 72 74 69 72 71 67 65 67 68
56 51 48 45 47 50 48 49 44 38 31 27 29 31 28 27 31 49 56 56 55 57 55 58 69 79 80 84 78 77 74 73 72 74 72 71 75 74 72 70 71 72 71 70 69 68 65 64 64
56 52 47 50 47 45 43 42 39 35 31 29 29 28 28 29 37 55 55 54 53 55 55 54 58 68 76 78 80 75 72 70 72 71 72 72 72 73 75 71 70 70 69 66 67 66 66 65 65
55 58 53 49 44 44 44 44 44 31 31 29 29 28 37 44 46 48 48 44 45 43 46 45 53 60 71 75 78 75 74 71 71 70 69 71 74 75 74 72 70 67 67 68 67 67 69 69 66
59 52 70 52 38 38 36 46 32 31 34 32 27 36 46 49 50 51 54 53 53 50 50 52 48 59 64 69 74 72 72 71 71 70 70 70 70 72 72 71 68 65 67 68 67 67 68 67 70
54 76 64 58 42 43 39 42 35 29 29 28 26 38 43 47 47 50 50 52 54 52 54 58 59 58 65 68 69 70 69 68 67 67 66 66 66 66 68 66 65 64 68 68 70 68 70 71 69
64 62 53 53 40 42 42 42 34 32 33 30 27 42 46 49 52 52 50 50 48 49 50 57 65 66 71 73 74 74 72 71 70 70 71 72 68 69 69 69 70 69 72 72 72 75 72 75 75
54 52 52 54 40 40 42 42 35 32 34 35 35 45 47 49 51 52 52 50 46 48 48 52 63 73 72 74 73 74 76 68 62 56 53 52 54 55 59 58 56 60 65 66 67 73 73 72 71
56 56 56 51 43 40 45 42 35 36 35 31 36 46 48 50 50 53 52 52 52 51 49 48 51 57 72 77 80 78 63 58 55 53 52 49 44 45 42 48 48 49 53 51 54 58 63 60 58
64 64 61 60 50 44 47 46 41 34 33 41 43 47 48 49 52 54 54 55 55 55 57 53 53 54 56 56 53 52 54 55 54 53 50 51 47 45 45 47 46 48 51 53 55 56 59 62 53
82 54 55 54 61 68 43 55 47 37 35 45 49 51 52 55 55 56 55 56 56 60 63 58 58 56 56 55 56 57 58 55 57 53 50 46 47 48 43 46 48 48 49 51 53 48 58 60 62
76 62 62 57 56 51 50 50 43 39 38 45 50 54 56 57 57 59 59 61 60 63 66 62 59 60 60 57 57 54 55 55 52 49 46 46 44 47 42 42 45 46 46 51 55 55 58 61 64
50 58 63 55 51 63 52 47 47 39 34 45 48 51 57 58 60 60 61 61 61 66 67 66 60 60 58 57 56 56 55 48 47 49 44 42 39 42 38 39 40 41 42 45 47 52 59 61 61
54 74 97 95 72 67 56 55 42 39 35 38 43 48 56 59 60 60 60 60 63 66 65 61 60 61 56 54 52 51 51 48 45 42 38 35 33 38 36 38 35 36 38 38 40 46 55 55 60
77 74 80 75 71 60 58 58 37 36 42 42 42 45 58 61 61 60 62 64 66 67 64 61 59 60 55 51 47 43 43 40 37 37 34 32 32 34 32 34 32 32 31 30 33 37 54 42 54
78 86 53 63 65 66 60 49 39 42 46 48 49 53 61 62 63 63 62 64 66 64 62 59 57 56 55 48 39 36 33 34 35 34 31 32 30 25 30 32 32 31 30 30 32 32 39 37 40
59 49 77 62 68 70 63 54 48 39 41 53 53 53 61 63 64 64 62 68 67 61 59 57 52 52 48 41 33 31 30 30 30 29 30 31 29 30 31 30 30 30 28 28 30 33 34 33 34
55 74 59 56 62 62 58 47 40 39 39 49 51 53 58 62 63 63 66 70 66 58 55 52 48 48 44 36 30 28 29 28 27 27 28 29 29 30 29 28 28 28 27 26 29 29 29 32 38
45 51 50 60 62 61 56 51 38 45 47 50 50 52 56 59 63 64 71 70 60 54 50 48 45 44 41 33 27 27 28 28 26 26 28 28 28 28 29 28 27 26 27 28 28 29 31 36 40

GFSSGP_sfc_rhum_012.txt.gz
RH
39 20 20 23 26 27 24 25 28 26 25 18 16 18 17 15 16 22 38 39 42 40 41 62 81 76 74 78 73 70 69 63 59 54 51 48 51 52 50 55 55 53 51 54 57 58 64 53 54
25 16 25 27 22 24 19 25 30 25 18 17 17 18 18 16 16 22 28 39 44 39 40 46 81 78 80 77 75 71 68 64 59 57 50 53 57 56 53 53 52 56 58 59 60 64 66 63 63
21 16 20 25 29 24 24 28 22 18 17 19 18 14 14 15 16 20 33 40 43 40 42 48 84 78 78 74 75 74 70 67 62 58 61 60 66 53 55 54 56 58 57 61 61 61 64 66 63
22 19 18 19 18 24 29 24 18 20 19 20 17 17 14 18 20 29 36 39 40 39 42 66 84 79 80 78 76 74 71 67 66 63 60 62 69 63 61 61 59 58 60 61 62 61 60 63 64
21 21 26 27 26 16 15 16 17 22 20 20 20 19 17 24 33 33 39 40 38 40 42 47 81 79 78 79 76 72 71 66 64 62 62 65 65 70 62 65 62 58 60 62 63 62 63 63 62
28 24 29 32 30 24 20 18 20 20 20 20 19 18 19 27 31 38 43 40 40 42 47 44 76 84 83 79 77 70 72 68 65 61 62 61 65 68 70 62 64 62 64 63 60 67 68 66 66
36 32 32 32 30 29 20 17 19 21 20 21 18 20 16 21 36 41 42 40 45 44 48 45 46 65 89 86 82 78 75 72 70 66 65 71 70 69 68 65 64 69 69 66 62 68 70 69 70
32 31 35 31 28 32 22 18 24 22 20 18 17 19 19 25 31 40 43 44 46 50 48 47 47 49 52 54 84 84 82 81 79 78 78 80 77 71 67 72 70 74 72 70 68 67 69 71 73
32 37 37 34 33 28 20 26 24 23 24 18 17 19 20 28 37 41 42 46 47 50 50 49 46 48 49 49 57 82 84 82 81 77 83 75 44 46 52 70 78 77 74 73 72 70 71 78 80
37 40 35 28 25 26 25 28 29 29 23 20 17 17 18 19 25 31 34 33 39 41 44 47 49 49 51 51 52 53 49 50 47 47 46 42 41 43 56 72 82 80 79 80 78 76 75 80 47
39 40 30 30 28 26 30 30 29 31 31 21 20 16 17 18 19 22 25 31 32 33 37 45 49 49 51 52 50 48 49 48 47 49 49 45 44 44 48 49 51 51 71 50 51 49 45 45 46
44 36 31 31 31 33 33 29 32 31 31 24 21 21 21 19 17 17 21 28 32 37 37 38 43 50 52 50 52 48 50 50 49 50 50 48 47 48 47 47 48 50 47 47 48 46 46 48 47
46 34 34 32 33 33 33 37 34 33 27 23 22 23 20 18 17 18 29 32 34 37 37 39 40 47 52 55 50 50 49 49 48 51 51 49 51 50 48 48 48 48 47 47 48 48 47 47 47
39 39 37 33 34 34 39 34 36 28 22 23 22 22 20 22 24 26 31 33 34 34 36 35 38 40 44 50 53 50 49 48 50 50 52 54 52 53 53 52 50 49 48 48 48 49 49 50 48
40 48 41 38 36 36 35 39 35 25 20 20 19 20 26 32 30 32 34 31 31 28 31 31 32 35 42 47 51 50 50 50 51 50 50 53 54 56 57 56 54 50 49 50 51 51 51 52 50
52 51 54 35 36 36 35 41 26 21 20 22 19 21 29 34 32 33 34 34 34 33 36 39 36 36 41 45 49 47 47 48 49 49 50 52 52 54 55 54 53 52 54 54 55 55 55 54 53
54 58 54 41 35 35 34 35 23 21 21 20 18 22 27 30 31 34 35 35 36 36 39 42 43 41 46 48 48 49 50 47 48 47 49 54 54 56 56 56 57 54 54 52 53 53 54 59 59
58 54 43 45 34 33 35 34 24 21 23 21 19 23 27 30 34 35 35 35 35 36 40 44 48 47 47 49 49 51 53 55 52 50 49 50 46 47 48 43 39 40 42 41 40 42 43 44 46
34 38 44 37 32 35 36 34 27 24 24 23 22 24 28 30 34 35 35 32 33 34 38 45 51 50 46 49 52 51 49 44 40 37 34 33 32 32 35 34 32 34 35 35 34 35 37 36 34
43 47 47 33 34 35 36 38 31 25 23 22 22 25 29 33 32 35 35 34 33 34 34 39 49 55 54 56 51 44 42 40 38 39 37 34 32 32 32 34 34 36 36 36 38 40 42 38 35
50 48 38 40 42 40 37 36 30 24 24 26 22 26 28 31 32 34 35 36 36 39 40 40 44 46 42 40 39 40 41 40 39 38 36 35 33 31 32 34 33 34 36 37 38 37 42 43 36
66 42 45 51 61 55 39 45 32 23 26 28 28 31 31 33 33 36 37 39 41 47 48 45 43 43 42 40 40 39 39 41 38 35 34 31 32 30 26 28 29 29 29 32 32 28 35 38 40
49 46 48 53 59 57 47 44 29 28 25 28 30 32 34 35 36 39 41 45 46 50 50 46 43 41 40 39 37 36 37 36 34 31 30 29 27 27 24 24 25 26 26 28 30 31 32 35 34
49 49 52 48 52 59 39 39 30 24 22 25 30 34 36 37 38 40 44 44 48 52 50 46 42 41 40 38 36 38 37 32 31 29 25 22 20 22 22 22 22 23 25 26 27 28 33 36 32
50 63 97 90 86 56 38 40 27 24 24 24 31 34 35 38 40 43 45 45 47 51 51 44 41 41 37 36 34 33 33 30 27 23 21 20 18 20 21 23 21 21 23 24 25 27 31 33 32
70 51 50 61 55 44 43 42 26 26 27 25 24 31 36 40 38 41 43 46 49 49 46 42 40 39 34 32 29 26 25 24 20 21 19 17 17 18 21 21 20 20 20 21 22 24 25 27 29
83 87 40 44 44 41 34 32 26 28 30 30 29 35 41 41 41 42 45 45 46 44 43 42 42 39 33 28 24 22 20 21 20 19 18 19 18 16 18 19 19 20 20 20 21 19 21 23 25
67 48 66 48 56 52 37 38 28 26 26 33 32 37 40 42 42 43 43 46 43 42 43 40 36 34 29 24 21 20 18 17 17 17 18 19 17 18 19 18 18 18 18 18 19 20 21 22 24
62 76 67 45 42 40 37 31 24 26 26 28 30 33 39 43 42 43 43 46 44 42 41 37 36 32 27 22 19 18 17 17 16 16 17 17 17 18 18 18 18 17 17 17 18 19 20 23 26
46 51 50 56 53 40 37 30 24 27 30 30 30 34 37 40 42 42 46 47 44 41 38 35 33 29 25 21 17 18 18 17 16 16 17 16 17 17 18 18 18 17 18 19 19 21 22 25 28

GFSSGP_sfc_rhum_015.txt.gz
RH
37 19 18 21 26 21 22 18 21 24 24 17 16 17 18 15 16 24 32 29 30 32 38 59 80 79 75 77 75 73 68 64 60 54 50 48 50 53 52 55 55 56 55 57 61 64 67 66 59
27 17 19 22 21 23 17 14 21 22 18 16 16 16 18 16 13 23 27 31 30 30 36 45 84 76 76 79 74 72 70 65 60 55 49 50 52 52 52 52 52 55 58 60 61 63 65 66 65
23 16 21 23 21 22 23 19 20 18 16 17 18 14 14 16 15 19 27 32 31 31 34 54 83 78 79 77 75 72 70 66 61 56 56 61 63 60 56 54 56 58 59 60 61 60 62 65 66
23 19 18 25 24 16 21 21 17 18 17 16 16 18 13 18 20 25 28 29 29 31 34 77 85 79 79 76 76 74 70 68 67 61 60 60 62 72 59 62 61 58 60 62 63 61 61 61 62
23 22 27 28 26 18 11 14 15 20 19 18 18 19 17 23 25 25 29 28 29 30 34 50 83 78 76 79 77 74 71 67 63 61 59 61 66 68 68 65 64 60 61 61 59 60 60 63 63
31 24 30 29 25 21 16 13 15 17 18 17 18 19 22 22 26 31 31 29 29 33 37 42 78 82 82 80 77 71 71 67 64 60 61 61 67 68 69 68 66 62 64 64 57 60 64 71 69
35 32 34 26 24 25 21 12 15 18 18 18 16 20 18 21 27 32 31 28 33 34 38 38 46 64 90 85 82 76 74 71 67 64 63 68 71 66 68 67 64 67 68 69 66 66 68 68 69
32 30 36 29 28 26 20 16 14 19 19 15 15 19 20 23 25 31 33 32 33 38 37 37 39 45 54 57 83 83 83 81 77 77 78 78 79 72 66 69 70 71 71 70 70 69 68 69 72
30 37 37 31 28 24 19 22 18 20 22 18 15 16 18 18 24 30 35 36 35 38 39 38 37 40 41 42 62 82 84 82 80 76 82 76 46 43 49 68 75 73 73 71 72 71 71 76 82
38 39 33 23 21 23 20 23 24 26 22 20 17 14 15 15 16 20 23 27 33 34 36 37 38 38 42 41 49 50 48 51 52 48 43 44 36 37 46 66 78 77 78 78 76 74 76 80 56
38 40 27 24 22 23 24 25 22 27 30 23 20 17 16 17 16 16 17 20 24 27 30 35 39 39 41 44 44 42 42 43 41 41 41 40 38 38 41 43 46 51 70 57 53 55 56 47 47
41 32 29 26 24 27 30 25 26 26 26 22 22 21 20 20 15 15 14 16 22 27 30 32 35 42 42 41 45 41 42 42 42 42 42 42 42 43 42 41 44 46 45 46 49 48 46 48 46
45 33 28 27 26 27 28 30 29 29 23 21 20 21 21 20 17 14 15 21 22 28 30 32 33 38 43 46 42 43 41 43 42 45 44 44 46 46 45 45 46 47 47 47 48 48 48 46 45
41 35 32 27 29 28 32 30 28 26 22 21 20 20 19 19 19 20 21 23 25 27 31 31 32 34 38 44 45 43 42 42 44 45 47 48 49 51 52 52 50 50 49 48 48 50 50 49 47
40 44 36 33 30 31 28 37 32 24 22 21 15 14 16 21 23 23 26 26 25 24 26 26 27 29 35 41 45 44 44 44 46 47 46 48 50 53 54 54 54 51 50 50 54 54 54 50 47
47 55 66 38 31 29 33 44 25 19 20 17 16 15 21 26 24 26 28 28 28 28 30 34 33 29 33 38 44 43 43 44 47 47 46 47 48 51 54 55 56 59 60 59 52 49 48 48 47
61 65 58 50 28 29 34 39 23 20 18 18 16 15 20 24 25 28 28 29 29 30 34 38 36 35 38 42 44 44 46 45 47 48 50 53 53 53 54 53 43 40 43 39 38 36 38 40 39
63 63 45 51 30 34 35 35 26 22 19 20 17 14 20 23 26 29 30 29 30 34 36 41 41 42 42 44 44 47 49 45 40 38 36 34 32 34 36 34 33 32 35 34 35 34 35 37 36
42 46 43 34 28 31 35 32 27 22 21 21 19 16 20 24 28 30 30 28 31 35 40 42 42 43 43 47 49 47 46 42 38 35 32 31 30 30 34 33 31 34 35 35 35 36 40 41 37
72 47 37 32 30 33 32 32 26 23 24 22 18 18 21 26 28 30 29 28 29 32 39 44 47 48 47 43 44 43 41 38 38 38 34 30 28 29 29 33 32 33 36 34 35 37 39 37 35
62 52 35 37 33 32 35 40 35 27 24 21 19 18 21 26 28 30 30 32 33 35 40 42 41 42 44 43 42 42 41 40 37 34 33 32 28 25 26 27 27 29 31 34 35 34 39 41 37
89 42 35 38 45 52 36 40 25 22 24 23 20 20 24 26 26 29 32 36 39 44 44 40 40 39 37 36 36 37 37 38 34 32 31 28 28 25 22 23 24 25 26 30 32 26 33 38 41
78 38 38 45 48 59 52 49 30 23 24 23 21 23 26 28 29 32 36 40 43 46 47 42 39 38 37 34 33 34 34 33 31 28 27 24 23 23 22 20 22 23 25 27 28 32 31 35 34
69 42 48 47 49 61 41 40 29 25 22 19 22 25 29 29 31 34 39 42 47 48 46 43 38 36 34 34 32 34 34 30 30 28 24 22 20 21 21 21 21 21 24 26 29 31 34 34 34
90 72 92 83 88 48 31 36 28 21 20 19 24 28 29 31 34 38 41 43 47 48 45 38 36 36 32 32 31 31 32 29 27 24 22 20 19 20 21 21 19 20 24 26 27 29 32 30 33
88 63 50 57 54 40 34 42 27 22 21 19 23 27 30 33 34 38 40 43 46 45 40 37 35 33 30 29 27 26 26 24 22 21 20 18 18 18 18 19 18 18 18 20 22 26 27 27 31
83 68 38 42 34 34 37 30 24 22 25 24 23 29 34 34 36 37 39 42 44 42 39 38 35 32 29 27 24 22 20 22 21 20 19 19 17 14 17 18 18 18 18 18 20 20 23 24 27
67 46 54 41 50 46 33 30 28 26 24 25 25 31 34 35 36 37 39 40 39 39 39 37 32 30 27 24 22 21 19 18 18 18 18 18 16 16 18 17 17 17 17 17 20 22 22 23 25
85 79 52 37 36 39 36 31 21 22 22 25 25 29 34 36 36 38 38 39 39 40 39 35 32 29 26 24 21 20 19 18 16 16 16 16 16 16 16 16 17 17 17 17 19 21 22 22 26
54 69 45 47 48 36 36 31 20 22 26 25 24 28 32 35 36 36 38 41 40 40 37 35 32 28 26 22 20 20 19 18 17 16 16 15 16 15 16 17 18 18 18 20 20 22 21 23 27

GFSSGP_sfc_rhum_018.txt.gz
RH
51 30 25 40 50 44 41 27 20 32 33 23 21 23 24 23 25 49 46 37 39 50 66 76 83 79 77 79 77 71 68 63 60 53 52 50 51 56 57 57 57 58 60 61 61 63 67 67 66
47 33 33 43 43 42 32 19 28 28 23 22 21 22 25 26 28 40 47 38 36 46 61 64 84 79 76 79 77 73 69 64 61 54 51 50 53 54 54 53 56 58 58 61 62 61 64 66 67
39 23 41 47 43 34 32 28 26 21 20 24 24 22 22 30 30 38 42 38 36 42 51 73 85 80 78 77 75 73 71 66 62 56 56 62 61 62 56 55 59 59 61 60 61 60 60 62 63
35 36 32 40 39 30 22 22 22 20 21 22 22 25 28 33 37 37 36 35 39 43 75 88 84 82 83 80 76 74 71 70 68 61 60 58 61 68 62 62 62 61 62 62 62 60 61 62 61
34 41 46 44 36 28 19 14 19 23 24 23 23 27 34 36 32 36 37 34 39 45 73 84 86 82 81 80 79 76 73 69 67 62 59 60 65 67 69 67 65 63 62 61 54 55 56 60 65
47 40 48 46 33 23 24 16 20 20 21 23 28 25 40 38 42 45 38 41 37 46 55 76 85 84 82 81 78 76 74 70 66 61 59 60 67 68 70 70 68 65 64 64 60 57 64 65 69
51 50 49 41 34 27 27 15 21 21 24 24 25 28 35 34 42 42 41 39 44 45 49 60 75 83 90 86 84 79 76 75 72 67 64 70 71 66 69 73 69 68 68 67 69 66 65 68 68
45 47 47 42 40 37 24 23 20 23 25 22 22 29 38 37 38 42 49 43 47 49 49 54 60 68 84 88 87 84 83 82 78 77 78 80 78 76 73 77 76 70 71 70 68 68 68 67 70
43 58 54 44 39 33 24 27 22 23 28 24 21 22 25 27 33 40 49 49 50 49 52 51 53 60 69 65 78 87 85 84 81 81 82 84 79 64 71 77 79 75 71 70 70 72 72 78 82
53 63 50 32 29 29 24 28 28 29 30 28 25 20 20 21 25 28 40 48 49 51 51 51 52 55 57 50 81 82 74 82 77 72 75 78 69 64 61 76 75 74 77 78 74 74 78 82 82
52 62 41 30 26 25 29 30 26 31 37 31 29 29 28 29 28 23 24 27 41 43 49 48 54 53 58 59 74 69 68 70 66 67 61 61 53 59 67 73 77 87 85 86 76 84 84 83 76
55 43 39 37 30 29 34 31 32 31 32 29 28 28 29 28 28 23 23 24 33 40 43 48 49 56 57 62 64 63 63 64 65 61 56 62 66 66 64 66 67 68 71 75 71 72 65 65 62
56 49 37 32 31 30 29 36 36 34 29 27 26 27 29 28 28 25 23 32 32 40 41 43 48 58 59 62 65 63 63 63 63 64 60 64 68 70 70 70 70 71 72 71 72 72 62 61 60
49 49 47 38 31 31 34 35 35 33 28 28 27 28 27 27 29 31 27 32 43 41 42 44 44 49 58 64 64 64 61 61 63 67 66 63 70 74 76 75 70 70 65 63 64 63 64 62 60
41 55 47 46 37 35 33 40 39 31 29 28 28 26 21 27 29 36 37 36 37 39 37 35 36 44 51 60 63 64 62 59 62 64 58 63 67 72 74 78 75 70 66 65 66 65 66 69 63
66 56 74 49 40 36 39 52 37 29 30 29 27 22 28 31 34 35 37 40 43 44 42 47 38 40 46 58 63 62 57 65 62 62 61 61 62 70 74 69 57 57 68 64 56 57 57 59 59
72 79 67 62 42 39 39 47 35 30 28 30 27 23 28 33 34 38 41 52 46 46 49 51 46 42 50 61 63 58 62 64 60 52 44 40 44 48 50 52 50 50 56 55 52 53 57 58 55
79 81 65 69 51 45 47 41 37 31 29 28 26 24 29 34 35 39 40 52 47 50 56 57 58 59 61 63 64 56 49 48 49 51 47 43 44 44 52 51 49 51 55 56 52 52 55 58 58
59 58 67 50 39 46 43 39 37 32 31 34 32 28 31 35 39 40 43 46 52 57 58 61 62 61 64 72 65 58 64 58 54 50 42 40 40 43 47 52 49 49 52 51 43 49 51 52 52
69 73 69 54 40 40 41 42 36 32 30 29 30 29 30 40 42 42 42 46 51 61 64 67 67 60 57 60 58 60 59 57 54 51 44 38 36 36 33 41 43 42 48 46 46 48 56 54 52
61 83 74 78 49 37 46 48 40 32 29 28 30 29 31 38 42 44 47 49 54 61 61 58 60 60 59 54 50 50 57 58 56 54 51 43 34 32 34 35 37 40 44 50 46 48 48 59 54
72 55 68 66 85 80 45 70 44 35 35 32 35 30 36 37 40 41 46 55 62 65 62 58 56 57 57 56 59 58 58 56 54 51 46 42 34 31 30 31 34 36 42 42 43 35 46 50 58
72 62 75 77 88 78 64 66 50 34 38 36 32 30 37 37 39 46 54 57 60 65 64 58 53 51 50 49 49 53 53 52 49 45 38 33 34 31 30 31 32 34 41 40 40 41 44 51 50
63 70 90 88 80 92 63 66 53 39 33 31 30 34 37 38 43 50 57 60 67 67 64 57 51 50 48 48 47 49 48 45 45 38 38 35 36 37 31 29 30 31 35 37 41 39 42 44 45
73 85 100 100 99 81 45 56 48 30 27 26 29 37 38 41 46 54 62 67 66 65 59 52 50 48 45 45 44 43 41 38 35 35 34 31 32 34 30 30 29 31 31 34 35 38 40 42 44
80 98 99 96 92 64 42 58 46 29 26 29 31 36 40 43 49 54 60 65 67 60 54 49 46 44 41 39 36 35 35 38 34 31 32 29 29 28 27 28 27 26 26 29 30 37 40 32 44
88 99 82 72 41 55 55 46 34 31 33 33 36 38 43 44 50 53 59 62 63 58 53 49 45 42 38 36 33 30 29 30 31 28 28 29 26 19 24 26 25 26 26 26 28 33 33 34 36
96 75 93 71 62 70 58 51 46 39 39 33 39 43 45 45 49 51 55 59 58 55 54 47 42 39 36 33 30 27 26 25 25 26 24 24 22 23 24 25 24 25 26 26 28 34 34 30 34
95 96 86 59 54 64 63 52 35 34 34 35 37 40 44 46 47 51 54 55 56 55 53 46 40 37 35 32 30 28 26 25 24 23 22 21 22 23 24 24 25 26 26 26 29 30 28 28 33
80 76 70 63 67 63 56 50 30 34 33 34 34 38 42 44 47 50 53 54 57 57 52 46 41 38 35 30 28 28 27 26 24 23 22 22 23 24 24 26 27 28 29 30 30 30 30 33 37

GFSSGP_sfc_rhum_021.txt.gz
RH
67 51 47 37 42 50 50 37 29 32 31 30 28 28 30 31 31 52 51 60 77 84 85 83 84 81 77 78 74 72 69 64 58 56 52 54 56 58 58 58 58 59 60 59 60 62 67 68 65
75 50 39 44 39 43 43 31 32 28 27 26 24 28 28 36 44 52 52 48 70 79 83 83 85 82 78 79 75 72 69 65 60 55 52 52 54 58 58 55 59 58 59 60 60 59 61 65 65
58 46 43 51 52 43 36 37 31 23 22 27 27 26 32 44 45 52 51 45 66 74 73 79 87 82 79 79 76 74 71 66 62 60 58 62 61 61 52 57 61 60 62 61 61 60 59 59 59
44 43 41 46 45 36 33 22 28 24 22 24 28 30 41 42 48 48 44 43 55 75 70 86 87 84 85 80 75 74 72 69 66 63 60 59 62 66 64 63 63 64 65 63 62 61 61 62 63
47 53 56 59 47 37 30 17 24 25 28 28 27 34 44 45 47 45 43 43 71 90 85 85 87 85 85 79 77 75 73 71 70 64 61 61 67 70 70 67 66 66 65 62 55 54 56 59 66
58 54 66 64 50 35 29 20 22 25 26 24 30 32 50 55 49 50 42 48 72 82 84 84 88 87 86 82 80 77 74 70 68 64 62 62 66 68 74 70 69 66 66 66 64 61 61 66 68
68 69 68 59 49 42 32 18 20 26 32 29 28 35 48 54 48 45 48 49 60 70 85 89 91 88 89 87 84 82 77 75 73 68 65 72 70 67 68 74 72 68 68 68 69 69 66 65 67
64 66 70 64 52 48 35 25 22 23 29 27 27 34 46 42 43 46 47 46 55 63 71 89 94 92 96 94 89 86 85 82 80 78 77 77 77 76 74 82 79 71 70 72 70 67 69 70 71
67 81 77 64 52 42 34 28 27 25 31 32 28 28 29 36 45 53 54 56 60 56 66 75 80 86 94 92 89 87 87 86 83 82 84 84 86 76 78 83 79 80 73 70 70 70 72 80 84
78 88 70 49 42 41 33 31 31 35 38 38 32 28 29 42 46 53 56 57 58 62 60 64 72 75 84 68 88 94 87 93 90 86 87 88 88 74 66 80 81 77 77 79 74 74 80 84 94
75 81 58 47 39 36 34 36 33 39 42 37 35 35 35 29 29 29 35 56 54 55 61 58 62 68 75 75 86 87 88 89 88 83 81 87 75 75 76 82 82 84 85 87 81 82 90 91 91
84 62 57 52 45 43 42 34 38 36 36 34 33 33 35 32 32 29 29 26 44 55 55 57 59 64 69 78 81 82 81 83 86 81 73 74 74 72 72 75 78 83 81 84 84 82 76 72 68
70 60 52 47 44 41 38 40 39 40 34 32 30 29 32 34 33 31 27 34 40 50 54 57 62 64 67 73 72 74 67 74 72 70 66 72 77 79 81 82 79 78 78 71 69 68 66 65 64
51 52 51 51 50 44 40 41 43 40 35 34 32 33 34 33 34 32 35 35 42 48 49 53 55 65 65 72 74 73 68 63 70 69 72 70 78 81 82 82 74 76 70 69 68 61 63 73 71
66 66 54 52 53 53 45 46 43 37 36 36 33 35 31 31 33 34 40 39 44 47 46 49 53 60 68 68 70 70 61 61 64 67 62 66 75 79 82 80 61 64 52 45 53 52 57 55 49
77 75 79 55 51 48 47 64 44 39 41 40 36 38 33 35 33 40 39 41 43 46 49 49 40 43 68 70 72 64 63 64 65 60 46 40 47 65 58 45 45 52 59 57 56 60 61 61 61
86 92 87 68 52 53 50 58 43 39 39 36 39 38 35 40 44 44 41 44 48 53 56 54 50 43 63 74 62 51 45 44 43 42 40 40 45 50 50 53 55 56 61 58 55 57 60 60 61
69 91 87 85 59 55 61 57 48 40 40 39 40 31 38 41 45 43 42 49 52 61 62 67 64 72 68 55 51 46 43 47 45 43 42 44 44 44 52 53 49 53 58 53 50 51 51 57 57
76 80 82 68 54 60 58 57 50 43 36 44 38 36 43 46 48 46 49 58 66 69 70 72 72 74 67 60 58 54 64 52 47 41 38 37 40 38 43 48 45 48 53 48 43 52 53 56 55
78 88 87 67 58 62 58 58 46 41 40 39 39 40 48 53 51 50 53 65 73 78 78 76 70 68 64 61 64 65 59 59 54 50 37 34 34 36 33 41 44 43 50 45 46 50 55 58 56
80 88 81 74 62 61 70 68 53 42 36 35 37 36 42 47 50 54 61 70 71 70 71 68 66 60 56 52 50 53 62 62 60 55 49 37 32 33 36 36 39 43 50 50 45 49 49 59 58
81 58 60 61 75 87 75 88 65 47 41 39 37 43 44 49 48 51 61 70 71 73 68 66 65 60 58 56 58 61 60 60 59 57 49 41 32 32 34 34 36 40 45 43 45 39 49 53 56
69 59 65 63 78 85 85 96 72 48 42 37 35 47 46 47 47 56 64 65 70 68 65 62 58 58 58 57 56 56 58 58 55 47 42 38 35 32 32 32 35 36 43 40 41 42 44 50 52
66 73 71 80 82 97 84 95 71 55 40 36 36 46 46 48 53 63 66 67 72 68 62 59 52 54 52 53 54 52 50 45 42 38 39 39 40 39 32 30 32 33 37 39 42 41 40 42 47
83 89 94 94 96 90 66 85 74 44 36 37 37 45 45 51 62 69 70 69 72 66 61 54 51 52 48 45 43 42 38 36 36 37 35 33 33 34 31 31 30 33 33 35 36 37 39 41 43
90 81 84 92 80 70 77 97 63 39 35 32 38 42 47 59 64 69 70 71 70 61 57 52 48 47 42 40 40 39 36 40 36 33 33 31 30 30 29 29 28 28 28 31 32 40 42 35 45
87 96 61 94 96 84 89 55 38 40 43 44 46 47 53 61 65 70 70 68 69 63 55 50 47 44 40 37 35 32 32 32 32 29 30 32 28 21 26 27 27 28 29 30 32 37 37 38 40
74 60 91 99 98 98 75 59 52 46 47 47 49 50 55 60 63 67 68 67 65 59 55 49 44 42 38 34 30 28 28 29 28 27 25 24 25 24 26 26 27 28 30 31 32 38 39 38 41
94 98 76 83 86 86 80 63 44 39 39 47 49 49 54 58 60 65 66 62 62 57 50 48 43 39 36 33 30 29 29 27 26 25 24 24 24 25 26 28 29 31 32 32 35 35 34 37 42
64 84 72 87 92 76 63 55 40 40 39 42 47 49 53 54 59 63 63 62 59 56 49 43 43 39 36 32 31 31 29 26 26 26 25 26 26 27 29 31 32 33 34 36 36 36 38 42 48

GFSSGP_sfc_rhum_024.txt.gz
RH
75 64 60 41 38 49 53 44 33 30 32 30 27 28 31 37 33 46 68 76 85 94 89 85 85 84 77 78 74 72 69 62 59 57 58 61 60 62 59 58 58 58 59 58 60 62 66 67 64
86 58 45 49 41 43 42 34 38 31 26 26 29 28 32 50 55 57 71 84 83 89 89 86 86 82 78 79 74 72 69 65 59 56 55 57 58 60 58 60 59 57 59 60 60 59 62 66 65
56 53 47 52 57 48 38 33 32 26 25 28 33 32 43 50 57 57 64 79 82 88 88 85 87 84 80 79 76 72 70 67 61 60 59 59 58 62 61 60 60 61 61 60 61 60 59 59 60
54 49 46 53 51 44 35 34 28 23 23 28 31 38 47 49 47 50 62 75 89 92 91 90 88 85 84 82 76 73 71 68 63 62 62 64 65 66 55 64 65 66 66 63 62 61 62 63 64
54 58 62 64 54 43 41 30 25 25 29 30 28 38 51 51 56 51 56 69 80 86 87 89 89 86 86 79 76 76 73 70 68 63 64 63 68 71 71 67 68 68 66 63 58 55 57 60 64
67 60 74 67 52 40 39 33 24 24 29 28 32 46 52 56 52 50 50 75 77 86 87 89 89 89 85 80 79 76 75 73 72 64 63 66 66 68 72 70 69 69 67 67 66 66 63 65 68
77 74 75 68 56 50 39 34 28 26 30 33 32 50 54 61 50 48 53 80 86 87 92 95 94 91 89 87 84 82 77 74 73 68 68 71 72 69 73 74 73 69 68 70 69 70 68 67 66
71 73 80 71 63 56 41 34 23 25 27 30 27 47 54 42 48 51 58 79 87 90 91 97 96 95 96 92 89 87 84 83 81 80 78 82 80 76 76 84 82 73 71 72 73 68 67 69 71
73 91 90 70 61 49 40 39 29 26 32 34 32 30 30 39 54 58 61 68 77 81 89 95 95 96 96 96 91 90 89 86 85 84 84 84 88 82 81 87 83 82 76 73 70 70 72 80 85
91 96 82 60 53 49 45 40 34 38 41 42 38 33 39 47 57 56 60 62 70 74 80 88 90 93 96 81 94 96 91 95 93 89 90 92 91 85 67 84 84 81 81 80 74 74 81 86 96
88 91 67 57 48 46 47 44 34 38 42 37 38 39 38 44 50 55 59 61 61 62 69 75 81 82 92 84 95 99 98 98 97 92 91 91 87 91 88 90 92 93 86 86 83 83 85 91 94
87 74 65 64 56 57 59 43 46 40 37 34 35 36 37 36 36 36 39 44 58 61 62 65 72 79 90 84 89 92 92 94 97 91 86 94 92 80 83 85 84 88 87 87 88 86 79 70 68
80 72 61 61 60 56 51 55 49 44 35 35 34 34 35 36 36 37 36 28 34 59 58 66 67 72 79 88 86 92 90 91 89 87 81 80 82 83 85 88 88 87 80 74 71 67 57 54 64
64 64 62 57 56 57 60 58 50 43 38 39 36 35 37 36 36 39 35 31 42 55 58 61 67 71 74 80 88 83 80 74 73 69 70 78 83 87 89 87 79 65 56 47 45 49 55 59 58
67 80 71 61 57 61 56 65 62 44 40 40 39 37 38 36 35 33 34 38 46 51 56 63 64 70 75 77 78 73 64 64 69 69 66 70 82 87 68 56 52 52 47 46 52 57 57 56 53
83 84 89 60 56 56 59 76 55 45 46 44 43 43 44 40 35 40 43 44 46 48 49 50 50 71 75 77 80 67 66 65 53 45 44 44 45 46 45 47 52 58 58 56 57 59 54 58 57
90 98 89 77 53 59 63 64 53 45 47 46 44 45 43 41 42 47 44 46 47 51 56 54 48 63 80 71 58 48 45 44 43 42 41 41 44 47 50 54 57 58 54 53 52 52 55 58 54
71 90 88 86 70 61 63 64 56 51 48 46 40 37 43 43 45 48 46 51 59 62 63 62 56 82 61 53 49 45 43 42 40 41 43 43 43 46 50 48 50 53 50 50 49 48 50 59 57
76 83 89 82 62 73 69 62 52 49 52 53 51 49 42 46 52 50 53 64 74 76 77 81 84 67 57 57 56 62 60 42 39 36 37 39 39 40 45 48 46 52 48 47 44 50 54 56 60
86 89 85 72 57 63 69 73 61 51 46 46 44 45 42 56 56 56 67 81 80 86 88 86 84 75 66 60 63 59 56 49 46 42 36 36 36 36 36 43 46 47 48 44 46 51 54 58 61
88 92 80 77 67 57 58 62 62 54 51 44 41 40 45 49 55 62 82 85 86 86 83 76 73 68 61 54 50 51 49 55 55 49 43 36 34 37 37 39 42 46 49 49 48 50 50 58 59
91 70 73 75 77 92 76 82 64 61 54 49 43 46 47 50 55 65 79 81 82 82 78 72 65 60 56 52 49 46 50 54 62 56 45 37 33 35 35 36 38 41 46 43 45 42 49 51 53
78 59 65 75 83 82 74 87 73 59 59 52 44 40 44 51 53 68 73 72 75 74 75 72 68 65 68 64 56 57 60 62 58 50 42 35 35 34 33 34 35 37 45 42 40 43 42 50 53
68 72 74 82 89 94 66 79 72 69 60 48 43 45 46 52 57 71 75 70 72 68 66 65 62 64 62 58 58 56 52 48 46 46 46 42 39 39 32 31 34 34 37 39 43 40 40 43 45
66 82 94 100 97 83 53 74 62 60 55 43 39 48 53 52 67 75 73 69 65 62 62 57 56 58 54 51 48 45 42 37 36 38 39 34 33 35 32 32 30 34 34 37 39 40 41 42 45
80 80 93 93 97 66 71 83 65 51 40 37 41 42 53 61 67 71 69 66 62 58 58 53 50 49 45 42 41 38 38 41 39 35 34 33 32 32 30 29 29 30 31 34 36 43 44 39 46
88 96 64 82 81 97 89 84 60 56 46 48 48 54 59 66 72 72 70 64 60 58 54 50 46 44 40 38 37 37 36 35 34 32 32 32 29 23 28 28 29 31 32 33 35 40 40 42 44
71 67 93 95 98 86 79 93 63 52 50 59 57 59 65 71 75 74 67 64 60 55 55 49 42 39 37 34 32 32 32 30 29 28 26 26 26 27 28 30 31 33 34 35 37 42 42 41 46
94 98 84 70 79 96 84 79 44 39 43 58 60 60 68 74 76 74 69 64 61 55 49 47 42 37 34 32 31 31 31 28 27 26 26 26 27 28 29 32 34 35 36 37 40 40 39 41 45
93 83 80 80 73 96 98 71 44 44 46 49 56 58 65 69 73 74 69 66 59 52 49 45 42 37 34 32 32 32 30 28 28 28 28 28 29 30 32 35 36 37 39 40 42 42 43 44 49

GFSSGP_sfc_rhum_027.txt.gz
RH
81 79 54 40 42 50 51 42 39 32 34 35 32 33 32 42 36 44 70 79 91 89 94 84 85 83 78 76 73 71 67 63 61 59 64 65 56 60 60 60 58 58 56 56 61 65 68 67 65
81 59 46 52 50 44 42 37 38 31 28 28 34 34 38 56 59 68 79 87 88 94 93 91 88 84 78 77 75 72 67 63 60 58 60 62 61 61 60 59 57 56 57 58 59 60 64 67 67
61 48 47 54 60 55 41 33 34 28 24 32 35 41 50 57 61 63 66 89 94 96 95 90 89 84 80 80 76 73 69 64 59 57 58 58 60 61 61 62 58 60 61 61 61 61 59 59 61
56 52 50 56 56 50 36 38 36 28 22 29 34 47 51 50 55 53 82 88 96 98 96 92 90 86 85 82 77 73 70 67 61 62 62 63 58 63 63 63 64 67 66 64 62 62 62 63 65
57 61 66 69 60 50 44 37 35 28 26 31 32 41 57 48 58 69 87 88 94 97 96 95 90 86 85 80 77 74 71 69 64 62 63 65 67 71 64 66 67 69 68 65 60 57 58 60 63
72 64 80 70 54 48 44 38 35 29 26 33 33 52 52 53 60 66 81 90 83 92 92 95 91 89 88 82 79 77 74 72 70 63 65 66 69 69 72 69 69 69 67 67 66 66 66 64 67
79 74 81 76 59 53 42 38 42 33 34 33 30 49 54 53 52 56 72 89 86 86 92 97 96 94 89 85 84 82 78 77 76 67 68 72 74 70 73 73 72 71 69 70 71 70 68 67 68
77 78 86 78 63 56 45 40 32 30 26 32 34 48 55 43 50 56 69 93 95 96 95 97 98 97 96 94 89 87 85 83 81 78 79 82 80 76 76 84 80 75 72 72 73 72 67 68 71
73 92 92 73 67 56 47 46 38 32 34 37 36 40 35 45 56 62 78 89 95 94 97 97 98 98 97 97 92 91 89 86 86 85 85 86 92 87 84 89 89 86 77 74 72 71 73 81 85
93 97 80 67 60 56 49 45 41 37 39 44 42 40 50 58 60 60 68 82 90 95 96 98 97 97 98 88 95 97 93 96 94 93 92 94 92 90 72 86 88 81 82 83 76 75 81 89 97
92 89 66 68 57 52 56 51 45 46 45 39 39 41 42 55 64 62 62 69 78 82 88 91 97 97 97 92 99 99 99 98 97 93 93 94 91 94 92 92 90 94 89 88 86 86 86 87 89
88 78 75 72 64 66 68 54 53 49 42 37 38 38 41 40 50 55 59 60 67 72 72 78 87 95 97 95 98 98 98 99 99 97 93 96 97 92 90 91 89 93 91 90 90 82 72 57 51
87 81 68 65 68 68 64 67 65 55 45 39 37 39 39 39 39 40 40 40 42 59 66 71 80 87 92 96 98 98 98 97 97 95 92 92 93 86 89 93 94 93 77 66 52 50 48 47 54
71 68 68 62 63 63 66 64 66 59 47 43 42 40 39 39 40 41 40 39 38 36 54 66 73 79 87 88 96 95 97 95 93 81 78 76 78 88 92 79 65 50 48 46 47 47 51 56 54
71 82 73 71 63 62 61 62 64 56 56 51 46 43 40 39 40 40 36 36 35 44 58 69 69 76 83 86 92 92 88 79 73 71 71 75 77 60 59 60 52 55 50 47 52 49 51 52 45
85 88 93 67 64 60 58 69 62 51 54 54 48 48 45 43 41 41 39 41 45 52 60 71 62 75 82 85 87 71 69 62 52 51 49 47 44 46 48 51 59 54 52 52 51 52 50 50 50
89 97 93 75 60 62 70 67 54 53 56 56 53 51 46 45 43 41 46 49 50 52 58 66 74 78 85 76 64 54 48 47 45 44 44 42 42 42 45 56 56 50 50 51 50 49 57 53 47
80 98 92 88 71 70 72 67 56 55 58 61 56 53 48 48 42 42 49 54 54 59 62 59 75 81 66 57 52 48 44 43 43 42 41 40 43 43 47 51 51 48 49 49 46 48 50 63 58
91 91 90 84 66 75 77 73 66 60 56 53 62 56 49 50 45 50 54 61 76 76 74 69 84 67 59 58 57 57 49 42 38 36 33 34 40 42 45 51 49 48 46 47 44 50 53 55 61
91 96 86 77 65 68 71 70 56 51 50 56 52 53 49 51 54 53 59 79 83 84 88 92 77 70 64 60 61 57 52 44 36 36 33 37 38 38 39 46 48 45 46 44 46 51 52 56 62
87 88 69 71 61 65 74 66 46 39 43 50 52 46 45 48 52 59 72 86 90 91 94 91 80 72 64 55 48 44 38 37 37 35 41 39 37 39 40 41 43 45 48 50 50 51 49 54 54
89 74 76 80 88 89 79 83 56 52 47 46 49 50 49 52 50 54 84 90 92 92 92 82 72 64 55 51 47 43 43 44 51 48 42 39 36 36 38 38 40 43 47 44 44 42 50 51 54
74 64 78 80 88 92 78 96 72 54 50 49 63 53 53 52 54 66 81 84 88 89 87 79 69 65 63 57 50 51 56 53 54 44 38 35 36 35 35 35 36 39 46 42 41 42 42 51 52
66 70 74 81 92 98 70 81 60 42 44 59 57 55 53 50 54 69 86 82 84 83 81 76 70 72 66 61 58 52 51 47 44 47 45 41 40 40 34 32 35 36 40 40 44 41 40 44 45
69 90 98 98 97 86 60 72 58 43 54 59 53 51 52 57 67 84 82 80 77 76 75 72 67 68 63 59 56 52 47 42 43 44 43 37 35 37 33 32 32 35 36 39 40 41 41 44 45
86 88 95 91 92 87 51 74 51 40 33 30 29 39 52 61 72 76 77 75 72 69 68 66 63 59 54 50 48 43 41 43 42 39 38 34 34 34 31 31 31 32 34 36 38 45 46 42 48
98 98 73 87 71 88 84 71 60 38 57 59 52 53 62 66 74 77 74 69 66 63 62 59 56 51 46 42 40 40 39 38 36 33 33 35 32 26 29 30 32 34 35 36 38 43 43 45 46
83 68 95 99 97 93 63 72 74 58 41 31 45 57 63 69 75 76 70 65 61 59 56 51 46 44 40 38 35 35 34 32 32 31 29 29 28 29 30 33 34 36 38 39 41 46 46 45 48
93 96 90 78 86 93 78 51 32 44 38 40 60 69 72 76 78 75 67 63 59 56 50 47 41 38 36 34 34 32 32 30 28 28 28 28 29 30 32 35 37 39 40 41 44 45 43 44 48
64 72 78 83 90 78 74 66 50 55 50 52 68 74 81 80 76 71 68 63 56 54 49 44 39 35 34 33 32 33 32 29 29 29 29 30 30 33 35 38 39 41 43 45 46 47 46 48 50

GFSSGP_sfc_rhum_030.txt.gz
RH
77 73 49 40 43 52 56 43 56 33 39 37 35 33 35 39 39 46 72 86 90 86 93 77 84 82 78 74 72 70 66 65 63 60 61 70 64 58 58 59 58 57 55 57 62 69 70 69 68
79 58 46 52 52 53 45 46 40 36 29 27 34 38 42 53 61 67 80 82 90 88 95 90 83 84 78 76 74 71 66 62 60 60 67 60 58 59 58 57 56 56 58 59 60 61 65 67 67
62 44 45 54 63 59 46 36 38 34 30 30 37 43 48 57 62 67 69 89 96 98 97 93 88 85 80 77 76 72 67 63 59 57 59 62 59 60 60 58 58 62 61 61 61 61 59 59 60
58 53 52 57 59 53 39 36 40 34 25 30 37 46 51 53 60 60 84 96 98 99 97 93 90 86 84 81 77 74 69 64 60 58 59 58 60 61 61 63 62 67 65 63 62 61 62 63 64
60 64 66 73 62 53 48 41 39 36 30 30 32 40 52 53 65 84 94 94 97 99 98 96 91 86 85 80 78 74 71 68 62 62 63 66 59 65 65 65 67 70 67 65 61 58 58 59 63
72 66 81 75 62 54 47 42 41 35 31 28 38 51 52 53 63 86 93 95 95 98 98 96 92 89 88 83 80 75 73 70 66 63 64 66 68 68 72 68 70 70 67 66 65 66 66 66 65
79 78 82 78 66 55 45 39 43 40 34 32 38 54 58 53 58 72 90 92 92 95 97 98 97 94 92 87 83 82 77 76 74 67 67 70 75 71 71 72 71 71 69 68 70 70 69 66 67
82 76 87 80 64 61 45 44 39 30 28 32 39 50 62 48 57 64 80 92 92 95 96 98 98 97 96 94 88 87 86 84 83 78 78 81 82 76 74 82 79 75 71 71 73 72 70 70 72
76 93 95 81 70 60 51 51 42 37 37 38 39 46 38 54 64 74 87 95 97 95 97 98 99 99 97 96 93 90 89 86 86 85 85 87 93 89 86 87 89 85 78 74 73 72 74 84 88
93 98 84 70 62 62 54 54 49 46 46 44 41 38 54 63 69 68 77 87 96 97 98 98 99 99 98 91 96 97 94 96 94 94 91 93 91 90 77 84 86 81 81 83 78 78 78 80 92
93 92 76 72 65 62 63 57 52 54 56 43 46 40 44 66 71 66 71 82 90 92 97 97 98 98 98 97 99 99 99 99 97 93 94 94 92 95 95 95 91 94 89 90 86 88 88 84 78
91 83 82 77 68 72 77 66 69 55 47 41 46 40 43 42 60 65 66 67 71 80 86 91 97 98 98 99 99 99 99 99 99 97 94 96 97 96 93 95 91 93 93 90 91 70 48 47 44
91 86 73 68 66 72 70 74 77 69 54 49 48 45 42 42 41 44 54 53 60 67 74 83 94 97 97 98 99 99 98 98 98 98 95 96 96 91 92 95 95 91 67 50 50 46 44 42 48
77 73 71 66 63 65 69 66 72 66 60 57 50 48 46 45 41 44 42 41 44 43 49 72 83 89 94 93 97 98 98 98 97 87 84 82 77 82 85 68 58 50 48 48 51 52 51 47 44
77 87 79 74 68 65 64 70 71 52 58 60 58 56 49 45 44 42 39 40 40 39 40 67 77 83 90 92 94 97 98 87 86 77 73 75 80 61 58 56 52 53 54 47 44 44 50 43 40
78 83 96 70 70 63 62 75 54 50 55 63 62 62 54 46 41 44 43 42 41 44 51 69 67 84 86 88 96 91 83 77 65 67 71 55 48 49 51 50 52 48 48 49 48 50 52 46 47
80 84 89 78 64 67 75 79 66 57 65 67 68 63 55 50 46 45 44 44 45 52 56 71 82 87 90 95 83 70 56 54 51 50 47 44 44 45 46 46 48 47 48 48 46 49 59 51 44
83 72 62 74 74 73 77 75 61 59 57 56 62 62 61 55 47 45 43 47 54 58 66 75 92 94 80 65 56 53 50 51 51 44 42 38 38 41 44 45 46 45 47 46 43 45 50 62 59
78 94 89 75 67 78 76 70 59 52 61 66 62 57 62 58 47 48 47 56 64 70 73 88 92 77 65 63 61 58 56 46 41 37 35 34 35 41 46 50 45 46 45 45 42 48 47 57 61
85 87 77 71 66 73 73 68 57 53 53 53 59 57 58 57 56 51 55 68 77 76 80 90 84 74 68 64 63 60 50 44 37 37 34 33 34 40 41 46 46 43 46 44 46 46 47 52 63
90 93 86 79 64 64 72 68 46 36 39 41 40 42 48 55 55 55 60 73 87 88 91 90 83 77 68 57 48 42 38 34 36 34 36 36 38 40 42 42 44 46 49 52 50 48 47 49 52
90 76 76 80 89 93 83 85 59 50 43 43 40 45 54 54 58 54 60 83 90 91 95 91 80 71 59 52 49 44 44 38 38 36 35 34 38 39 40 41 42 44 47 44 44 41 51 49 55
80 71 80 84 96 98 89 94 73 54 50 46 53 60 55 51 54 54 63 67 90 95 96 89 76 68 64 55 48 50 49 41 37 34 32 37 38 37 37 37 38 41 48 43 40 43 44 52 49
67 75 78 92 96 96 70 83 61 46 39 36 51 52 53 56 62 56 68 91 94 96 92 80 71 73 65 59 53 46 39 34 35 36 39 42 43 43 36 35 37 39 42 42 44 44 41 45 45
82 99 98 98 98 89 67 80 57 41 38 44 45 54 61 62 65 85 92 92 94 94 88 79 71 73 64 51 48 41 36 37 35 39 39 38 38 40 34 32 34 38 40 41 42 43 43 45 46
82 89 96 93 87 88 62 78 51 42 36 32 32 39 53 62 76 84 86 87 89 89 82 76 72 69 57 51 50 45 40 43 43 41 38 37 37 36 33 33 34 34 36 38 40 47 47 44 49
98 98 74 97 96 95 84 71 54 48 46 50 53 40 37 55 81 86 88 86 86 83 78 73 67 61 54 49 44 43 41 40 39 35 36 37 35 29 32 33 35 36 38 39 41 46 45 48 49
82 80 97 99 97 94 79 72 57 47 31 31 39 34 56 69 85 88 88 84 79 75 70 62 55 51 45 42 39 37 36 34 34 33 33 31 31 32 34 36 37 38 40 41 44 48 49 48 50
96 97 99 90 96 94 74 53 36 30 28 44 52 40 52 77 83 87 82 74 68 63 60 53 47 42 39 37 34 33 33 30 29 29 31 31 33 34 36 38 39 40 42 44 46 47 45 47 51
69 78 79 86 89 88 86 56 36 51 58 60 63 66 82 82 89 81 73 67 62 58 52 47 41 38 36 34 32 32 30 30 30 31 32 32 35 37 38 40 41 42 45 47 47 47 48 52 55

GFSSGP_sfc_rhum_033.txt.gz
RH
65 57 38 39 39 40 37 32 32 28 28 25 24 25 26 26 32 35 60 64 67 68 77 69 84 83 77 73 71 69 68 66 62 61 62 72 64 60 61 60 58 57 56 59 64 72 72 70 69
63 44 42 45 41 43 36 31 31 28 25 24 27 31 28 33 43 47 55 64 71 71 74 64 86 84 78 74 73 70 67 65 61 60 62 68 56 60 59 57 56 58 59 59 60 64 67 67 65
46 35 40 43 46 43 38 30 29 29 27 25 27 32 31 37 45 45 51 66 72 72 74 69 87 84 80 76 75 71 66 62 60 60 69 62 58 59 58 56 59 63 61 61 60 60 59 59 61
49 44 41 43 45 43 34 25 30 30 23 23 26 33 37 37 43 44 63 74 73 77 75 78 87 85 83 82 76 72 67 63 59 59 59 62 58 60 61 62 63 67 64 62 61 61 62 62 63
50 50 50 53 48 41 36 33 31 31 27 22 24 28 36 41 52 62 75 78 77 84 77 72 90 86 85 80 77 75 70 65 62 60 60 59 60 62 63 65 66 69 65 63 61 59 60 60 63
58 52 58 56 50 43 37 34 32 29 26 22 27 36 35 41 51 75 80 79 78 89 82 78 89 88 88 83 80 76 73 70 65 64 64 65 66 69 70 70 70 70 66 65 65 68 68 67 66
66 62 64 58 54 44 37 30 31 30 30 24 27 33 32 37 47 73 75 78 80 82 83 80 77 81 92 87 84 81 76 77 72 68 67 70 73 69 73 73 73 71 68 68 71 70 69 66 67
66 60 71 63 52 49 36 36 31 25 24 23 27 31 30 33 50 70 73 75 79 83 82 84 84 79 78 75 88 87 85 83 82 78 77 80 80 77 80 81 78 73 71 70 73 72 70 72 76
65 79 79 66 60 48 40 39 34 33 30 33 28 29 35 51 57 68 76 79 78 80 81 84 86 84 82 79 78 87 89 87 87 80 84 81 70 68 65 83 89 83 78 75 75 74 79 80 81
79 90 75 63 54 49 45 45 42 38 40 37 32 30 40 54 57 60 62 68 78 78 80 82 88 88 85 80 79 79 77 72 68 68 66 65 66 61 60 74 81 80 82 81 74 74 76 72 60
84 88 69 64 57 58 60 56 44 44 50 40 35 33 34 47 55 56 56 56 63 73 78 81 85 88 87 81 83 83 79 79 72 71 68 68 68 67 62 61 60 63 79 61 63 62 51 43 41
83 78 78 71 64 67 68 61 65 55 47 35 37 39 38 35 36 52 53 53 60 68 70 77 81 88 88 81 81 80 80 81 77 73 70 68 70 71 64 61 64 64 61 62 58 44 40 39 35
85 78 68 64 59 60 64 68 65 65 55 48 46 48 44 39 36 34 44 49 51 55 62 72 80 84 86 88 83 82 81 78 75 74 71 68 71 67 63 68 64 59 46 46 43 37 32 27 24
68 68 66 63 60 58 62 57 64 54 53 54 54 49 43 41 38 35 35 32 35 35 44 56 72 79 80 82 83 78 78 76 76 76 80 80 77 74 71 54 50 48 42 37 34 30 27 24 22
69 78 71 68 64 63 56 64 67 48 47 46 48 49 49 46 41 39 34 33 30 32 32 42 58 74 79 78 80 78 78 75 80 81 77 76 75 66 57 52 48 45 36 28 27 30 27 25 21
73 74 81 62 61 61 55 60 50 42 49 51 47 43 44 41 37 36 36 34 32 35 35 36 49 70 76 76 78 76 75 77 81 80 74 72 59 55 51 48 42 34 32 31 29 31 32 26 25
80 86 87 68 56 62 66 68 53 53 51 52 52 54 52 49 43 39 37 37 35 34 36 42 60 69 74 75 76 74 72 68 66 64 56 51 50 48 44 38 36 30 30 31 28 32 34 27 26
81 89 71 64 55 65 67 66 54 48 50 48 47 50 50 50 45 39 38 37 35 38 43 48 61 74 76 78 66 60 61 67 61 50 46 44 44 41 41 34 31 29 31 29 30 26 33 32 33
78 86 78 66 58 69 64 64 56 48 48 49 46 44 44 49 42 40 41 38 40 45 53 58 76 82 73 68 65 64 70 61 46 42 37 37 37 36 37 32 31 32 30 29 25 30 30 33 33
78 83 69 56 53 65 66 66 51 48 46 43 41 41 43 39 44 46 43 43 45 47 56 69 78 74 68 65 64 62 71 55 46 40 36 35 37 36 34 32 32 32 32 30 29 30 31 33 38
84 88 81 78 63 58 62 60 38 32 34 36 38 38 37 39 43 43 45 46 53 59 65 71 75 70 66 58 54 50 52 48 48 37 38 38 34 35 32 34 32 34 34 34 35 35 34 32 38
89 73 72 76 82 85 69 67 38 34 34 32 34 37 37 37 37 40 45 48 56 63 76 74 73 67 59 54 53 52 61 58 52 38 36 35 32 34 32 33 31 32 33 33 32 31 35 34 35
75 68 74 77 88 86 76 84 49 46 46 40 34 34 39 39 40 44 46 48 54 73 81 76 71 63 57 53 52 55 66 53 38 33 32 32 33 31 31 30 32 31 32 32 31 33 33 34 30
64 76 78 83 88 96 66 80 56 42 36 34 32 30 40 44 43 45 50 52 68 83 85 78 70 63 56 54 50 49 57 34 34 33 33 30 31 30 29 30 31 31 32 33 34 35 36 33 32
73 100 96 97 98 84 58 80 58 39 35 36 33 33 31 41 50 56 62 72 81 87 85 75 68 65 56 52 47 40 36 30 30 30 32 31 28 28 29 28 28 30 34 35 35 34 34 34 33
86 88 93 93 81 71 62 78 50 41 34 30 30 31 36 46 52 59 64 73 77 86 81 70 67 63 54 49 41 35 32 34 33 31 30 26 26 26 27 28 28 29 30 31 32 35 35 35 36
97 98 73 90 80 95 70 55 43 40 43 40 39 42 42 37 44 60 71 75 80 84 77 70 65 59 52 46 39 38 36 36 34 30 28 28 26 25 27 28 29 30 31 32 32 31 32 34 36
87 72 96 99 96 88 72 71 53 43 32 25 31 51 49 41 47 62 73 78 80 80 74 66 58 54 47 42 38 36 33 30 29 27 27 26 25 26 29 30 30 31 31 32 33 33 34 34 35
91 96 99 89 88 83 66 48 36 32 29 32 55 58 62 56 48 66 79 81 80 72 66 58 51 46 41 37 34 31 29 27 24 24 25 25 26 28 29 30 30 31 31 32 31 32 34 37 40
64 72 76 96 82 91 87 63 32 36 42 54 45 66 78 76 75 84 79 73 70 65 57 52 44 39 36 32 29 28 27 25 24 24 25 25 28 29 30 30 31 31 33 32 31 33 38 41 44

GFSSGP_sfc_rhum_036.txt.gz
RH
44 30 24 23 27 25 25 18 20 22 21 19 17 19 20 19 24 27 44 43 43 46 49 63 85 82 76 73 70 69 68 66 63 62 65 73 68 63 63 60 56 55 56 60 67 73 73 71 69
35 26 24 23 26 27 20 17 20 21 19 18 18 20 21 22 26 35 38 45 43 46 49 52 86 83 76 73 71 70 69 66 61 61 63 69 60 62 60 56 58 61 60 60 62 66 67 66 64
35 24 25 26 25 26 23 20 18 21 18 18 20 22 21 26 32 30 36 44 44 47 46 52 86 83 78 75 73 70 68 63 62 66 71 65 60 59 56 58 63 64 62 62 61 61 60 62 63
31 26 24 28 27 24 23 18 22 21 18 18 19 23 24 28 30 32 38 45 44 44 47 76 87 84 82 79 74 70 67 62 61 67 67 62 59 59 61 61 68 66 64 63 62 63 62 62 63
30 27 28 32 26 21 21 20 20 22 20 17 16 21 23 29 33 36 42 44 42 44 46 56 87 86 84 79 75 72 68 64 61 62 62 61 60 62 63 66 69 68 65 64 62 63 64 63 63
35 28 30 30 24 23 22 19 20 20 18 18 17 18 20 29 35 43 45 44 43 47 50 53 83 86 86 82 79 75 70 66 63 63 64 60 59 63 69 68 70 71 66 65 67 68 67 66 65
34 32 28 26 24 25 22 19 21 19 18 18 18 20 20 26 36 45 44 43 48 47 51 50 54 72 90 86 84 81 76 75 72 69 68 68 73 68 77 74 73 72 68 68 71 70 69 67 69
36 32 29 33 26 28 21 23 20 21 18 16 19 18 20 28 40 44 45 46 47 50 49 50 51 55 60 67 88 85 84 83 79 76 76 79 78 75 81 81 77 73 70 71 73 71 72 76 80
47 38 35 32 31 27 28 26 20 23 24 23 20 21 26 30 41 46 49 50 49 51 50 50 48 52 51 54 72 85 88 86 85 76 84 80 50 50 55 86 84 80 77 75 76 75 76 72 79
44 43 34 28 29 30 29 29 30 29 25 23 23 24 26 35 40 45 44 44 47 49 49 49 50 51 54 54 60 60 58 57 52 47 48 46 47 45 46 68 81 79 77 76 72 74 71 68 41
46 45 34 43 38 42 39 39 34 30 32 25 23 22 26 28 36 39 36 34 40 42 46 50 53 54 56 56 56 56 55 52 49 46 43 42 43 44 42 45 45 48 70 47 54 53 39 39 36
54 45 45 43 46 49 48 40 42 36 29 22 28 28 31 29 27 31 35 33 34 42 47 51 54 63 61 54 54 51 52 53 50 48 45 45 43 45 44 42 47 48 45 49 45 37 35 32 28
51 41 43 41 47 42 39 42 39 36 32 31 32 33 32 29 28 25 26 30 31 37 41 46 54 61 61 61 53 50 50 54 50 48 47 46 48 48 46 46 46 48 42 38 37 33 29 26 23
49 52 48 46 44 42 46 40 36 34 28 28 28 29 28 28 26 26 25 24 24 28 32 36 46 52 53 58 54 51 50 52 52 48 50 50 53 59 52 48 45 41 37 33 30 28 25 20 16
51 58 44 41 40 43 40 45 41 31 28 28 26 25 26 24 24 26 25 25 22 20 21 23 34 44 51 55 55 52 51 53 54 51 52 60 67 65 54 50 46 40 32 26 26 23 20 19 16
51 50 50 42 44 42 44 40 28 27 29 33 29 25 24 24 23 21 24 24 24 24 23 23 26 35 43 48 53 50 50 52 53 54 62 65 65 57 52 46 38 32 29 25 22 22 23 21 19
52 49 52 48 39 44 46 45 37 37 33 35 31 30 30 30 25 22 21 22 24 23 23 24 28 29 35 43 49 50 50 52 56 58 67 65 56 51 45 41 32 26 24 23 20 24 22 20 20
43 50 45 46 39 42 43 43 37 34 33 34 32 30 29 30 29 27 26 24 22 23 23 24 26 31 37 44 50 52 53 65 60 58 58 54 48 41 42 33 27 23 24 23 22 22 22 22 21
51 52 52 44 40 43 44 42 36 32 31 31 29 28 26 26 24 25 26 26 27 26 26 26 30 36 43 50 55 59 64 74 64 56 48 46 40 36 35 33 24 24 24 22 20 21 24 25 24
56 58 55 44 39 42 41 39 31 28 28 26 25 22 20 19 19 20 24 25 27 27 27 29 34 40 48 52 53 54 62 75 69 53 42 38 38 34 29 30 26 25 24 24 23 24 25 25 26
61 60 53 52 43 40 41 40 27 20 19 21 22 22 21 20 18 17 18 24 26 28 30 34 39 49 52 52 54 58 55 54 52 43 41 36 32 34 30 29 25 26 26 28 27 27 25 26 28
60 44 52 52 58 60 49 49 32 25 23 21 19 19 21 22 21 21 20 21 23 28 36 39 46 53 55 58 56 56 59 67 62 46 45 47 43 42 28 26 24 25 24 27 26 23 26 25 28
59 50 52 54 59 62 57 84 35 29 30 25 21 19 18 20 21 21 24 24 24 32 42 48 50 55 56 55 53 55 57 52 49 44 37 38 33 29 24 23 24 24 24 25 25 27 26 25 21
53 60 61 59 73 91 50 65 39 24 22 22 19 18 17 18 20 22 23 25 27 34 51 54 55 56 55 55 53 56 59 55 46 34 40 42 36 26 23 23 24 24 25 27 28 29 29 26 25
63 89 81 87 94 69 33 40 41 23 24 23 20 18 19 18 19 22 29 32 36 39 56 58 55 56 54 54 53 54 53 54 43 33 36 27 28 25 24 23 22 24 28 29 28 28 29 28 26
78 76 75 73 44 39 42 53 29 21 21 20 20 21 22 21 22 23 28 36 39 45 54 57 55 55 53 52 51 49 47 35 33 33 31 28 25 23 22 22 21 22 24 25 26 27 28 28 28
82 97 59 82 66 76 46 29 23 20 22 22 22 21 26 27 24 27 25 33 40 47 54 55 54 53 52 50 42 36 33 33 34 32 33 27 22 20 21 22 22 23 24 24 25 22 24 25 27
66 52 88 95 81 64 38 34 32 25 24 22 21 24 28 30 28 30 29 32 40 46 54 54 51 51 48 43 37 34 34 35 33 32 28 24 19 20 22 22 22 23 24 24 24 24 25 25 25
82 93 94 63 61 71 49 32 20 22 20 20 19 27 29 36 37 39 34 37 47 52 58 55 51 49 45 40 36 32 31 31 34 26 24 20 20 20 21 21 22 22 23 23 22 22 24 26 30
43 54 59 89 71 79 73 57 26 22 20 28 28 25 30 41 50 52 47 50 58 61 58 54 48 44 41 37 32 30 28 26 23 22 20 18 20 20 20 20 21 22 23 22 20 22 26 30 33

GFSSGP_sfc_rhum_039.txt.gz
RH
48 23 20 22 27 24 24 19 12 18 16 13 15 17 18 18 21 30 36 36 32 40 47 63 84 81 76 74 71 68 67 66 66 67 74 71 70 66 64 59 57 56 59 65 71 73 73 73 69
33 21 22 22 28 27 21 14 15 14 16 16 15 16 18 20 19 34 37 36 32 38 46 61 86 82 77 72 70 70 68 64 62 61 70 67 63 63 59 59 63 61 60 61 65 66 66 64 62
34 21 25 26 26 25 20 16 13 16 15 16 16 17 18 22 24 26 30 35 34 38 44 63 86 82 77 73 72 70 69 63 62 63 68 63 60 56 59 64 66 62 62 62 61 61 62 64 64
28 24 21 29 27 19 16 16 13 16 15 16 17 19 18 22 24 26 32 32 34 36 39 81 86 83 81 77 73 69 65 62 65 72 69 63 60 60 60 66 67 64 64 62 63 63 62 63 63
29 24 29 27 23 16 15 14 15 17 16 16 16 18 21 25 26 31 34 32 34 36 42 62 87 85 83 78 74 71 66 62 63 68 66 60 60 62 64 67 70 66 65 64 65 66 66 65 64
31 24 29 28 22 16 13 15 16 16 15 15 16 17 20 26 28 33 34 32 31 36 41 56 85 87 85 80 77 73 68 64 64 64 63 61 63 64 66 70 72 68 67 66 67 68 67 65 65
36 31 29 24 20 16 15 15 17 16 15 15 13 18 17 21 32 33 33 31 33 36 40 49 60 75 89 86 83 80 73 73 70 70 68 70 72 66 70 73 73 71 68 67 71 70 69 68 70
32 30 30 24 20 20 14 15 16 16 16 13 15 17 18 26 33 33 32 35 36 38 39 41 48 59 65 68 88 86 83 80 78 77 77 82 76 75 83 82 77 73 70 70 73 72 75 77 77
36 40 35 28 21 20 16 19 17 16 18 17 15 15 23 24 34 36 38 40 39 40 39 39 39 50 53 60 72 85 87 85 82 76 83 81 51 49 63 84 84 77 76 75 74 73 71 69 77
43 40 29 17 16 19 18 21 19 20 21 18 18 17 22 26 33 37 38 39 40 42 39 38 39 42 42 50 71 62 61 61 56 49 53 50 43 45 51 76 87 80 76 76 70 69 69 75 48
39 42 23 21 28 28 26 23 23 25 27 17 17 18 20 24 28 33 33 31 35 36 39 40 42 41 42 44 67 61 63 54 47 44 41 42 42 48 47 54 57 58 74 55 60 61 43 41 39
42 33 29 28 31 38 39 29 28 26 25 17 18 22 24 24 22 26 28 28 27 33 38 41 41 45 44 44 45 53 50 48 45 44 38 40 41 41 40 42 46 48 45 48 52 40 38 35 31
42 36 29 31 34 36 36 36 33 31 26 22 22 23 26 25 23 22 21 24 25 29 35 39 41 47 50 48 46 43 43 45 48 45 40 39 40 42 42 43 43 46 46 42 42 38 33 31 28
36 37 34 34 34 34 39 35 31 27 23 22 23 24 23 25 23 22 22 22 25 25 30 33 40 44 49 50 47 44 42 44 54 45 45 42 43 45 46 46 47 44 41 38 36 33 31 26 19
43 49 40 36 34 36 34 40 37 27 24 24 22 20 20 20 20 21 21 22 21 21 24 27 34 39 44 49 48 44 44 45 58 46 44 45 49 51 51 46 47 41 35 31 31 28 23 23 20
46 43 48 29 33 31 35 43 22 20 23 24 22 20 20 19 17 17 18 20 21 21 19 20 22 31 38 41 46 44 43 45 65 50 47 48 55 56 50 51 46 39 35 32 28 24 25 25 22
43 45 39 33 30 33 39 42 24 29 28 24 23 22 21 20 18 16 16 17 20 21 21 22 24 25 30 36 40 43 42 49 60 55 50 55 58 53 52 48 41 35 32 28 24 26 23 23 25
40 40 36 36 30 35 38 36 28 24 26 28 27 25 24 22 22 21 19 16 16 19 21 22 23 26 25 29 35 42 43 58 61 61 56 59 55 50 47 40 36 31 30 27 26 25 25 24 24
34 41 38 31 29 36 36 33 28 24 24 26 25 25 23 22 20 20 21 21 20 19 21 22 23 24 27 33 40 46 50 83 85 76 61 57 49 44 40 36 34 28 28 27 23 25 27 30 26
46 47 43 35 31 35 35 34 27 24 23 22 21 22 22 20 18 18 19 21 22 22 23 23 23 25 29 35 42 46 70 87 85 71 60 54 47 40 36 35 32 28 29 26 26 27 31 30 30
50 49 43 42 35 32 34 35 25 19 19 19 19 19 18 18 17 15 15 17 22 23 24 25 25 28 34 39 44 52 66 66 64 62 67 56 47 37 37 35 31 34 32 36 35 34 33 35 34
54 36 39 43 50 50 39 48 30 21 19 18 17 17 17 18 17 17 16 15 16 22 30 30 29 32 40 46 51 59 67 68 66 69 65 56 42 37 31 29 30 32 30 33 33 27 31 29 35
48 45 47 48 54 58 50 61 35 19 22 22 19 18 16 16 16 16 17 20 20 22 33 35 33 36 45 50 52 60 58 59 56 59 54 50 46 42 36 32 31 28 29 28 28 31 28 28 23
47 50 56 57 66 87 45 44 33 20 14 14 15 16 16 15 15 16 17 18 21 27 34 42 39 43 48 54 54 56 58 57 55 54 53 54 47 41 30 27 28 27 29 31 32 32 32 28 26
53 74 79 86 90 67 26 32 30 20 18 17 18 16 16 15 16 16 16 19 23 29 33 42 45 48 52 55 52 52 58 54 55 50 56 53 40 39 36 29 26 28 32 31 31 31 32 29 29
60 67 72 66 38 35 28 42 26 16 15 16 17 17 16 18 16 21 22 22 28 31 33 41 46 49 50 52 52 52 54 52 55 49 45 34 37 33 28 27 24 25 25 27 28 31 30 30 31
65 89 53 72 55 64 38 25 20 18 17 16 16 17 20 17 20 22 22 24 22 31 34 44 48 48 50 52 52 54 50 50 48 44 32 31 28 26 25 25 24 24 24 24 25 24 25 26 28
55 46 81 93 85 63 33 28 26 21 19 17 17 17 18 22 22 25 27 30 22 29 36 43 44 48 49 51 50 50 42 41 36 32 33 34 26 24 25 24 23 24 23 24 24 25 25 25 26
68 78 68 54 60 65 50 34 22 28 27 23 18 16 20 22 27 30 34 35 27 30 41 44 46 49 50 47 41 39 36 34 31 34 32 29 29 24 24 22 22 22 22 22 22 22 23 26 28
42 57 58 87 60 63 78 60 28 29 26 26 26 24 21 22 24 38 43 40 36 41 48 49 49 48 47 40 37 37 33 32 31 29 28 30 25 24 21 21 20 20 21 20 20 21 23 27 30

GFSSGP_sfc_rhum_042.txt.gz
RH
60 36 29 42 54 47 42 31 23 25 24 17 20 22 24 24 38 66 53 44 54 66 72 78 84 82 77 75 73 72 71 71 72 75 73 70 69 66 61 58 58 62 66 72 72 74 76 73 69
53 36 38 46 52 48 36 23 21 21 21 20 19 21 22 31 39 46 53 42 49 58 68 77 85 82 77 74 70 69 68 66 65 68 75 72 67 63 60 65 62 61 62 66 68 68 67 65 63
51 34 47 50 46 44 34 22 20 18 19 22 22 18 22 36 33 43 46 41 46 58 62 78 85 82 77 72 72 72 68 64 64 67 69 65 64 59 65 64 62 62 63 62 63 64 64 64 63
41 42 36 42 40 31 27 21 18 20 20 22 21 25 27 32 36 42 42 40 46 54 71 87 85 83 80 78 73 72 66 64 68 72 69 62 59 62 67 67 64 65 63 63 63 63 64 66 66
41 46 47 42 35 28 21 18 19 25 21 22 23 25 38 38 38 40 42 40 46 71 81 83 86 84 82 76 74 71 66 66 72 72 65 64 62 64 68 71 66 66 66 66 67 68 68 67 66
52 43 48 46 34 23 19 17 20 24 20 18 24 23 44 37 40 43 41 43 43 76 74 79 86 86 84 80 76 73 68 66 71 70 66 62 64 67 70 72 69 68 67 68 69 68 68 66 67
50 49 45 37 32 24 19 15 21 22 22 20 19 26 36 40 44 42 42 40 44 55 69 76 82 85 87 84 82 78 75 73 73 73 72 76 78 73 70 74 74 69 69 70 72 70 70 70 72
45 50 49 39 32 29 19 17 19 21 22 18 20 26 42 50 43 42 42 43 45 52 64 71 76 82 84 87 88 84 81 80 77 79 83 82 76 73 82 83 80 72 71 74 74 74 76 76 75
40 59 54 45 35 28 17 25 21 21 23 20 22 23 32 38 42 47 51 53 52 51 54 60 72 76 76 80 87 88 86 83 82 82 85 86 78 72 77 83 84 81 76 76 75 74 74 77 79
56 67 54 32 26 27 20 25 24 26 24 25 23 23 30 33 48 52 53 56 56 56 54 52 58 70 71 65 87 85 83 86 82 77 87 80 70 72 73 88 89 85 83 81 72 71 74 78 78
50 59 35 28 23 35 36 34 29 30 33 27 24 23 27 34 38 47 47 49 52 52 53 51 54 57 59 70 83 70 75 75 70 64 70 70 65 71 79 94 92 94 86 83 79 76 72 52 52
48 38 36 35 31 39 42 36 38 32 32 26 26 26 30 32 33 37 42 42 46 50 52 52 53 58 56 75 79 68 67 68 60 60 56 58 70 70 69 76 77 80 73 67 64 62 51 48 40
44 39 33 32 35 37 38 45 45 40 31 28 27 27 32 34 33 31 33 34 36 46 51 54 55 60 60 58 68 69 69 67 55 60 54 58 60 62 63 65 66 69 61 60 61 56 48 41 34
39 39 39 34 35 37 39 40 41 36 28 29 28 31 31 32 32 32 31 31 33 36 48 51 53 59 62 64 62 60 57 59 65 59 61 55 61 63 66 66 65 61 63 58 52 47 42 36 30
43 56 48 44 40 43 39 47 45 34 31 31 29 27 26 27 28 30 29 31 30 32 40 45 50 55 63 67 66 61 60 55 78 56 58 59 64 67 71 70 68 58 53 45 44 37 34 36 32
57 57 72 41 40 37 41 56 36 29 32 33 31 28 26 26 24 22 23 26 28 30 32 39 40 49 56 60 62 60 60 58 71 61 60 60 68 70 68 68 64 54 52 48 42 40 41 38 36
54 66 57 45 37 37 44 55 37 33 37 36 33 28 26 26 24 23 22 21 24 30 30 33 41 47 52 53 57 58 58 61 64 68 56 59 72 68 70 71 64 55 50 44 38 39 38 38 39
58 59 52 48 41 43 47 47 37 31 30 32 36 35 34 30 28 25 23 21 23 25 28 32 37 35 39 53 55 57 63 61 64 64 63 70 74 67 69 61 54 49 46 41 44 38 38 39 39
46 47 48 41 32 40 44 40 35 31 30 30 30 30 30 29 28 27 27 29 29 26 28 29 36 34 32 45 56 61 63 82 77 81 69 77 67 66 58 55 49 46 44 42 35 40 41 45 42
47 53 55 44 35 38 42 42 35 30 28 27 27 28 28 28 27 24 26 30 30 30 30 30 34 37 34 35 51 62 95 92 92 90 82 74 76 67 54 50 44 41 40 36 36 40 44 45 43
57 60 57 51 42 40 43 46 38 28 27 25 24 23 23 24 24 24 23 24 30 28 30 31 33 36 39 46 67 82 80 81 82 82 83 72 70 68 50 46 40 39 46 49 44 42 40 50 46
64 45 44 47 58 72 50 77 44 32 29 25 26 27 26 25 23 21 21 22 24 24 28 31 35 37 44 51 65 79 84 91 90 85 82 73 69 64 52 55 56 42 43 41 43 41 42 44 48
53 49 52 55 65 72 64 80 54 32 30 26 26 26 25 25 25 25 25 23 25 27 40 35 34 42 47 47 62 80 83 82 82 70 62 69 66 56 45 43 40 37 43 36 39 41 39 40 42
48 54 61 65 76 95 67 66 64 33 28 23 23 26 22 22 25 24 24 26 30 34 37 48 50 48 60 65 72 76 76 76 77 67 69 69 62 58 43 37 42 39 42 43 45 44 40 40 39
53 70 97 98 95 92 38 58 46 25 22 22 23 26 24 24 24 27 26 28 32 32 42 43 57 55 68 74 79 71 72 69 73 68 70 57 55 50 46 40 37 43 45 44 45 46 42 40 44
61 72 96 89 83 76 45 60 40 25 21 22 22 23 23 24 25 28 34 33 37 38 42 43 61 64 73 75 74 70 63 66 65 61 58 56 47 49 43 41 40 37 39 40 43 47 46 42 46
70 89 66 83 73 91 59 35 26 21 21 21 24 23 26 26 26 33 34 37 42 41 45 45 64 66 75 74 72 70 63 62 60 60 56 56 49 37 38 41 34 34 35 36 37 41 39 36 41
57 52 87 96 98 88 55 47 38 35 38 34 30 27 25 28 31 33 43 47 47 43 46 48 62 68 72 71 69 64 64 60 55 51 47 36 31 29 32 31 30 32 33 32 35 36 33 33 40
71 76 69 68 78 94 83 55 40 40 44 40 36 29 30 31 33 36 51 51 54 47 51 58 66 64 70 70 61 52 45 44 43 39 33 29 33 29 28 28 29 32 31 30 31 30 31 33 37
55 64 67 85 79 81 94 70 33 37 36 38 38 32 32 30 32 37 57 58 59 53 61 64 60 60 54 50 46 48 41 35 35 36 34 30 31 34 27 30 26 28 29 26 26 27 28 34 39

GFSSGP_sfc_rhum_045.txt.gz
RH
69 60 54 46 54 61 60 47 39 24 24 29 26 24 29 34 40 62 63 70 78 85 80 80 84 82 80 77 78 78 78 79 78 75 71 70 68 63 59 58 65 70 72 71 75 74 74 70 67
74 55 49 54 63 67 57 38 35 22 27 25 22 24 26 55 52 59 66 74 73 80 80 82 85 83 78 76 73 72 71 72 76 75 72 72 66 62 64 61 61 66 70 71 71 70 67 66 65
68 56 54 60 64 64 55 33 25 24 22 24 25 26 31 48 53 58 59 69 73 81 81 82 85 82 78 74 72 71 69 68 69 79 73 70 64 65 62 61 62 63 65 68 68 68 67 65 64
61 54 50 56 58 46 38 32 24 26 23 22 27 30 42 47 48 52 52 65 75 78 85 87 85 82 79 79 75 70 66 66 68 74 71 65 63 67 62 63 64 64 64 63 64 64 66 66 67
60 64 66 65 50 40 35 29 23 26 25 27 28 32 51 50 52 50 51 62 70 83 86 85 85 82 82 79 76 71 67 69 73 70 65 62 65 70 69 66 68 68 68 67 68 68 68 68 68
65 60 74 68 55 37 29 26 23 26 26 25 27 30 55 49 54 50 50 72 77 86 82 82 86 84 83 80 77 74 72 76 79 75 69 65 67 71 73 69 68 68 68 70 71 70 69 69 70
65 67 68 59 51 41 31 24 25 24 27 26 24 30 66 66 55 50 49 81 82 82 84 85 85 85 85 82 80 76 75 79 78 75 72 72 75 75 74 74 70 69 70 73 71 72 71 72 74
58 66 70 60 47 43 29 23 22 25 25 23 25 30 71 59 51 50 52 78 81 84 84 94 93 88 87 86 86 81 79 81 81 81 84 84 81 81 80 83 78 72 72 76 74 74 75 76 75
51 75 78 63 53 44 28 29 23 25 25 26 26 36 41 48 50 56 62 62 76 83 86 89 95 95 94 94 87 87 86 83 84 87 87 86 81 76 85 86 86 81 77 77 75 77 76 80 81
64 78 70 48 42 40 34 41 31 28 29 32 28 39 37 49 55 56 64 64 67 81 82 82 89 88 88 77 92 95 87 92 91 91 92 89 86 88 84 88 88 85 85 83 75 73 76 78 82
60 81 56 50 39 42 45 41 39 36 42 29 28 30 42 46 54 58 61 62 64 63 68 77 83 83 83 80 92 91 93 94 90 88 91 89 76 92 95 98 96 97 92 91 84 84 80 76 71
65 52 48 45 40 42 50 46 49 49 39 35 33 32 34 42 47 56 58 59 62 60 58 63 76 80 78 83 86 84 86 86 84 78 79 85 84 89 97 98 98 97 91 90 88 87 60 49 40
58 51 42 41 42 40 40 50 52 49 41 35 34 34 36 35 37 39 43 46 56 58 56 58 67 68 71 86 82 78 79 79 74 71 68 73 76 77 81 87 89 92 84 80 74 62 50 40 30
45 48 50 45 46 44 44 46 48 46 38 36 33 32 37 36 36 37 38 36 43 53 55 55 58 61 74 82 81 78 74 74 73 66 61 64 66 69 72 78 81 78 69 68 58 49 43 34 31
52 63 57 54 50 50 42 54 53 42 42 41 39 36 31 32 32 36 36 37 35 38 53 55 57 61 66 74 75 73 70 67 81 61 56 59 62 67 76 74 72 64 60 46 41 36 37 39 34
63 68 86 57 47 46 48 62 46 40 44 42 39 36 37 32 31 29 30 31 35 36 52 54 48 60 64 65 68 76 66 62 84 58 57 62 68 72 79 74 68 57 56 51 44 42 43 41 39
74 86 79 66 43 47 52 64 42 39 38 43 41 37 34 31 30 31 30 25 24 34 36 52 53 57 63 64 66 69 75 63 68 65 62 70 76 71 68 68 64 58 52 46 40 41 41 40 39
79 81 72 63 47 48 54 58 48 41 40 40 40 44 42 36 30 25 26 29 27 24 35 38 52 54 60 65 63 66 78 66 68 61 58 74 74 70 73 72 64 56 48 48 41 38 44 42 41
66 64 63 51 41 47 50 53 47 40 41 37 35 40 34 33 32 34 33 32 31 31 34 38 45 58 58 67 72 69 73 76 73 70 60 78 74 68 70 67 55 49 42 44 38 44 41 44 46
70 64 66 53 42 46 47 45 38 36 34 33 32 36 34 30 34 33 32 34 36 34 36 35 44 42 48 54 62 80 92 96 92 86 76 77 75 72 65 56 51 46 47 41 39 40 49 47 45
68 78 71 66 52 50 54 54 46 39 35 31 29 28 28 31 32 32 33 32 33 37 38 36 37 45 42 45 82 92 94 96 96 93 86 82 74 71 67 54 47 44 44 44 44 45 44 51 46
75 54 56 57 68 80 61 89 68 42 34 32 36 34 29 29 29 30 29 31 31 31 38 38 38 41 46 62 71 85 88 93 97 95 90 85 77 77 73 65 66 58 54 47 45 42 46 48 48
64 55 58 63 77 83 80 86 70 52 37 32 30 32 34 31 28 27 27 25 26 28 31 40 39 42 48 49 60 72 88 96 96 93 84 85 81 67 60 56 58 47 56 51 44 40 40 43 44
52 59 65 73 83 97 78 76 64 44 32 32 29 28 27 28 27 28 29 31 32 34 36 44 46 46 49 53 74 73 93 94 90 88 88 86 82 73 55 50 55 60 58 60 48 42 37 39 38
63 76 96 92 96 94 61 77 65 38 30 26 26 25 27 25 27 26 28 32 39 40 37 42 47 51 59 70 83 85 86 87 86 85 87 79 72 70 52 48 50 54 51 54 51 46 42 43 43
71 75 94 94 93 86 59 80 51 33 28 28 25 26 26 26 28 27 34 40 47 48 48 46 46 55 74 90 85 80 81 88 86 84 82 78 66 62 50 47 48 46 50 54 51 49 49 45 48
77 89 68 84 87 96 75 50 35 30 40 36 32 31 34 29 29 33 48 53 55 55 54 54 51 68 89 87 82 77 83 85 84 83 78 72 57 52 38 42 46 46 46 44 41 38 39 40 45
63 62 88 94 97 95 78 63 44 42 43 41 42 40 36 34 38 44 55 54 55 58 62 60 56 73 91 89 77 73 81 79 75 71 66 55 43 36 40 45 44 47 42 38 37 42 38 35 42
77 84 69 76 90 97 96 72 42 44 48 44 45 43 41 33 31 38 60 61 61 62 65 60 66 85 92 79 76 76 75 69 64 62 51 40 34 35 37 36 37 36 34 34 35 38 34 34 37
66 72 70 94 81 92 94 76 37 40 44 40 43 46 46 42 40 59 64 64 64 67 69 71 85 89 72 64 61 58 58 54 50 48 38 32 33 33 32 31 31 30 30 31 32 27 30 36 39

GFSSGP_sfc_rhum_048.txt.gz
RH
72 66 63 48 53 64 68 56 49 35 26 28 27 25 33 43 44 52 75 83 88 90 84 81 83 83 83 82 83 83 82 82 78 75 71 69 66 62 60 66 69 75 69 68 69 70 71 72 70
78 57 51 60 67 71 60 51 37 32 26 26 25 26 34 61 60 84 89 83 82 84 83 83 85 84 81 81 81 80 81 80 78 73 69 69 65 62 59 64 69 69 70 73 72 71 69 67 66
66 59 54 60 73 70 59 43 34 25 26 25 29 26 40 54 62 72 85 79 81 85 84 84 86 83 79 78 77 75 75 78 77 76 74 70 66 66 62 62 67 71 72 72 72 70 68 66 66
62 59 58 65 70 54 48 39 36 28 23 26 30 32 52 56 60 66 78 78 87 91 89 88 86 83 81 78 76 72 70 70 77 78 74 68 67 61 61 63 65 66 68 68 67 67 66 66 67
65 66 72 72 60 51 43 36 33 30 25 28 30 36 63 60 61 77 80 80 89 95 92 88 86 82 80 78 75 73 70 68 79 74 71 65 67 63 64 65 65 65 65 65 65 66 67 68 68
71 68 85 66 58 45 38 32 34 28 25 26 28 47 66 62 62 77 77 81 82 92 88 86 86 83 83 80 77 75 74 77 77 74 67 66 70 69 66 68 69 69 69 70 70 69 69 70 70
74 73 80 74 62 52 38 33 31 27 27 26 24 47 72 72 58 62 76 78 86 86 87 88 85 85 86 83 80 77 78 80 80 77 73 73 77 75 71 69 69 69 72 72 70 71 71 72 73
60 70 80 65 56 50 38 29 25 28 26 25 25 65 73 58 55 72 90 92 93 88 88 92 90 88 88 88 84 82 84 85 81 80 80 83 85 84 79 80 76 70 74 75 73 73 73 74 73
57 80 87 68 56 47 39 38 28 26 29 29 32 48 53 53 58 71 97 97 94 90 93 95 96 96 96 94 86 85 86 88 86 87 88 87 90 89 88 88 84 80 77 77 75 76 76 82 80
66 85 74 55 51 52 41 46 40 32 31 33 46 44 56 57 63 68 92 98 92 92 94 96 97 96 96 80 93 94 86 93 95 92 92 91 88 84 82 90 89 84 84 83 76 76 79 80 86
68 83 58 56 51 48 47 48 46 47 38 36 41 51 48 63 65 64 72 86 95 94 93 92 96 94 92 84 95 95 98 98 96 94 95 94 87 96 96 97 96 97 94 96 90 89 87 87 87
73 58 54 55 48 49 52 50 56 50 41 44 46 42 36 43 52 66 63 68 75 89 88 87 90 90 91 84 92 91 93 93 94 94 94 97 94 98 99 98 98 98 98 95 94 93 70 53 45
68 60 50 47 50 47 43 49 53 52 45 42 41 37 36 39 46 49 60 64 64 70 80 84 87 88 88 91 90 90 89 87 84 86 85 87 91 97 97 98 98 98 96 93 93 82 54 41 30
55 52 51 51 51 51 49 50 49 50 42 41 40 40 38 36 37 43 42 43 57 64 63 75 84 84 84 89 90 87 85 85 84 79 76 78 80 87 91 95 95 97 92 85 79 60 45 35 33
57 61 62 56 55 55 50 52 57 44 42 45 43 44 40 36 34 35 36 39 40 51 57 63 78 77 80 86 87 82 81 78 85 76 72 71 74 78 79 84 90 87 81 67 52 41 40 39 34
64 70 80 56 53 48 50 59 51 45 52 49 47 42 42 38 34 33 32 34 37 42 48 58 58 69 75 83 85 84 82 75 88 73 69 65 66 70 82 82 81 72 58 50 45 44 44 41 38
77 86 82 68 52 53 59 70 47 37 43 49 46 46 43 41 40 37 33 30 29 34 41 65 59 65 72 81 80 85 84 73 82 76 65 62 63 73 79 78 71 62 58 52 45 47 41 40 40
86 85 80 70 53 55 62 67 53 47 48 47 47 43 42 41 37 34 34 32 28 29 36 54 65 64 74 80 83 87 92 76 76 77 63 69 71 78 77 74 62 56 54 49 43 40 45 42 40
59 76 73 57 46 50 52 55 48 43 47 46 40 41 40 38 33 38 37 36 35 34 35 43 62 64 71 85 89 91 91 88 85 70 61 78 76 74 72 69 63 54 46 46 38 42 39 44 47
83 72 75 58 50 51 53 51 41 37 37 36 34 32 32 35 34 36 37 38 38 36 37 36 48 55 64 69 76 84 89 94 89 89 73 75 76 76 72 66 58 48 49 44 42 44 50 48 46
70 78 76 69 57 55 59 44 42 40 38 34 30 31 31 32 31 30 37 37 37 39 39 39 40 52 63 62 86 98 98 98 99 97 95 83 81 86 83 65 55 50 53 48 45 46 45 49 46
76 59 58 62 68 81 64 76 70 50 44 38 36 40 38 35 34 32 33 36 35 34 36 39 42 44 53 63 86 80 80 93 96 90 96 96 87 89 80 69 63 66 61 50 50 46 52 49 46
66 57 60 68 81 84 81 85 64 53 44 34 32 29 33 38 37 35 35 33 32 33 36 38 41 46 48 60 68 83 81 84 98 98 96 96 95 90 79 72 73 68 61 51 58 64 52 46 46
55 60 72 81 86 95 80 82 66 47 39 36 30 28 26 29 34 33 33 33 34 36 39 40 41 42 50 58 70 76 94 97 98 98 97 95 93 92 83 72 72 71 72 65 63 50 49 46 42
63 78 96 94 97 88 71 87 70 49 39 36 34 33 31 31 30 28 31 34 40 45 45 43 44 44 48 60 74 74 92 93 94 94 94 93 87 83 81 74 71 72 66 60 51 47 50 49 44
76 76 91 84 96 90 67 80 52 45 38 32 31 38 38 37 34 30 34 43 50 55 54 52 52 51 51 60 88 90 88 90 92 90 90 87 83 82 78 64 64 63 49 49 50 53 54 47 47
78 88 71 88 88 97 79 61 35 42 45 43 44 44 46 43 40 39 46 54 54 55 53 56 58 58 60 72 95 96 94 94 93 94 88 86 84 70 62 59 54 50 48 50 52 52 48 42 45
64 65 91 95 89 90 76 74 49 39 46 49 49 48 48 47 43 42 47 57 56 57 59 66 65 62 64 93 95 93 95 94 92 90 91 81 76 54 54 50 46 45 46 45 46 47 42 39 44
80 88 80 81 85 95 96 66 49 45 50 56 53 53 56 60 52 46 43 60 65 65 66 71 73 70 96 93 92 94 94 93 91 90 83 70 53 46 47 42 42 41 40 41 40 38 35 36 39
70 75 74 92 79 95 95 79 44 50 48 46 38 54 64 63 61 50 57 64 68 69 74 87 86 94 94 88 89 90 88 86 86 78 68 52 52 48 42 36 35 35 37 33 36 36 39 38 40

GFSSGP_sfc_rhum_051.txt.gz
RH
74 68 64 49 54 67 72 56 62 42 35 31 30 29 34 46 41 47 82 91 90 94 87 85 85 84 83 82 83 86 84 82 77 71 69 67 64 64 65 67 64 69 66 61 71 76 72 70 71
80 58 51 62 64 70 60 56 43 36 31 28 31 34 51 62 68 93 94 92 87 89 88 87 85 84 84 83 83 82 80 78 77 74 72 67 63 60 64 69 69 72 70 71 75 71 70 68 65
67 57 54 62 78 69 54 46 38 31 29 32 31 34 42 55 69 88 87 88 86 89 87 85 84 85 84 83 82 82 81 79 77 74 71 67 66 61 60 67 70 74 71 74 71 70 68 67 65
64 64 59 70 71 58 49 42 42 34 28 28 32 50 61 60 68 72 88 85 90 94 93 88 85 85 85 84 81 80 80 80 77 76 74 69 68 63 61 65 71 74 73 72 71 69 67 66 67
68 69 79 81 67 58 54 40 39 36 35 29 29 43 69 64 74 90 90 86 94 97 95 90 87 84 81 79 77 76 74 76 78 78 73 69 64 61 63 66 67 68 68 68 67 66 66 68 68
78 71 86 73 60 49 47 40 38 35 32 27 33 62 67 75 94 92 88 93 90 96 93 90 88 85 82 78 76 76 76 76 82 78 72 68 66 64 65 66 66 65 65 65 66 67 67 68 69
78 80 85 73 48 50 43 38 39 35 33 28 29 65 72 76 90 90 93 94 92 93 94 94 90 87 86 84 80 78 78 80 82 78 73 75 76 70 67 69 70 70 70 70 70 69 69 71 71
67 71 79 71 58 49 41 32 30 32 29 27 37 64 78 67 76 89 90 97 97 96 95 97 95 94 95 93 85 83 82 85 82 80 80 84 86 82 74 77 75 71 73 72 72 72 72 72 74
64 83 90 63 58 51 44 44 37 34 30 30 34 60 55 62 90 95 97 94 92 92 96 96 97 97 96 94 89 87 89 90 88 87 87 88 94 92 87 87 83 79 77 76 75 74 75 82 79
70 88 76 58 52 56 45 51 46 40 38 33 47 56 66 67 94 96 90 89 91 92 94 93 97 97 97 84 93 94 92 96 95 94 92 96 94 95 89 92 88 84 84 84 77 78 81 83 88
72 81 60 58 52 56 55 50 52 53 45 41 42 45 49 74 83 95 96 87 85 82 89 85 88 96 95 88 97 98 98 98 98 94 95 95 90 92 97 98 96 97 94 97 92 92 91 89 89
77 62 60 54 51 54 57 50 57 54 47 47 51 44 38 52 62 75 94 97 87 84 85 82 86 96 95 89 94 93 94 97 98 97 95 97 98 97 100 99 98 98 98 97 96 97 82 63 48
72 65 55 51 52 55 51 53 56 56 46 49 42 40 40 39 42 59 72 81 94 94 94 91 91 95 94 92 93 92 91 91 90 96 96 96 97 98 99 99 99 98 98 97 96 91 62 44 32
62 57 55 52 52 55 53 54 54 53 48 45 44 42 42 40 38 43 48 63 79 89 92 91 94 93 92 90 94 92 89 87 88 89 91 94 92 97 98 99 99 98 98 96 95 81 52 38 35
60 66 66 59 56 56 54 56 64 48 44 46 42 47 46 42 38 38 38 42 48 65 73 87 90 89 91 90 93 92 92 85 89 84 88 87 88 95 96 98 99 98 97 90 78 51 42 41 35
68 72 82 58 53 52 50 59 52 49 53 52 51 46 48 45 42 38 36 36 40 43 58 71 77 86 89 89 94 94 92 85 92 83 80 79 80 88 94 93 96 94 88 75 57 48 46 42 39
78 91 84 65 52 54 60 73 51 43 48 50 48 44 48 44 43 44 36 36 36 42 41 62 71 84 88 90 92 91 93 86 89 85 79 76 75 82 85 87 90 82 70 60 48 50 44 42 40
90 84 83 74 57 62 67 72 55 53 54 55 54 50 50 46 40 38 41 39 35 37 40 42 69 70 83 89 93 95 96 92 88 88 77 78 72 77 81 86 79 68 62 56 49 45 46 43 40
71 78 79 66 52 54 56 58 47 42 47 49 48 45 43 41 35 38 39 39 39 39 40 42 59 76 78 92 98 98 98 96 91 88 83 79 76 80 82 81 70 62 54 48 44 44 40 44 46
75 77 76 64 55 57 58 58 45 40 39 38 36 34 33 33 38 38 38 41 41 38 39 41 46 70 77 79 83 88 92 94 89 91 85 81 82 83 82 77 66 56 57 48 43 44 48 47 50
88 81 77 72 60 60 64 55 48 39 41 38 37 36 35 34 32 30 37 37 39 42 40 39 42 50 73 76 85 98 97 99 99 99 94 86 86 89 84 80 67 54 52 57 46 51 45 48 48
78 60 62 65 70 81 66 77 62 47 48 44 41 39 38 39 37 37 36 39 40 38 39 40 40 45 55 78 93 89 90 92 94 89 90 94 90 92 91 84 74 72 74 77 76 70 70 53 46
69 59 64 70 82 83 81 86 58 50 40 36 33 33 33 32 37 38 38 37 37 38 40 41 40 43 48 67 84 90 87 92 95 92 93 97 98 94 94 88 86 80 80 79 71 74 67 51 44
59 62 72 85 83 92 80 79 57 46 44 36 40 38 39 36 36 33 33 36 38 39 38 38 37 37 46 59 79 90 88 96 99 100 98 99 98 97 92 88 84 82 80 75 75 75 65 55 56
65 77 93 88 94 84 77 85 63 49 44 43 42 43 47 48 45 42 35 35 42 40 44 44 45 42 46 56 71 86 89 95 94 97 97 98 97 96 92 84 86 85 82 76 66 61 52 52 52
79 74 89 75 91 90 72 82 50 50 43 37 43 49 52 52 54 51 43 50 57 58 55 54 52 52 52 53 64 84 91 95 94 95 96 94 90 90 90 86 84 84 74 62 55 55 52 47 49
81 88 72 88 89 95 79 61 34 47 50 53 51 51 55 60 60 60 50 49 54 57 57 57 58 58 57 59 70 88 94 95 96 95 96 97 94 89 86 82 79 67 55 48 47 46 48 46 58
69 66 87 94 74 81 70 76 51 45 52 51 52 53 56 68 70 68 59 50 54 62 65 66 67 68 67 70 84 93 97 96 96 97 97 95 88 80 82 75 67 53 47 45 45 47 46 48 60
81 90 84 84 82 90 91 57 53 48 54 55 53 48 65 62 69 69 64 58 59 70 71 70 80 81 78 87 95 98 99 98 97 97 94 88 78 77 74 66 52 47 44 43 43 44 45 46 46
72 76 77 89 82 96 96 79 52 60 50 50 43 47 53 66 74 72 71 63 70 74 73 86 92 95 95 95 97 98 98 97 97 95 88 76 74 68 58 47 42 41 41 37 37 40 48 52 52

GFSSGP_sfc_rhum_054.txt.gz
RH
75 68 61 49 52 66 72 54 65 45 41 34 34 34 34 40 43 49 86 94 94 93 92 86 86 85 85 85 85 86 83 80 76 73 71 68 67 65 66 66 63 65 64 67 76 74 71 72 69
79 59 53 63 62 67 58 62 46 43 34 31 31 42 56 65 78 96 96 92 89 92 91 92 87 86 85 84 84 84 81 78 73 71 69 66 63 64 66 72 70 68 62 76 76 73 71 68 61
67 53 56 64 77 66 52 45 45 37 35 35 32 37 48 60 76 91 89 94 90 94 92 90 87 85 85 85 85 82 80 77 76 75 74 66 63 62 66 70 76 74 72 70 72 71 70 68 63
68 64 61 72 72 64 42 46 42 39 34 31 36 44 61 71 75 85 95 92 96 97 95 90 85 86 88 87 86 82 80 79 77 74 71 69 67 61 65 70 75 77 76 74 72 70 69 68 65
68 70 80 83 72 63 58 47 45 42 38 34 32 37 63 74 86 97 96 91 95 98 96 93 85 87 86 85 84 83 83 81 78 76 73 71 65 62 64 71 74 75 73 71 70 68 68 68 70
82 71 86 75 67 56 52 46 43 40 38 32 35 65 68 89 96 98 93 96 88 94 97 92 87 87 86 83 82 81 80 82 80 79 73 70 63 64 65 67 68 68 68 67 66 66 66 69 70
83 85 84 73 53 51 45 43 42 40 40 33 38 62 67 83 97 97 97 97 95 96 97 97 95 92 88 84 82 81 80 81 83 82 77 75 72 68 66 66 66 66 66 68 68 68 69 71 72
77 75 82 74 58 51 41 35 35 33 33 32 36 49 57 77 98 98 98 99 98 98 97 98 97 95 95 94 86 84 83 85 86 83 82 85 82 78 73 78 76 71 72 72 71 71 72 74 75
68 85 89 64 58 48 44 47 42 39 36 33 34 63 57 86 96 98 97 94 89 94 95 99 98 97 97 95 90 87 86 89 86 86 88 90 94 90 84 86 82 80 76 73 73 74 76 81 81
73 91 78 56 49 48 51 53 53 47 46 38 47 53 77 97 97 92 91 89 88 84 91 93 98 98 97 87 94 95 95 96 95 94 92 96 95 96 90 90 86 83 83 83 76 78 83 83 85
75 81 60 59 52 56 56 58 55 58 52 41 47 46 49 87 98 89 83 81 85 80 86 80 90 98 97 95 98 99 99 99 98 95 95 96 95 97 98 98 96 96 94 97 93 95 94 91 79
80 66 60 54 53 56 60 56 61 56 47 44 52 50 44 47 78 95 89 85 80 84 86 79 81 94 98 97 99 98 98 99 99 97 95 98 98 98 98 99 98 98 98 97 97 97 89 79 50
74 68 59 56 56 59 54 56 57 57 51 50 48 46 44 43 41 44 75 93 81 79 77 80 82 83 91 97 98 98 98 98 98 98 96 97 98 98 98 99 99 99 98 98 97 96 64 49 36
65 61 58 56 54 56 56 58 56 53 55 50 50 46 46 45 42 42 45 71 97 83 78 82 81 85 85 95 97 96 94 95 97 98 97 96 97 97 98 99 99 99 98 98 97 89 56 40 35
63 69 67 61 58 58 58 62 67 52 47 48 50 51 46 45 44 41 38 41 71 92 91 88 84 85 86 89 96 97 95 92 91 91 96 95 95 95 96 99 99 99 98 96 96 66 45 42 36
72 73 85 62 59 56 52 64 52 50 55 54 54 57 53 47 44 43 41 39 39 54 84 92 88 89 90 89 92 93 96 93 94 86 87 92 93 94 96 98 99 98 98 97 88 59 48 45 40
84 93 88 69 57 55 62 78 56 51 60 57 54 53 53 50 46 47 43 42 40 40 45 73 86 92 95 94 93 90 94 95 93 93 86 88 88 91 93 97 97 97 97 88 69 54 48 46 43
74 81 86 80 60 68 74 73 53 48 58 58 57 56 54 53 46 43 43 44 41 42 42 45 74 88 94 94 93 94 96 96 92 96 88 90 82 85 90 95 96 92 88 78 57 49 48 47 43
74 82 83 75 56 60 64 64 51 44 49 49 48 46 42 40 40 43 41 42 44 44 44 44 46 79 91 97 96 95 93 94 94 96 92 90 85 83 88 91 91 85 79 70 50 48 44 46 47
76 84 87 72 58 60 61 61 47 39 45 44 40 39 40 40 36 38 41 43 44 39 43 45 46 50 77 90 92 89 89 89 92 95 94 90 89 87 86 89 86 77 76 64 48 47 50 47 52
83 84 81 77 63 63 65 57 49 40 42 40 39 42 41 41 38 35 39 39 42 45 43 43 44 49 71 80 91 98 98 99 98 99 97 94 91 90 87 88 84 77 68 67 62 57 52 51 53
97 62 63 65 72 85 68 78 59 49 42 41 39 38 38 38 39 40 40 41 41 41 44 43 44 47 55 89 92 93 90 95 95 94 94 94 91 91 90 89 86 79 78 81 77 76 80 77 71
70 60 65 70 80 82 78 79 50 51 40 42 45 48 49 48 46 46 37 37 39 41 45 45 43 44 49 59 93 96 93 92 96 97 96 95 94 92 93 91 89 82 82 84 80 82 79 76 67
61 66 73 83 80 90 78 75 49 47 51 47 46 50 53 57 59 53 48 42 47 50 48 46 42 40 44 53 78 91 94 96 98 99 99 99 98 97 96 94 89 85 83 86 84 79 76 68 61
62 74 90 81 92 80 81 82 57 50 46 52 51 53 55 65 65 64 57 53 53 57 59 57 55 50 46 50 62 86 94 96 95 95 96 98 99 98 98 94 92 92 87 87 85 81 75 66 60
80 74 86 67 84 85 74 86 52 51 42 46 55 56 57 64 71 69 65 59 58 55 59 60 58 57 57 58 58 68 87 96 96 96 97 97 96 95 95 95 93 92 89 86 79 76 68 51 50
81 90 72 90 89 96 78 60 32 51 56 53 50 50 52 61 72 74 72 64 60 58 60 65 68 67 66 66 69 73 83 91 95 97 96 97 96 97 96 94 93 91 82 75 66 50 46 45 51
69 67 84 93 73 71 55 67 45 61 60 48 51 52 52 60 74 74 74 70 63 62 67 73 71 76 81 83 84 83 90 92 95 98 99 98 97 95 94 93 87 78 68 57 52 48 45 48 57
80 92 83 81 80 83 69 42 52 50 62 55 52 52 55 67 76 79 77 75 70 72 75 76 88 92 93 95 95 96 98 98 98 98 98 96 93 90 87 79 70 65 60 54 47 44 45 49 51
73 77 78 87 84 96 95 71 50 53 56 54 52 56 70 80 81 83 83 80 84 84 82 91 82 84 90 96 97 99 96 96 98 98 95 83 81 75 70 62 56 51 48 44 39 40 44 48 51

GFSSGP_sfc_rhum_057.txt.gz
RH
62 50 47 45 43 47 48 40 38 34 30 23 24 25 26 27 36 38 78 75 69 69 66 71 85 85 85 86 87 86 85 81 79 75 71 72 69 66 66 68 66 64 64 72 76 72 71 68 61
62 46 47 50 47 46 40 40 39 34 26 28 27 32 32 34 55 82 80 78 68 72 65 65 88 87 86 87 86 85 82 79 77 75 70 67 65 64 69 71 68 64 73 79 76 73 71 63 61
53 42 48 50 52 46 39 35 34 28 30 26 23 25 29 36 57 70 70 78 72 73 70 75 89 88 87 87 87 85 82 79 76 74 70 66 63 64 71 74 71 75 76 76 73 72 69 63 66
54 49 48 52 56 50 33 30 33 32 27 25 24 25 37 48 54 63 75 76 76 76 70 83 88 88 89 89 87 84 81 76 76 75 66 67 63 64 70 73 78 79 76 74 72 71 70 66 69
54 53 60 64 58 48 42 38 34 32 30 25 24 24 37 52 77 80 81 78 77 77 71 69 85 86 89 89 87 85 83 80 77 74 71 68 65 62 69 74 76 77 75 73 71 70 68 69 70
62 54 64 60 58 48 41 36 33 30 27 24 24 31 40 70 84 87 81 80 74 78 74 69 83 88 87 87 88 87 86 84 80 78 74 71 64 63 68 73 75 74 72 69 67 67 67 71 70
68 63 60 59 50 46 38 34 32 30 27 24 25 32 37 59 84 84 84 79 76 79 75 72 68 78 90 89 87 86 85 86 84 83 79 75 72 68 66 68 68 67 66 67 67 67 69 70 72
66 57 69 61 48 44 34 34 28 28 25 22 28 31 30 58 85 84 86 83 81 82 78 75 74 72 73 71 87 86 85 85 87 86 83 82 80 78 72 76 73 69 70 72 71 71 73 75 74
58 70 70 58 50 42 36 34 32 32 29 26 25 40 53 72 86 86 89 88 84 84 83 81 78 76 75 74 75 84 86 87 91 87 88 83 62 62 66 80 82 80 76 73 74 74 80 80 78
63 75 68 50 46 43 41 39 40 35 40 30 42 38 83 86 87 87 86 87 85 85 87 85 80 79 78 74 72 71 69 66 71 66 67 66 67 65 65 76 85 83 83 82 76 79 83 73 51
67 69 57 52 44 46 48 45 43 42 40 34 36 40 72 86 88 82 80 77 77 76 83 83 82 80 78 74 76 72 74 76 74 68 68 70 71 72 69 70 67 71 83 70 73 76 65 63 52
69 62 54 50 52 49 51 44 45 45 39 35 41 39 35 74 83 87 82 76 77 76 77 77 72 82 80 75 76 72 73 77 78 74 69 72 74 78 79 75 76 75 72 74 74 69 66 66 46
66 60 56 51 53 51 48 50 46 47 43 42 42 42 38 34 35 54 73 75 76 76 78 81 77 77 85 83 78 75 71 75 76 78 74 71 74 76 77 78 80 77 75 72 73 69 57 50 34
61 57 54 52 51 49 51 51 50 45 42 42 42 40 39 38 35 32 36 64 78 71 70 71 77 79 79 88 85 76 71 69 77 78 77 75 71 73 77 79 79 80 75 72 69 66 50 38 29
60 66 60 54 53 52 52 54 61 44 42 42 40 40 42 40 36 34 32 32 55 76 70 68 72 79 83 85 88 82 82 76 71 75 76 75 74 74 74 75 86 80 77 73 71 62 40 33 27
67 62 73 56 56 52 47 57 44 43 48 47 45 45 46 40 38 36 35 33 32 42 73 74 73 77 84 82 91 91 86 82 76 69 71 76 75 74 74 74 76 78 79 76 72 60 43 35 30
74 86 78 63 57 56 50 62 47 46 45 45 44 44 44 41 38 35 35 36 33 32 34 64 79 78 82 83 84 90 90 90 86 76 69 71 75 76 73 74 73 77 80 78 73 59 45 38 34
88 79 78 62 53 60 66 68 55 41 45 47 45 42 44 45 40 34 35 35 33 34 34 36 59 78 83 86 87 92 91 93 82 86 73 75 72 77 76 75 73 76 81 80 71 60 43 39 35
64 73 73 66 50 52 59 59 50 43 44 43 40 38 35 34 32 36 37 36 36 35 37 36 38 54 77 88 92 91 96 94 94 91 82 78 77 77 80 79 74 75 77 78 67 55 46 40 34
68 76 76 63 52 52 56 56 46 41 43 41 39 39 38 35 30 30 32 35 36 35 36 38 39 38 55 73 76 78 78 85 88 89 90 82 81 78 80 79 76 75 76 75 65 53 47 41 38
77 77 74 68 56 54 59 55 45 36 36 36 36 36 35 36 37 34 32 34 37 36 40 38 39 42 45 64 81 90 89 92 91 94 94 90 84 82 80 78 75 75 77 75 66 56 53 47 41
93 69 61 59 65 71 60 67 52 41 40 45 45 46 47 48 45 45 39 35 36 40 47 44 44 44 44 57 75 85 80 84 83 82 86 89 87 86 84 82 78 80 81 81 77 65 61 59 55
90 59 62 63 70 65 63 66 45 39 39 41 43 46 50 53 54 51 48 43 43 52 53 45 41 42 46 48 69 84 83 82 84 87 88 89 92 87 86 81 82 79 80 80 76 73 63 65 60
68 61 69 72 71 79 62 65 40 39 40 38 40 46 49 55 60 57 54 50 50 54 57 58 49 40 39 43 52 81 84 84 91 91 93 93 93 91 87 87 84 83 81 79 78 76 69 68 67
60 74 89 76 87 74 72 74 51 41 39 41 45 46 46 54 61 62 59 56 56 57 58 52 53 50 50 48 45 52 72 87 91 88 89 89 94 96 93 90 90 87 82 80 79 79 78 71 64
68 69 87 64 66 63 68 74 43 43 36 41 45 46 50 50 60 65 64 62 61 60 57 55 56 56 55 55 52 50 58 71 81 87 86 86 89 89 85 92 89 85 82 86 87 86 80 74 74
72 85 64 87 81 84 63 55 34 45 44 46 45 51 54 51 61 67 64 62 63 59 59 61 61 62 67 70 69 64 62 66 72 76 86 88 87 90 87 91 93 90 85 84 85 82 76 69 62
66 64 82 90 82 61 44 48 32 48 48 40 45 49 54 62 70 70 68 68 65 64 65 65 68 71 71 77 81 80 81 80 79 80 84 89 88 87 89 90 89 89 87 83 78 76 64 51 52
76 86 78 72 70 67 48 31 42 40 44 48 48 49 59 76 75 71 70 71 73 72 72 71 67 68 71 79 82 87 92 90 90 90 90 89 86 87 88 85 82 77 71 66 62 57 55 56 52
68 74 68 80 79 87 84 50 40 43 46 48 48 54 78 74 69 63 64 74 70 70 71 72 71 74 77 80 83 87 87 88 90 90 88 82 83 79 78 72 67 59 56 52 48 49 49 51 56

GFSSGP_sfc_rhum_060.txt.gz
RH
53 33 26 26 30 27 25 22 21 24 22 17 18 19 18 19 22 28 54 50 41 46 46 64 85 85 86 86 86 87 85 83 80 78 75 72 70 69 69 67 68 65 64 76 71 71 68 64 64
41 30 28 28 30 30 22 20 23 20 19 18 18 19 24 23 33 50 52 54 44 46 47 52 87 86 86 87 87 86 82 81 79 75 71 69 65 65 66 67 64 65 73 78 74 72 66 63 66
38 28 29 30 30 29 23 20 17 19 19 18 18 18 20 27 37 42 48 50 46 46 45 54 88 88 88 87 87 86 83 79 79 74 70 66 65 71 73 69 73 80 80 77 73 69 64 66 68
32 29 27 33 33 26 21 21 20 21 19 18 17 19 25 36 38 42 48 46 46 45 44 77 90 89 90 89 87 84 80 76 77 76 70 65 65 70 76 74 77 77 77 74 72 70 66 68 70
33 29 36 38 32 24 23 20 22 23 20 16 16 18 21 41 48 49 50 48 46 46 45 58 90 90 90 89 88 86 82 78 78 74 70 66 63 67 73 75 77 77 75 73 71 70 67 68 72
38 31 37 40 32 25 23 21 21 21 18 16 17 18 23 45 51 57 52 48 46 48 48 50 85 90 90 89 88 86 85 83 79 76 73 71 64 65 72 74 76 75 72 70 70 68 69 70 71
40 39 37 30 30 30 27 20 23 19 18 15 16 19 24 38 59 73 60 48 50 48 48 46 58 72 91 90 89 89 87 85 82 80 79 75 72 69 70 74 74 72 70 67 66 66 69 70 72
38 37 35 30 31 31 23 23 19 18 16 16 17 18 22 41 67 77 72 52 52 52 46 45 47 52 58 59 89 88 88 88 87 85 84 81 79 77 72 77 73 68 68 69 70 69 71 74 74
44 38 37 38 33 26 22 23 21 20 17 17 18 24 40 45 76 80 79 75 67 56 50 46 44 47 48 49 64 84 88 89 90 85 87 79 45 51 60 71 80 79 74 73 72 74 78 78 78
35 37 30 27 29 26 25 20 23 23 22 20 24 29 57 67 79 79 79 78 74 72 59 50 49 47 48 48 49 48 46 47 44 60 66 52 44 42 44 67 86 81 81 80 76 81 80 72 43
36 34 32 40 34 29 27 28 28 23 26 19 22 31 54 70 78 77 72 70 73 68 62 64 53 51 50 47 44 44 45 43 41 50 51 48 47 49 48 48 55 55 80 53 63 68 51 46 40
48 33 34 44 41 41 35 28 29 27 21 23 28 29 33 58 71 73 70 67 60 68 69 69 66 57 53 47 48 45 46 45 42 46 46 48 50 49 47 48 48 48 48 47 48 47 48 48 41
48 44 39 38 43 41 39 37 29 31 28 28 28 31 28 27 46 57 61 61 64 68 67 69 66 66 64 57 50 49 48 47 45 47 47 47 50 49 47 50 56 49 45 46 48 48 48 47 39
44 42 41 37 40 41 42 38 38 30 27 26 27 25 23 25 25 26 40 49 52 52 58 63 66 67 70 76 60 55 50 46 46 47 50 51 49 50 49 50 55 60 54 46 46 46 46 44 38
47 51 42 43 38 35 37 41 43 28 24 25 23 21 23 25 24 25 24 24 26 34 43 51 58 65 67 71 79 64 56 50 49 50 49 52 53 53 52 49 53 53 57 54 48 46 46 41 33
49 45 52 35 39 41 38 29 32 30 27 28 25 22 24 23 23 21 22 23 22 22 28 36 48 56 61 67 78 85 72 59 54 49 48 51 52 54 54 51 52 52 54 61 54 51 48 43 34
50 43 42 49 40 33 38 30 26 30 31 28 26 24 26 25 23 22 22 21 21 20 21 24 36 46 53 66 71 84 85 72 57 55 51 51 53 54 54 51 50 50 55 62 59 54 47 45 38
52 49 45 40 44 46 45 34 33 33 33 30 26 24 24 25 24 22 23 23 22 21 21 21 23 31 41 55 77 87 89 87 69 60 56 54 52 56 57 52 52 49 56 64 63 58 51 47 43
39 45 42 42 42 42 43 43 38 33 31 30 26 23 22 24 22 23 22 22 22 22 23 23 24 25 31 46 85 90 92 88 87 79 70 59 58 56 61 57 55 53 55 59 63 61 56 51 44
44 42 43 54 45 42 43 44 35 32 32 31 29 26 25 24 22 22 21 22 22 22 22 23 24 25 26 32 50 62 63 71 74 78 79 78 65 65 63 64 59 60 58 58 64 65 61 53 43
49 44 53 49 47 42 44 40 38 30 29 29 28 30 31 32 29 27 24 25 26 25 26 27 26 28 28 30 35 50 58 66 69 75 75 74 79 73 69 69 62 69 62 60 64 67 61 59 48
63 53 51 52 52 50 45 31 38 32 38 36 36 38 38 38 33 33 31 32 32 38 40 33 31 31 31 34 34 45 57 64 62 57 62 67 72 83 81 74 70 71 75 70 68 67 65 60 56
71 55 52 51 50 49 46 45 34 30 37 37 35 37 40 42 42 38 38 39 37 43 45 41 32 28 30 32 36 40 53 50 51 56 61 62 71 77 86 80 78 76 77 76 71 71 65 62 54
48 49 49 49 53 68 43 47 30 30 29 34 33 34 38 42 43 42 40 39 40 44 45 42 36 35 34 32 34 38 45 52 57 64 69 69 74 83 86 85 86 83 82 79 77 75 74 68 64
69 59 84 80 83 61 52 48 28 30 28 30 39 40 38 42 45 47 45 44 46 48 47 42 40 38 38 38 36 33 38 46 58 61 65 68 72 82 87 84 86 85 84 82 80 78 79 76 73
58 59 74 55 42 40 56 49 30 30 28 31 34 38 42 46 48 50 49 50 50 50 48 46 43 42 44 45 46 42 39 38 39 44 51 55 58 64 71 79 86 87 87 85 82 83 82 77 79
62 76 48 68 61 56 35 38 32 33 32 33 33 37 45 51 52 52 50 49 51 51 51 51 47 46 46 49 50 49 49 52 49 48 47 52 54 61 64 75 84 90 89 87 86 88 86 81 82
53 46 68 86 72 50 33 29 26 37 36 33 36 41 46 54 52 49 49 54 54 52 53 52 49 48 48 53 54 57 61 65 65 63 61 57 56 60 74 77 89 89 88 86 88 89 87 84 80
60 66 59 48 47 47 23 21 24 34 32 36 36 41 54 55 50 49 52 52 50 50 53 52 52 53 55 57 58 65 70 76 77 80 78 78 77 76 80 82 86 88 87 84 83 77 74 76 77
52 53 46 59 63 62 62 27 24 26 31 35 36 48 56 52 49 52 50 48 49 52 53 54 51 51 53 57 59 62 64 66 70 73 70 71 75 76 78 77 78 76 72 65 63 61 58 59 62

GFSSGP_sfc_rhum_063.txt.gz
RH
52 34 22 24 29 24 25 20 14 17 17 14 15 15 14 16 18 32 44 38 35 42 51 62 86 87 86 85 86 87 86 84 82 80 78 74 71 69 68 67 65 65 71 70 70 69 65 65 65
34 27 25 25 30 29 22 16 19 14 15 16 15 16 16 17 24 43 43 42 35 38 47 51 89 88 88 88 85 85 82 82 81 80 74 68 64 64 67 66 66 67 76 77 72 68 65 66 66
46 26 29 29 30 26 22 15 14 16 16 16 16 16 16 24 32 35 40 38 36 39 42 58 88 88 88 88 87 84 82 79 78 74 70 66 64 75 71 68 80 81 80 76 70 65 66 68 69
38 30 28 33 31 24 18 15 14 15 16 16 15 18 19 29 32 36 40 37 37 37 39 78 90 90 88 89 87 83 80 79 75 73 69 66 68 77 75 79 80 79 77 73 70 67 68 70 71
34 29 37 37 31 21 16 15 16 16 17 16 15 17 22 38 37 39 38 36 37 36 45 57 91 90 90 88 87 85 81 77 75 73 70 66 67 75 78 78 79 78 75 73 71 67 66 70 72
47 32 39 38 30 22 17 16 17 17 15 14 15 15 28 38 41 42 39 38 36 37 45 61 89 89 89 88 88 86 83 81 78 76 71 68 64 73 76 78 77 76 73 71 70 69 67 72 71
43 39 40 31 26 24 19 16 17 17 16 15 12 17 25 39 51 47 39 37 38 38 40 48 55 74 93 91 90 88 86 82 79 80 77 74 71 70 74 75 75 74 71 68 68 68 69 70 72
37 37 38 32 27 25 18 19 15 17 16 12 12 17 22 38 57 62 49 40 40 42 39 40 50 61 69 73 89 90 88 85 82 83 84 81 78 77 75 79 76 71 68 68 67 68 70 72 73
34 42 40 34 29 22 17 20 17 14 14 14 13 18 34 44 62 68 58 46 44 44 40 37 40 50 52 58 71 87 90 91 89 85 85 79 46 52 64 69 78 76 72 72 71 72 76 79 78
40 45 36 25 23 24 18 20 17 19 17 14 15 24 39 48 68 73 75 73 60 48 42 38 38 38 40 39 57 54 54 58 56 56 62 56 41 40 40 68 84 81 81 80 75 78 82 79 49
36 32 26 21 28 29 22 21 14 19 17 14 15 18 37 47 66 67 66 63 68 51 47 42 42 40 40 41 40 40 39 41 38 40 60 53 42 43 44 54 61 62 81 61 68 72 58 48 40
40 29 22 29 34 32 26 19 23 20 18 15 20 24 30 42 49 57 56 50 52 55 57 49 46 45 43 40 39 37 40 40 36 41 48 45 44 44 42 42 47 50 52 48 53 52 48 45 41
42 30 27 31 39 35 24 23 23 22 21 22 23 25 23 25 37 50 51 45 45 49 56 62 61 58 48 47 42 42 42 41 39 40 41 41 44 45 43 44 44 44 42 43 44 44 44 45 40
39 34 34 31 39 38 38 27 28 24 20 22 21 21 20 22 24 29 44 45 45 47 49 54 65 68 64 55 48 46 44 43 42 41 43 42 43 46 47 44 52 58 44 41 42 43 44 44 41
40 42 39 34 33 36 36 38 35 24 22 22 19 19 18 18 20 23 24 30 34 37 39 45 53 61 63 65 66 54 49 46 46 44 43 45 46 46 47 46 47 53 63 50 43 42 42 44 41
52 42 53 38 36 32 36 36 27 24 22 22 19 17 16 16 16 17 20 22 22 23 26 34 41 49 57 60 73 72 56 50 48 46 45 45 46 48 49 49 47 45 50 65 59 48 48 47 42
49 48 42 34 32 35 40 30 23 24 24 21 18 18 18 18 17 15 15 18 20 21 22 22 27 36 46 50 60 79 77 70 56 49 47 46 47 48 50 50 48 45 50 60 69 54 50 50 47
47 44 30 31 39 34 35 34 23 23 27 23 19 18 19 19 18 16 16 17 17 18 18 19 20 22 28 38 48 77 85 80 83 55 49 49 47 50 53 53 49 46 52 54 69 62 53 50 48
26 35 30 26 37 38 34 32 26 25 27 25 22 19 17 17 16 19 21 20 20 20 21 21 21 21 22 30 38 73 89 91 81 73 57 53 51 49 55 57 53 52 53 54 62 66 60 58 50
34 35 37 38 34 36 30 34 29 28 28 25 23 22 20 20 20 19 20 19 19 19 20 21 22 22 22 24 29 53 66 75 78 81 81 73 60 57 56 59 61 56 57 56 59 68 68 61 54
36 36 34 40 44 37 36 39 33 27 27 26 24 23 23 25 24 24 23 25 25 25 27 24 24 25 25 27 26 32 52 59 64 73 76 75 74 70 65 63 62 64 62 62 61 66 70 70 59
45 31 31 48 49 39 34 22 33 30 32 29 29 29 30 30 28 29 29 31 32 39 43 33 29 28 27 30 31 33 38 51 54 53 55 59 61 70 77 76 68 71 74 70 65 63 71 72 69
56 43 44 48 50 48 45 42 32 30 36 34 32 35 36 35 34 33 35 36 38 44 46 40 32 27 27 29 31 33 36 39 46 48 49 50 54 62 75 80 85 82 82 83 74 76 69 76 67
51 49 49 47 51 73 40 38 35 31 30 32 30 31 34 37 37 37 37 37 38 44 46 43 35 32 33 32 31 34 41 39 46 49 54 55 58 65 70 80 83 84 86 86 88 80 84 80 77
57 61 92 93 89 65 38 42 27 23 24 28 31 32 34 36 39 42 42 43 44 47 46 42 39 36 36 38 36 33 34 38 45 49 53 55 59 66 75 86 88 91 91 89 89 90 88 84 84
73 69 80 70 54 47 44 45 27 24 22 30 31 35 38 41 42 45 46 46 46 48 47 45 43 41 40 40 41 39 39 38 36 36 39 43 48 50 52 70 80 83 87 90 91 93 92 88 88
94 95 46 57 44 44 33 30 31 29 27 30 31 35 41 45 46 45 42 43 48 47 48 49 46 43 42 44 44 44 45 51 53 50 46 44 42 47 51 62 70 86 91 93 93 94 94 94 93
50 43 65 86 74 44 33 26 26 34 35 31 33 37 42 47 46 44 43 49 46 45 48 47 45 47 47 48 48 51 55 60 62 64 64 63 60 56 58 64 70 88 93 93 94 95 95 96 98
54 61 51 46 41 48 22 22 22 28 28 33 34 38 46 49 46 45 47 45 46 47 49 48 46 47 49 51 52 54 58 60 60 65 65 66 68 68 70 70 71 80 86 88 93 91 93 88 87
44 45 42 57 50 51 57 32 22 27 30 31 35 42 49 48 46 47 46 44 45 47 47 48 45 45 46 48 50 54 56 57 59 57 57 59 64 64 69 71 75 78 79 76 76 78 77 82 86

GFSSGP_sfc_rhum_066.txt.gz
RH
56 39 39 43 58 48 44 32 23 26 25 21 18 20 24 22 48 76 53 46 53 62 72 76 87 88 86 86 87 88 86 84 83 81 79 74 72 71 68 68 66 68 70 71 70 67 68 66 66
51 37 44 50 54 50 37 23 25 22 22 20 20 22 23 44 47 55 58 47 51 59 67 74 89 88 87 88 88 87 85 83 82 79 73 67 65 67 68 67 67 74 77 73 69 68 68 67 69
56 44 53 52 50 46 37 23 22 21 20 21 23 21 20 45 41 52 52 44 47 58 58 75 90 90 89 89 88 87 84 81 79 75 71 66 72 73 69 77 76 79 78 72 68 69 69 70 71
48 50 47 53 44 36 28 22 18 20 21 21 21 26 38 44 48 50 47 42 47 52 73 92 91 90 90 89 88 86 82 78 76 73 70 67 77 74 79 82 81 82 79 70 69 70 70 72 72
49 50 54 51 45 31 23 19 21 21 21 20 23 29 54 51 47 47 48 43 46 59 75 86 91 90 90 89 87 85 83 78 74 71 69 67 79 78 80 81 80 78 76 73 70 69 71 73 73
76 53 62 62 43 31 25 20 19 22 20 20 22 31 59 50 52 49 46 47 45 65 67 77 93 91 89 88 88 86 84 82 79 75 70 66 76 78 79 79 78 77 75 73 71 68 71 73 73
91 72 67 52 44 32 26 21 22 22 23 21 19 28 59 65 61 50 48 46 46 57 68 77 86 88 91 91 90 88 85 82 80 79 78 75 77 80 77 78 76 74 72 72 71 71 70 72 74
60 80 70 51 42 36 23 21 19 21 21 17 17 40 83 76 71 66 50 50 50 52 60 66 74 82 87 93 91 90 88 84 79 82 84 81 79 80 81 83 80 74 71 70 70 70 71 74 75
41 68 84 71 49 33 22 23 22 20 22 20 19 46 56 69 69 80 72 58 57 52 53 55 62 77 74 77 80 87 88 85 86 89 87 82 74 78 82 82 81 79 75 72 71 72 76 83 81
48 64 57 41 31 32 25 25 24 23 24 23 23 41 53 68 78 83 80 76 70 60 54 52 59 66 67 61 84 83 82 89 85 82 83 75 66 64 60 82 83 82 82 81 76 78 84 84 81
48 57 42 32 34 33 29 28 26 26 30 22 21 35 50 67 78 79 80 83 82 73 57 52 53 56 56 63 75 70 71 75 72 72 76 77 64 68 74 93 92 95 90 90 87 95 90 82 74
51 41 35 31 38 39 34 25 24 24 28 25 33 33 49 55 73 75 73 73 76 71 70 58 54 57 55 57 58 58 60 61 60 62 69 72 72 66 66 76 82 85 87 83 86 88 81 73 61
53 40 31 31 41 40 31 32 29 30 29 28 28 30 35 41 54 61 62 58 64 67 69 72 71 71 61 59 57 58 57 60 56 60 66 63 69 66 63 65 66 69 73 73 72 72 65 66 60
43 41 35 34 44 40 37 33 30 28 28 28 30 33 32 32 36 56 62 62 60 65 67 71 71 76 78 70 64 61 61 59 60 59 63 59 65 68 67 66 65 69 67 64 67 66 66 66 64
43 48 43 36 44 45 44 42 39 29 28 28 30 29 26 26 29 33 38 55 56 59 57 64 70 72 74 80 80 74 67 61 66 63 58 58 61 66 68 67 75 75 74 71 63 63 64 67 62
64 52 62 42 40 42 43 54 37 30 33 33 29 28 26 24 24 25 28 33 36 38 33 53 56 68 72 68 73 84 82 73 70 65 63 59 59 63 68 70 70 74 75 78 83 74 72 72 68
69 74 63 50 39 39 43 52 33 28 31 33 30 27 24 24 23 31 23 25 29 34 32 33 35 58 68 70 74 84 82 87 82 71 67 63 61 63 69 72 71 65 76 80 80 82 75 77 71
73 69 48 47 41 41 49 50 32 31 34 32 28 26 27 26 25 24 24 34 27 29 30 31 33 32 34 59 68 89 93 86 89 83 77 66 65 66 72 73 72 66 74 82 88 79 83 76 73
42 48 48 37 36 45 47 45 37 30 34 38 32 28 27 25 22 27 27 27 28 28 31 30 31 32 34 38 57 94 97 96 95 89 82 82 78 68 77 79 81 75 69 69 82 83 81 80 72
45 44 45 36 41 43 43 42 32 30 34 33 34 32 28 27 29 27 26 29 28 29 31 33 32 33 33 37 41 69 92 94 88 90 84 85 89 83 78 76 77 86 84 79 81 82 86 77 72
44 45 40 46 46 43 45 44 40 34 34 32 33 33 30 33 32 31 33 35 40 52 53 42 39 38 39 42 44 46 85 91 94 93 88 78 81 87 93 81 79 86 82 86 91 85 90 86 86
62 35 35 48 59 61 45 46 39 36 38 33 35 36 39 40 39 38 41 45 52 58 59 53 40 38 36 39 46 50 55 72 83 89 89 89 89 88 89 93 88 83 82 87 87 82 88 94 83
53 42 47 55 59 61 53 66 47 39 42 40 39 46 46 46 42 44 47 47 55 60 62 56 48 42 40 40 44 50 53 55 58 71 75 75 77 88 90 90 91 95 95 94 88 91 85 89 86
53 57 56 63 67 94 57 56 54 44 40 40 43 46 47 48 50 48 48 48 55 61 62 60 52 46 47 48 45 47 53 56 58 68 77 78 79 83 88 92 89 89 88 91 96 92 95 94 90
68 72 95 97 97 91 46 56 48 34 33 38 40 44 46 49 55 57 59 60 61 64 64 58 58 55 53 55 56 56 53 54 58 61 70 75 82 88 88 92 95 96 95 94 93 95 95 96 96
79 78 96 81 90 77 50 67 42 32 31 35 40 45 47 54 59 60 60 60 65 63 64 64 62 59 56 59 61 62 67 74 71 71 68 66 64 67 65 81 94 93 92 96 97 97 96 97 97
95 95 60 77 63 83 60 47 41 34 44 40 39 44 54 58 60 59 57 64 63 62 63 64 61 60 61 63 66 70 76 80 84 85 85 83 81 71 79 85 90 93 92 94 97 98 98 98 97
87 66 80 95 81 70 53 50 46 43 42 39 42 47 54 57 57 56 60 60 61 63 65 63 61 63 64 67 69 72 78 80 84 87 88 87 87 85 87 88 89 89 93 95 97 98 97 98 99
93 92 72 62 63 87 55 47 36 38 38 40 42 46 54 59 57 60 60 57 61 62 64 62 60 60 62 65 70 76 77 79 78 77 78 78 81 79 74 76 81 85 88 90 94 94 96 94 94
56 57 55 91 68 79 87 55 31 34 38 41 43 48 59 56 56 58 56 55 59 60 61 62 60 61 62 64 69 72 71 73 78 77 71 66 65 62 63 62 65 64 65 69 77 82 86 91 91

GFSSGP_sfc_rhum_069.txt.gz
RH
58 56 56 61 60 63 63 45 30 28 26 29 26 24 28 42 62 70 65 71 78 85 82 86 89 88 88 88 88 88 87 85 83 79 78 74 72 69 68 66 70 71 72 69 68 69 67 66 65
66 54 60 61 68 68 54 37 27 30 26 26 21 25 35 70 64 63 74 70 72 80 78 82 89 89 88 88 88 87 85 84 82 77 72 68 68 69 68 68 70 75 73 69 69 68 68 69 64
57 54 77 67 73 66 52 35 28 27 22 25 28 25 44 58 61 64 63 64 72 78 79 86 90 89 89 88 88 87 84 83 79 76 70 69 71 70 72 73 77 78 74 70 71 70 70 70 65
52 66 63 74 70 49 44 36 31 25 24 22 26 55 56 58 62 60 56 66 74 73 87 94 92 90 90 89 88 85 80 79 75 74 70 78 78 77 80 81 83 81 77 71 71 71 72 72 68
66 72 78 74 62 49 43 28 23 26 25 26 25 52 73 66 59 56 56 60 78 86 90 93 93 91 90 89 88 84 83 78 74 72 70 80 79 78 82 82 80 79 75 72 72 71 72 73 72
87 82 86 72 61 45 43 24 21 26 25 23 34 66 79 72 60 58 55 70 75 86 87 89 93 92 90 89 87 86 84 81 76 74 70 80 78 78 80 81 79 78 76 72 70 72 72 74 73
83 78 85 62 54 47 40 25 26 25 29 27 24 76 87 81 77 63 62 69 75 80 88 95 93 90 91 91 89 87 86 84 82 80 76 82 84 83 79 79 78 76 75 73 72 72 73 74 74
90 90 75 68 63 50 32 23 22 23 25 22 26 76 89 84 77 74 55 72 77 80 89 97 96 85 86 92 92 90 89 87 84 84 82 82 88 86 85 85 82 76 74 73 74 72 73 76 76
62 93 92 77 66 52 37 37 26 22 23 27 53 68 82 76 76 81 74 69 80 76 82 89 92 95 94 94 89 91 90 86 86 90 86 84 88 90 90 88 85 82 77 73 73 73 77 84 83
62 82 68 50 52 54 41 33 32 26 26 34 70 83 78 80 86 87 81 85 74 74 75 78 84 87 87 71 89 92 86 89 91 89 88 82 83 87 79 88 86 83 82 81 76 78 86 86 90
57 66 54 48 44 56 44 31 28 29 36 29 56 88 86 87 88 90 87 85 85 74 66 68 77 78 81 78 94 96 98 95 91 91 85 84 73 81 87 97 95 96 92 95 91 94 97 94 88
57 47 44 43 44 55 50 28 29 30 36 37 35 63 79 86 91 89 88 84 86 85 71 63 68 77 75 82 82 84 86 90 90 85 82 88 83 84 90 94 98 98 98 96 97 99 96 92 83
65 50 40 38 43 45 34 36 36 33 38 32 31 37 66 79 82 84 81 80 80 80 75 78 76 76 68 75 73 75 75 75 72 78 77 80 81 74 82 89 92 95 96 94 96 97 93 89 82
54 52 48 40 46 45 40 37 32 32 33 34 31 37 37 43 72 76 72 74 84 80 74 74 76 80 84 80 64 65 67 64 67 77 75 74 79 65 68 77 80 84 82 82 79 83 84 83 76
62 59 55 50 49 52 40 40 38 36 34 36 40 34 32 33 34 68 69 69 69 75 75 76 73 76 85 87 86 85 75 66 68 68 72 72 72 70 69 72 75 70 75 75 77 76 78 79 73
68 59 74 51 50 49 39 51 40 36 47 38 39 39 35 29 28 33 34 47 60 67 75 77 65 78 82 85 85 89 89 89 80 70 68 62 65 71 76 75 77 75 79 81 84 80 79 80 79
83 89 78 57 48 50 46 55 38 35 39 38 41 38 34 30 29 29 27 31 33 37 36 63 74 83 83 87 84 87 87 90 91 87 79 69 64 67 75 79 77 78 83 85 84 89 81 84 81
93 88 76 68 51 48 54 52 41 34 38 38 38 34 33 30 27 26 29 33 31 32 34 34 37 76 82 84 86 95 96 93 94 93 92 86 75 69 72 75 77 74 87 89 93 89 92 84 80
69 73 64 54 45 51 51 51 44 40 38 38 38 36 32 29 29 32 30 31 30 30 33 36 36 35 42 61 96 98 96 98 98 96 91 92 93 88 83 76 83 79 72 78 87 86 90 95 82
64 75 66 49 40 48 51 51 46 42 39 38 36 36 35 35 32 31 30 34 45 56 55 47 43 41 41 46 48 93 97 98 92 95 94 92 94 95 93 91 86 91 89 87 92 93 94 93 87
67 75 68 53 56 51 53 56 49 41 38 39 37 34 33 35 36 41 44 51 57 62 63 56 45 42 43 43 48 53 92 96 98 96 97 95 93 94 95 95 96 96 95 96 95 92 91 90 97
79 53 48 56 63 76 50 68 44 41 43 38 37 37 37 41 43 46 48 53 58 63 63 58 53 42 40 44 46 51 58 67 87 96 95 95 93 92 93 94 95 96 96 95 90 88 89 93 94
72 51 46 63 64 71 65 67 49 41 49 43 40 42 47 44 47 50 51 55 59 63 66 61 55 48 49 46 48 55 57 63 66 68 80 94 96 95 94 93 95 97 98 97 97 97 97 94 90
83 62 59 68 74 94 71 69 58 54 40 46 50 57 52 54 54 53 52 59 65 67 66 64 59 56 59 61 63 61 58 61 64 66 73 81 88 90 92 96 96 95 94 93 96 97 98 98 95
89 88 98 96 97 93 64 69 52 40 41 44 55 55 56 60 63 64 65 67 69 70 67 61 65 62 62 64 68 76 81 82 82 83 78 74 77 84 83 92 95 96 95 93 94 96 97 97 98
96 84 91 90 97 90 58 80 54 38 36 43 46 51 55 66 68 65 65 71 68 66 67 67 65 66 67 68 73 82 85 89 92 93 95 96 94 92 91 91 94 95 94 93 94 98 98 97 98
97 96 68 77 73 86 71 57 38 48 48 47 51 53 64 67 66 63 70 67 67 69 70 68 68 70 71 73 78 86 89 91 93 93 94 95 93 79 92 92 92 94 94 94 95 97 98 98 99
94 73 82 94 82 78 72 67 57 55 52 47 50 58 64 66 64 68 69 67 69 70 71 66 66 67 70 76 82 81 85 81 81 76 78 80 79 79 86 93 94 94 94 95 96 98 98 99 98
96 98 84 66 72 85 66 55 42 42 46 44 48 53 66 69 67 71 67 68 70 71 69 66 66 66 70 74 77 78 80 81 79 77 75 72 69 68 68 74 77 76 79 85 90 85 89 93 94
71 83 75 88 71 79 91 67 37 41 45 41 49 55 65 62 65 66 64 68 69 70 69 68 68 69 73 76 79 79 79 80 83 83 79 75 75 71 70 68 71 72 73 77 84 85 87 89 92

GFSSGP_sfc_rhum_072.txt.gz
RH
56 58 60 57 60 66 70 53 39 32 31 31 28 38 54 59 62 54 78 86 91 92 89 88 89 89 88 88 89 89 88 86 83 77 77 74 71 67 68 72 72 70 68 68 68 68 67 65 62
62 55 58 66 72 74 60 46 36 28 26 26 26 29 62 79 69 91 91 86 85 87 89 89 91 90 89 89 88 89 87 85 84 78 73 70 69 68 67 70 75 72 70 70 68 68 67 64 63
55 58 69 68 79 70 57 40 33 29 26 27 28 36 58 74 69 76 84 79 81 86 86 89 91 90 89 89 89 88 84 83 78 75 71 71 71 70 70 74 78 73 72 71 70 69 68 64 66
52 61 68 81 78 57 48 47 35 28 29 25 42 70 70 70 64 76 76 79 85 95 94 92 92 90 90 89 88 84 81 77 76 73 74 78 74 74 75 81 81 79 77 73 71 71 70 68 68
63 68 77 84 72 60 51 39 35 27 30 29 34 79 82 68 68 72 79 75 84 96 95 94 92 91 90 89 88 84 82 76 74 72 80 78 78 80 82 82 82 76 75 74 72 71 72 71 70
86 76 90 85 67 51 47 39 28 27 31 34 73 80 85 82 68 76 75 77 80 94 96 94 94 92 90 89 88 85 83 80 75 74 82 77 73 81 82 81 79 76 74 74 73 72 73 73 70
78 72 83 72 62 49 43 36 30 28 29 29 59 86 88 84 83 76 80 82 84 88 95 97 96 93 93 91 89 86 84 83 81 79 83 84 83 82 81 81 80 78 75 73 73 73 74 74 72
88 78 74 68 68 57 55 44 34 25 28 24 58 91 93 83 81 82 79 85 90 91 96 95 97 89 94 93 91 90 88 87 85 83 88 91 90 88 85 86 83 78 76 74 74 74 74 76 75
88 92 83 69 75 57 60 67 37 25 37 57 74 84 75 80 80 86 91 91 95 95 98 98 98 89 86 95 91 92 90 90 90 87 87 92 96 94 92 92 86 83 78 74 75 73 77 84 84
90 96 79 56 57 75 66 63 48 29 43 79 96 87 82 84 89 87 95 98 96 97 98 96 96 97 95 81 94 96 90 93 94 91 90 90 94 96 91 93 89 85 83 81 76 76 84 88 95
67 79 58 50 47 75 72 67 54 39 32 65 92 93 91 92 95 92 91 91 92 89 88 90 93 92 94 84 98 99 99 98 97 93 91 87 84 94 96 98 96 96 93 96 91 93 97 95 93
68 54 52 56 77 73 80 74 55 34 36 34 79 88 90 92 95 93 91 89 87 83 83 82 86 92 92 93 93 97 97 98 98 95 89 93 92 90 96 98 98 98 98 97 97 99 98 96 93
72 52 46 42 61 68 71 77 59 32 37 48 76 81 89 89 90 90 88 86 83 81 78 81 85 90 86 93 89 97 96 96 95 95 90 91 91 84 92 96 98 98 98 98 98 98 98 97 94
65 57 51 47 45 44 68 65 52 30 33 36 38 64 85 88 87 89 89 87 88 82 82 82 82 82 81 91 91 86 89 88 90 89 89 86 83 76 85 91 92 98 97 98 96 97 97 97 93
69 66 65 56 51 46 38 54 54 30 35 37 39 35 35 58 83 87 82 80 83 86 78 81 79 84 87 83 78 77 80 76 80 78 84 82 83 72 74 82 86 86 88 93 92 93 94 96 88
79 75 79 54 52 47 38 53 37 35 38 42 44 58 42 36 44 73 76 75 80 82 78 77 68 80 87 91 90 92 93 88 78 77 78 78 78 78 73 75 78 76 82 85 88 86 90 90 91
88 92 77 60 50 52 44 52 40 36 39 38 43 42 39 35 33 33 38 45 44 70 76 84 81 82 85 89 91 92 92 95 93 87 80 76 73 75 74 71 72 83 78 80 83 89 86 90 90
96 90 81 73 56 55 58 56 43 42 43 40 40 40 37 34 32 32 33 36 35 36 37 42 76 88 88 90 93 95 96 96 96 96 95 86 78 74 76 78 79 77 90 86 95 93 95 89 87
80 82 74 64 51 55 60 57 48 40 44 44 44 40 35 30 36 36 36 36 35 49 44 42 39 41 76 96 97 97 97 96 97 98 94 93 93 93 89 88 88 88 79 79 86 92 93 94 93
80 84 78 59 47 57 57 56 48 44 46 39 40 39 36 36 35 34 44 60 60 61 60 51 45 43 44 52 57 96 97 97 96 96 96 96 96 96 96 96 93 94 95 92 94 95 96 93 96
85 82 75 65 60 56 59 65 61 50 47 41 41 40 39 36 37 48 56 59 63 67 68 60 56 46 44 44 51 57 95 97 99 98 98 96 94 94 96 96 97 96 97 94 91 94 95 90 98
83 63 59 58 70 85 54 81 55 55 48 45 42 41 40 42 47 51 55 60 62 66 66 60 56 49 47 50 51 52 58 73 91 91 94 96 95 95 94 96 97 97 98 97 96 95 96 97 94
71 78 60 67 70 74 71 76 64 47 57 47 47 41 43 51 55 55 58 61 64 69 72 68 60 60 64 66 58 60 60 65 68 68 70 80 90 96 96 96 97 98 98 98 98 98 98 98 96
88 68 70 76 83 96 71 73 69 51 46 44 44 44 50 53 58 58 63 66 70 71 71 70 65 67 67 72 78 79 72 70 74 77 78 78 86 90 90 94 97 97 97 98 98 97 98 99 98
87 85 99 98 99 94 71 75 48 46 42 41 48 60 64 62 66 70 73 75 72 70 71 64 66 68 70 77 84 88 91 92 93 94 96 94 94 96 95 96 98 98 96 96 94 94 95 97 98
96 90 94 91 96 88 68 85 55 45 39 41 46 55 65 71 73 74 76 76 70 69 71 70 70 72 74 79 87 91 92 96 97 95 96 97 97 96 94 94 95 95 95 96 96 96 96 96 98
96 99 80 80 83 92 74 63 43 58 60 58 56 58 69 73 72 72 75 70 72 73 73 73 74 75 80 87 90 91 93 93 92 87 89 94 90 77 94 95 95 95 94 95 94 97 98 98 99
91 84 98 94 87 84 75 73 60 73 63 54 56 63 70 71 69 75 72 73 76 75 72 70 69 73 78 78 78 83 84 80 78 76 75 74 71 72 82 87 86 86 89 94 95 97 95 93 96
96 99 90 75 77 87 74 61 49 54 54 54 56 61 69 71 71 75 71 74 75 74 70 70 71 74 79 79 80 83 84 84 84 83 81 79 75 74 73 74 75 76 79 86 94 95 95 93 92
77 88 80 93 88 84 90 58 43 46 53 49 51 57 67 65 69 69 70 74 74 74 71 72 74 77 80 81 84 87 87 88 89 88 84 82 84 79 78 78 79 82 84 89 93 95 94 90 91

GFSSGP_sfc_rhum_075.txt.gz
RH
63 59 61 52 56 69 75 55 50 33 34 32 31 42 43 77 54 53 86 92 90 92 92 90 89 88 88 88 86 89 88 85 81 76 75 73 69 70 70 72 70 67 67 68 68 67 65 62 67
66 54 53 65 68 76 65 51 42 31 31 31 42 52 73 81 79 97 93 92 88 92 92 91 90 90 88 88 86 87 85 81 80 78 75 70 67 68 72 75 71 70 69 68 68 67 64 63 64
63 56 58 67 81 71 59 45 43 30 29 33 39 59 75 83 87 91 93 83 89 94 92 92 92 90 89 89 89 87 85 82 77 76 72 71 68 67 71 78 73 72 72 70 68 67 65 66 68
63 58 64 76 81 62 50 48 46 40 27 27 60 76 80 79 75 80 90 89 94 97 96 95 92 90 91 91 90 88 81 76 75 74 74 75 70 70 74 79 78 77 75 71 68 67 67 69 70
73 62 79 85 79 65 56 47 43 37 32 31 58 85 86 79 86 88 90 87 95 97 96 95 92 91 90 89 88 84 82 77 75 73 79 76 75 74 82 81 78 76 75 73 69 69 68 70 70
80 78 91 89 71 56 51 47 47 36 31 60 81 86 89 86 91 92 84 89 90 96 95 93 94 92 91 89 89 85 83 79 76 77 80 77 79 79 80 80 76 76 75 73 71 69 69 70 69
83 77 80 75 57 58 49 54 41 36 32 32 74 90 92 91 89 89 86 89 91 95 97 98 97 95 93 91 89 86 84 83 81 85 83 82 82 84 79 79 78 76 74 73 72 70 71 70 69
92 76 76 75 56 62 62 61 53 36 30 35 77 91 93 90 86 93 92 96 97 98 92 88 98 97 97 95 91 89 87 86 85 88 90 88 89 88 86 87 85 79 76 73 73 72 72 73 73
84 89 74 68 70 65 69 71 57 46 41 69 89 86 84 89 92 95 95 94 93 90 83 83 98 97 97 96 92 91 90 89 87 90 95 95 97 94 93 93 87 84 80 76 75 74 75 85 86
92 86 76 59 60 60 70 68 66 61 51 72 97 93 90 90 94 94 96 98 92 88 86 86 98 97 96 85 95 96 92 96 95 92 94 98 97 97 93 94 90 86 85 83 78 78 82 89 96
90 82 62 54 78 81 74 69 69 65 42 46 91 97 95 94 96 96 91 96 96 96 98 98 98 97 95 90 99 99 99 98 98 94 93 93 93 98 98 98 98 97 93 96 92 92 96 96 96
82 64 58 68 84 80 75 71 71 70 51 50 49 93 95 93 95 96 97 97 97 97 96 97 97 98 97 98 98 98 99 99 99 97 93 94 95 97 98 99 98 98 98 97 97 98 98 97 95
80 61 53 80 77 71 68 68 70 72 57 48 65 89 95 95 95 94 93 92 93 94 94 95 96 97 97 97 98 99 99 98 97 98 94 93 95 92 96 97 98 98 98 98 98 98 98 98 96
74 59 68 71 76 61 74 70 80 63 55 40 89 88 90 92 93 93 93 93 91 88 87 88 93 95 96 95 97 96 98 98 98 98 96 93 92 91 92 96 97 98 98 98 98 98 98 98 97
75 71 70 58 58 66 70 93 88 63 54 42 57 87 85 87 89 90 90 90 88 91 84 85 85 86 91 94 94 95 94 93 98 93 96 94 93 87 87 92 96 94 98 97 98 96 97 98 95
84 78 88 58 53 56 65 77 78 69 62 40 38 36 43 52 81 86 87 86 86 87 86 85 72 84 85 85 88 86 87 87 89 86 89 94 90 86 83 87 88 87 96 97 97 97 97 97 97
91 93 85 65 52 52 49 56 65 59 58 39 37 39 33 38 38 47 74 85 78 84 85 87 83 88 90 93 94 93 92 96 88 83 81 85 87 87 81 78 78 87 88 92 92 95 95 96 96
98 94 80 70 60 56 56 52 45 40 43 45 42 43 41 34 34 40 33 53 48 53 50 74 90 90 91 94 95 97 97 97 97 97 92 84 81 85 85 85 82 83 87 89 96 91 96 89 84
82 84 80 67 54 59 60 57 48 41 45 43 49 46 44 35 35 38 40 39 52 50 44 44 48 51 86 97 97 97 97 97 97 97 94 94 94 85 88 88 92 92 88 82 89 93 93 94 96
81 84 84 64 51 58 60 59 51 46 50 47 44 48 44 37 36 38 48 57 58 63 59 50 45 44 47 68 85 96 97 97 96 96 96 96 96 97 98 96 95 94 95 94 94 96 96 96 98
86 87 82 70 60 58 61 62 55 47 54 47 44 45 45 39 38 48 56 62 66 67 67 60 55 47 47 47 54 61 94 98 98 98 98 97 96 96 97 97 98 97 97 97 95 96 96 93 98
92 72 68 62 68 79 59 87 60 50 50 52 47 46 46 42 44 54 58 61 65 70 66 64 58 56 53 54 54 54 62 95 95 87 88 79 92 96 96 97 97 97 98 98 97 96 96 97 96
80 80 67 68 76 80 71 83 70 53 64 53 46 47 45 46 49 55 60 64 70 71 71 68 66 68 71 71 60 62 62 68 71 69 69 75 91 92 94 97 97 98 99 98 98 99 98 98 97
81 68 74 88 86 96 75 78 76 56 48 46 50 50 42 53 58 62 69 72 76 74 72 72 69 72 76 83 86 79 75 77 83 88 87 87 93 95 93 97 98 98 98 98 98 98 99 99 98
80 90 99 99 99 95 77 75 56 49 45 44 44 50 51 59 67 74 79 79 73 74 75 68 71 76 79 86 91 91 92 93 94 96 97 95 96 97 96 96 97 99 99 98 98 97 98 98 98
92 81 94 91 96 89 79 88 63 50 45 43 44 49 64 72 76 81 83 79 74 72 74 75 78 81 83 91 94 95 95 97 98 96 97 97 98 97 96 96 96 96 94 89 95 97 98 98 97
94 99 78 82 85 94 78 65 45 46 49 53 60 68 76 78 81 81 81 74 76 77 78 80 81 87 93 91 90 88 87 84 81 80 82 82 78 72 92 92 92 92 93 95 95 98 99 95 95
86 84 94 97 96 90 79 77 55 54 55 67 72 70 74 75 76 80 76 76 80 77 78 76 78 85 84 83 84 86 86 83 81 80 80 77 75 74 78 81 82 82 86 94 95 97 94 90 95
97 99 98 95 84 84 80 62 53 49 51 66 69 72 72 71 73 81 79 78 77 74 74 75 78 83 84 83 85 88 89 88 87 86 86 84 81 79 78 78 80 84 88 92 95 96 92 90 91
74 78 88 97 91 89 90 68 47 52 54 62 70 68 72 71 76 77 79 81 78 74 74 76 80 84 85 85 88 92 93 91 93 94 92 89 90 87 88 87 89 92 93 96 96 96 92 89 92

GFSSGP_sfc_rhum_078.txt.gz
RH
66 64 68 49 50 70 73 53 56 40 36 31 33 34 40 74 56 54 92 94 95 93 94 91 88 87 87 87 86 87 87 84 79 75 72 72 72 70 73 70 68 66 67 68 68 65 63 69 71
73 60 57 63 63 69 58 59 48 41 33 46 53 64 77 85 89 95 96 92 90 92 94 94 89 89 88 88 86 86 83 80 78 76 74 70 69 71 76 72 70 69 68 68 68 65 64 69 66
69 62 56 67 81 70 52 47 53 42 41 34 54 73 80 86 95 93 91 90 93 96 95 94 91 90 89 89 88 86 83 82 79 76 71 69 67 71 77 74 72 72 71 68 67 65 66 68 71
65 66 64 74 82 63 51 48 51 44 35 33 64 81 83 84 89 87 80 86 95 97 97 94 92 91 91 91 90 86 83 78 76 74 74 71 69 71 78 74 76 75 73 69 66 66 70 72 72
68 70 75 88 81 66 59 51 51 46 38 34 66 85 89 86 92 92 84 89 85 96 98 96 92 91 91 91 90 86 81 76 75 74 77 72 71 75 80 79 77 76 74 70 68 67 71 72 72
87 83 86 78 77 59 51 56 52 45 40 37 82 91 91 91 93 87 88 96 88 90 98 95 94 93 92 90 88 86 84 80 76 77 80 78 75 80 82 78 77 76 75 72 69 69 70 72 71
84 78 82 62 62 59 51 65 56 55 47 33 80 93 95 97 94 94 96 97 97 97 98 99 97 95 94 92 89 87 85 83 83 86 85 82 86 81 80 77 77 76 75 73 72 70 70 70 70
88 77 84 78 54 60 66 62 62 62 58 48 78 89 95 92 94 96 97 98 98 98 93 93 98 97 97 96 91 88 86 86 88 90 87 87 91 88 84 87 85 79 76 75 75 72 71 74 76
89 86 86 78 66 56 68 66 64 59 55 51 94 95 89 94 97 97 97 95 95 90 82 80 98 98 97 96 91 90 88 87 88 94 94 95 96 94 94 93 89 86 80 75 74 74 74 84 87
92 89 79 65 70 70 69 68 77 67 66 62 64 80 96 97 97 91 92 92 88 85 79 77 91 99 98 88 95 95 91 95 94 95 96 98 97 97 94 95 90 86 85 84 76 77 83 90 96
92 83 65 85 85 75 71 72 73 76 63 62 72 58 77 91 97 89 89 86 85 80 80 81 88 98 98 96 99 99 99 98 97 93 96 97 97 98 99 99 98 97 94 96 92 93 96 96 96
90 76 68 89 86 75 75 68 71 80 66 61 60 55 72 90 92 89 88 88 96 93 85 84 97 98 98 99 99 98 99 99 99 97 94 97 98 98 99 99 98 98 98 97 96 98 96 97 96
65 64 72 84 73 70 67 74 76 71 60 57 50 72 96 98 97 92 91 97 97 99 98 99 99 98 98 98 99 99 99 98 98 98 96 95 96 96 97 98 98 98 98 98 97 98 98 98 97
71 60 80 84 72 70 74 80 73 51 59 58 55 50 94 97 97 98 97 97 96 95 96 97 98 98 98 98 98 98 99 98 98 98 97 95 95 93 92 95 97 98 98 98 98 97 98 98 98
67 87 84 86 80 78 78 81 85 62 58 64 59 48 79 93 95 94 95 96 94 93 90 94 96 96 97 96 97 98 98 96 99 98 97 96 95 96 90 93 96 96 97 96 98 97 97 98 96
78 76 91 81 81 81 76 87 75 66 74 71 58 47 43 76 89 89 90 92 91 90 90 88 78 92 96 96 97 98 98 98 98 98 98 97 96 95 95 95 95 94 97 97 98 98 98 98 98
89 94 85 84 75 86 79 73 65 81 78 74 62 48 38 42 43 77 86 91 90 93 91 91 87 92 93 94 96 96 93 94 92 95 95 94 96 95 93 90 91 93 96 97 96 97 97 97 97
92 85 84 84 68 77 87 59 74 80 82 75 66 48 40 39 35 35 39 54 54 72 89 92 92 92 93 96 96 97 97 97 97 96 88 88 89 94 94 94 90 89 94 96 97 95 97 96 95
82 83 84 77 61 64 74 60 72 70 85 84 64 50 42 42 38 39 44 47 47 47 48 57 91 90 96 97 98 98 98 98 98 98 95 95 90 88 95 96 95 93 91 89 94 95 95 95 97
81 84 86 75 59 67 64 61 52 50 62 61 54 40 48 47 42 42 45 52 52 55 52 47 47 47 57 89 96 97 97 97 96 96 96 96 96 96 96 95 95 95 96 95 95 96 97 97 98
88 87 84 78 63 68 64 65 62 51 47 46 44 45 47 47 41 42 56 58 64 61 60 56 50 48 49 50 58 65 94 97 98 98 98 97 97 97 97 97 98 97 98 97 96 97 96 96 98
90 78 70 66 69 82 64 85 66 49 51 51 44 46 47 46 45 47 58 67 67 68 66 58 58 59 57 56 53 56 67 91 96 88 80 76 88 94 97 98 98 98 98 99 98 98 97 97 96
81 77 72 74 82 80 80 84 67 57 55 46 39 46 50 48 45 51 62 64 73 74 72 70 69 69 72 69 59 61 62 71 74 73 71 76 92 93 94 97 98 99 99 98 98 99 99 98 98
76 75 81 89 85 92 80 81 77 59 48 44 45 46 44 47 48 57 69 79 82 80 77 75 74 78 82 83 83 74 72 80 84 89 91 94 95 95 94 96 98 98 99 99 99 98 99 99 99
77 84 98 98 98 92 82 87 59 54 43 41 38 40 50 49 59 68 82 83 80 79 77 75 77 82 87 91 92 92 93 93 94 96 97 96 97 97 97 97 97 95 92 95 98 99 99 99 99
88 85 94 91 97 93 82 91 62 52 46 42 41 45 47 62 74 82 85 84 82 78 80 81 83 87 92 94 96 96 95 96 96 96 96 93 95 95 96 96 95 94 93 88 91 96 96 98 97
98 97 70 87 89 94 81 74 50 47 45 45 48 55 60 69 80 88 90 84 81 81 82 85 88 94 93 92 87 86 84 81 81 80 80 80 78 69 84 85 86 87 91 95 95 96 97 95 96
87 83 94 96 98 93 81 79 64 46 43 49 59 68 72 77 88 92 88 84 85 84 87 86 90 90 90 90 88 87 88 85 84 83 83 80 78 77 80 81 84 86 90 95 96 98 88 89 95
96 98 94 87 85 90 84 65 55 52 43 46 58 73 82 87 86 89 86 86 85 84 83 86 89 88 87 86 90 92 92 90 89 89 88 87 85 84 84 84 87 91 94 95 96 95 88 89 91
74 77 86 95 90 91 92 62 46 48 50 52 68 79 84 80 86 86 87 89 84 80 81 85 90 90 89 90 93 95 94 94 96 96 96 93 94 93 94 94 95 96 96 96 97 96 88 89 91

GFSSGP_sfc_rhum_081.txt.gz
RH
65 57 56 48 44 47 43 40 40 34 26 24 28 27 31 46 42 40 78 77 72 76 73 74 89 87 86 86 85 87 86 83 79 74 72 72 70 73 70 67 66 67 68 67 66 66 70 70 68
66 54 51 53 48 46 40 44 37 33 28 30 43 50 52 56 76 88 81 81 73 74 73 72 90 88 88 88 86 86 82 79 77 73 72 71 70 76 72 70 68 68 69 69 66 68 71 69 67
59 53 49 54 56 44 36 40 43 39 36 30 35 57 62 66 85 78 73 78 73 76 75 76 88 90 89 89 88 86 84 80 78 75 70 68 71 77 74 73 72 71 68 67 66 67 68 73 74
57 56 53 49 57 50 40 41 42 37 31 25 50 62 67 71 78 72 76 75 77 79 74 85 90 90 91 90 89 86 84 78 76 74 73 69 71 78 74 76 75 74 70 66 67 70 73 74 74
59 57 62 66 60 53 47 42 42 37 34 27 47 61 75 75 74 76 75 75 77 81 75 76 92 91 91 91 90 87 82 78 75 77 73 71 72 78 79 78 78 76 71 67 67 71 73 74 74
80 63 63 64 63 52 44 51 41 42 38 28 60 72 78 84 81 78 79 78 74 81 80 75 92 92 92 90 88 85 83 81 79 82 77 75 75 82 81 78 78 77 73 69 68 71 72 72 72
82 78 66 57 57 48 46 51 48 48 38 35 65 72 80 87 85 88 82 74 75 77 81 78 77 84 94 92 89 87 85 84 83 85 84 84 85 86 80 79 78 77 75 74 72 71 72 72 72
82 83 65 60 55 49 59 54 53 55 44 38 68 66 73 81 92 92 88 85 80 80 80 81 78 77 78 77 91 89 86 87 91 90 89 90 88 88 84 84 84 78 76 76 74 72 74 76 76
75 87 76 62 56 54 62 54 58 54 48 53 64 78 84 84 91 93 96 88 84 86 77 82 82 77 77 75 77 85 87 89 93 88 92 89 76 76 78 89 88 86 79 76 74 74 75 86 86
84 86 70 56 57 66 64 63 67 52 43 49 48 44 47 92 91 92 90 92 87 86 78 76 86 81 78 74 71 70 68 66 72 75 74 73 75 75 77 86 90 86 86 84 76 76 81 84 66
84 78 68 83 73 64 66 67 64 58 50 60 61 54 52 82 92 85 84 81 80 78 79 80 84 86 80 75 76 74 72 71 68 73 77 77 78 79 77 78 75 76 86 70 71 71 70 73 68
83 70 70 84 77 69 73 62 61 63 55 55 54 52 60 61 90 84 86 82 80 78 76 78 82 90 83 78 76 74 74 75 73 70 72 73 74 79 80 79 80 80 75 75 73 71 70 72 72
64 71 76 77 66 68 65 73 65 63 56 52 51 52 52 79 84 82 83 78 81 82 79 82 87 87 84 83 81 79 76 75 72 76 70 68 70 70 72 73 75 76 76 74 72 71 68 68 68
59 71 82 70 71 71 69 77 68 59 54 52 53 52 52 63 85 86 84 85 87 86 85 84 87 86 83 82 82 79 78 76 77 77 75 73 69 69 70 67 68 69 69 69 68 67 67 66 67
66 86 79 81 73 78 57 64 70 61 60 59 61 55 51 42 79 87 85 90 88 88 81 86 88 85 84 82 81 79 79 78 79 77 76 76 74 73 70 67 66 65 66 68 70 70 70 70 66
73 80 89 82 76 83 56 71 56 68 64 64 61 55 54 43 47 80 85 85 86 82 81 79 79 86 84 82 80 78 78 77 77 77 77 78 76 76 74 73 70 66 68 69 70 70 71 70 68
81 90 82 91 73 86 70 71 53 70 71 61 58 57 55 48 35 35 75 83 82 84 80 79 77 82 84 84 80 82 79 77 75 76 76 78 78 78 78 75 73 71 71 72 71 69 71 68 66
91 85 76 85 83 86 83 82 66 72 73 63 59 58 57 53 40 31 36 59 76 82 81 78 77 78 78 83 83 85 85 79 82 74 72 75 72 76 80 79 76 72 74 73 73 71 72 70 68
71 70 66 67 63 80 84 75 67 75 74 78 64 60 57 53 38 30 32 38 47 50 66 76 81 81 82 84 86 88 86 88 87 86 80 77 75 74 80 78 79 77 75 73 72 74 78 76 76
72 77 76 64 61 70 74 81 61 73 73 70 67 56 54 46 35 33 33 37 39 42 46 48 71 72 80 82 83 83 83 84 81 85 83 83 83 86 82 80 81 82 84 80 79 81 82 81 84
80 79 76 71 57 58 66 71 65 57 64 66 64 56 48 42 37 35 33 40 50 47 47 43 43 44 46 54 57 61 80 87 89 90 89 85 86 88 88 88 86 85 86 87 84 83 84 87 87
83 70 66 64 70 84 56 83 65 57 68 57 55 45 41 42 39 39 39 47 51 54 58 51 50 50 49 48 47 49 60 76 84 78 67 64 77 80 86 92 93 94 94 94 90 89 89 90 93
75 70 68 67 70 69 67 73 62 52 59 51 47 43 39 41 39 37 41 53 56 64 62 63 62 64 65 55 50 50 51 57 60 59 58 62 77 78 80 87 89 92 96 94 92 92 94 93 90
71 73 75 79 75 90 74 70 68 56 44 41 40 38 37 37 40 38 49 62 66 69 69 69 68 72 72 71 68 62 62 65 66 72 72 75 77 79 81 82 87 90 92 97 96 94 94 95 94
72 79 94 95 96 90 72 79 58 46 46 40 38 36 39 38 42 45 60 70 72 73 72 70 70 75 75 76 77 78 80 79 80 82 80 79 79 80 83 84 83 85 85 88 94 97 97 97 97
85 80 89 93 91 82 72 79 57 47 43 41 38 40 42 46 48 54 63 69 70 72 71 70 72 78 79 80 83 81 80 78 77 78 75 69 71 73 75 76 76 76 78 81 88 93 96 96 97
89 92 69 84 81 84 67 62 44 42 39 40 40 44 46 45 57 62 73 72 71 70 71 71 76 82 80 77 72 70 67 68 68 67 65 65 64 60 68 71 72 75 79 81 83 88 92 89 90
83 75 88 96 97 92 72 64 50 41 39 37 36 43 50 57 68 80 77 74 72 71 74 75 77 77 77 74 71 72 71 70 69 68 69 69 66 67 69 71 72 74 78 81 84 88 83 83 85
94 93 89 80 79 84 74 53 47 46 42 38 39 42 58 68 79 82 76 74 73 73 73 76 75 75 75 73 74 74 74 75 73 73 74 73 73 73 74 74 76 78 79 80 84 80 79 80 82
73 81 78 87 86 86 77 62 39 40 43 47 47 58 71 75 80 78 76 76 73 72 72 74 75 73 73 74 75 76 77 78 79 80 80 77 78 77 78 78 79 81 83 82 82 81 80 82 86

GFSSGP_sfc_rhum_084.txt.gz
RH
57 40 34 33 28 25 21 23 25 23 18 18 20 16 21 28 27 33 53 48 42 47 52 64 86 85 83 84 84 86 85 82 78 74 72 72 72 70 67 67 68 68 66 66 70 70 70 68 68
48 38 34 31 26 26 21 22 24 24 22 23 30 30 26 28 45 61 56 53 45 47 51 54 88 86 86 86 84 84 80 78 76 73 72 72 75 72 70 68 68 70 69 67 71 72 69 68 67
46 36 31 28 24 25 20 24 28 27 23 27 27 36 37 43 55 50 45 50 44 47 48 56 88 87 87 87 87 84 80 78 76 74 71 72 77 74 72 71 69 68 69 68 69 70 74 74 74
40 35 30 28 27 23 24 28 30 25 22 21 26 38 48 56 55 46 48 47 45 46 47 79 91 90 90 89 88 85 82 78 75 72 70 72 77 75 75 75 72 70 69 68 70 74 75 75 77
38 35 32 30 27 27 28 32 30 26 24 23 32 42 52 58 54 52 54 54 45 45 48 60 90 91 91 90 88 87 82 77 75 74 71 72 77 78 77 77 75 70 68 69 72 73 74 75 78
52 35 34 33 29 34 30 32 29 28 24 28 35 41 54 69 66 67 66 59 59 46 53 57 89 92 92 90 90 85 84 80 78 78 75 74 80 81 79 79 78 72 69 69 72 73 73 73 77
55 41 35 29 32 34 32 31 29 29 22 32 45 41 61 72 73 78 69 60 62 47 51 52 59 77 95 92 88 87 85 84 85 84 82 84 87 84 80 79 78 76 72 71 72 73 73 72 72
58 47 35 34 35 30 36 37 38 33 32 39 55 54 61 70 86 86 74 71 64 53 50 49 54 57 59 64 91 89 87 87 86 86 89 92 91 88 86 86 82 78 77 75 73 73 74 75 73
60 77 56 41 40 31 40 36 44 39 38 41 39 47 52 60 86 87 89 83 76 68 58 48 51 53 53 56 68 85 88 93 91 87 93 86 53 58 65 87 88 83 78 76 75 74 79 83 82
74 73 50 32 32 33 40 34 40 35 38 40 36 35 49 84 88 92 86 86 82 72 69 60 53 53 56 54 56 51 52 51 49 52 54 46 50 50 54 76 89 84 83 79 75 76 80 83 43
54 78 47 40 34 35 41 44 45 32 42 42 43 39 51 79 91 89 79 81 74 68 67 69 67 56 56 56 52 49 48 44 44 48 49 47 49 54 50 51 53 53 79 49 57 57 45 46 42
66 51 49 55 56 46 44 41 42 44 41 40 40 37 48 60 86 85 78 71 69 68 69 70 65 63 57 53 53 49 49 49 47 46 44 46 47 50 47 45 47 49 44 46 47 40 41 45 44
56 53 55 63 53 50 49 48 36 42 42 40 38 36 38 50 75 77 71 64 64 68 67 68 71 65 61 60 53 52 50 51 49 51 49 48 51 50 49 48 44 44 45 46 45 44 38 39 39
50 50 54 52 54 50 49 53 51 39 40 39 39 37 37 37 48 72 66 65 70 70 68 67 72 72 63 59 57 54 52 52 53 52 54 53 50 52 54 51 49 46 46 46 47 44 44 40 39
43 56 60 58 51 53 45 50 56 34 40 38 36 36 36 38 35 53 61 69 70 77 71 69 71 72 64 58 59 56 56 54 55 54 53 56 56 57 56 53 51 49 48 48 48 49 50 49 46
50 45 58 53 56 54 49 52 33 37 37 34 32 32 35 36 35 29 55 59 62 66 68 61 64 68 59 60 60 56 55 54 54 53 53 55 56 58 58 56 54 51 51 53 52 51 53 53 51
60 52 48 65 54 54 52 45 35 40 40 35 30 29 32 35 37 30 26 58 59 63 67 67 66 62 62 63 60 58 57 55 53 54 54 56 55 56 58 56 55 53 55 56 57 56 56 55 54
69 49 48 48 57 56 51 48 39 44 47 36 28 27 32 34 35 33 26 39 61 64 68 67 69 62 60 62 65 64 64 57 54 55 54 56 54 56 59 58 57 56 58 59 59 60 56 57 55
45 48 48 45 49 53 49 47 40 37 44 42 36 30 29 33 30 34 26 24 50 69 74 75 73 67 62 66 68 69 71 70 65 62 61 59 60 58 58 58 58 60 62 58 58 57 61 63 59
47 44 46 50 47 55 47 50 40 38 42 39 37 35 29 31 32 34 26 24 32 51 60 72 75 70 72 69 62 62 62 63 61 68 67 64 64 66 68 67 66 68 68 65 64 65 70 68 66
48 42 47 47 46 50 52 48 45 40 40 39 38 41 33 31 34 34 29 26 30 34 43 46 57 67 70 72 70 68 69 72 71 70 71 69 70 73 75 76 75 74 74 75 70 69 74 78 74
59 51 49 52 52 57 48 46 41 35 39 41 37 37 37 37 36 35 31 30 32 36 45 40 40 45 48 50 56 62 62 66 63 66 63 60 62 66 76 84 87 89 91 90 88 88 86 87 83
51 54 52 53 52 53 54 61 34 36 38 37 36 35 37 38 34 34 32 32 35 43 48 43 41 41 41 37 35 35 37 39 44 44 48 50 59 64 67 71 76 79 85 90 90 92 89 85 84
56 55 53 52 50 68 39 50 35 33 30 30 31 31 37 36 33 31 29 32 39 52 54 55 50 51 50 47 42 40 42 40 43 50 50 52 56 61 65 68 71 76 79 81 87 91 94 94 91
56 58 83 82 86 61 49 51 32 25 29 27 27 25 27 33 32 29 32 38 43 54 56 56 53 55 54 54 53 52 55 54 55 57 55 56 56 60 62 67 66 70 74 76 80 87 94 96 98
55 51 62 69 54 42 56 51 28 26 27 27 27 26 29 28 32 34 31 37 45 51 53 50 51 56 55 56 58 56 58 55 55 57 54 51 52 55 59 59 61 62 64 69 77 88 92 92 95
71 88 52 70 59 61 40 41 32 24 27 27 28 30 31 29 32 39 38 41 44 50 51 50 52 57 58 58 55 54 53 55 55 54 52 51 51 49 54 58 60 61 63 66 71 76 82 86 90
65 48 76 90 85 67 47 43 28 25 25 23 22 24 25 31 33 37 45 52 50 50 52 53 51 54 56 55 53 54 54 54 55 53 54 54 52 53 55 57 58 59 62 64 69 75 78 79 83
83 75 69 54 54 60 43 32 26 29 25 27 24 29 36 37 41 44 50 55 55 54 56 54 55 56 56 54 55 56 56 57 55 55 56 57 57 58 58 58 59 60 61 63 66 67 68 70 72
59 56 55 69 66 58 58 40 27 26 27 30 30 39 47 50 49 51 54 56 56 57 57 54 54 53 54 55 54 56 57 57 57 58 60 58 59 59 61 60 61 62 65 64 65 68 69 71 74

GFSSGP_sfc_rhum_087.txt.gz
RH
57 38 29 34 34 24 22 20 15 18 16 14 14 15 24 29 27 50 37 31 39 45 50 64 86 86 81 82 82 83 82 79 78 72 72 72 68 67 68 68 67 66 69 73 68 68 67 68 69
38 32 32 27 33 25 20 15 21 17 14 16 17 22 22 35 39 47 43 34 38 42 52 53 87 85 85 84 83 81 79 76 76 74 73 74 71 69 68 68 70 70 70 71 71 69 68 68 67
45 28 30 30 26 24 18 15 16 19 19 18 18 22 23 43 41 40 35 36 36 41 46 54 86 87 87 86 84 81 79 75 74 74 73 77 73 70 70 68 69 70 71 71 72 74 75 75 73
39 32 29 30 27 20 16 16 21 20 18 17 16 22 40 43 41 37 38 34 36 38 40 81 89 89 89 89 86 82 78 77 74 71 73 78 75 73 73 70 70 71 74 72 74 75 76 78 75
38 30 32 33 26 18 18 22 23 19 18 18 22 33 46 52 44 40 40 35 36 36 51 64 90 90 90 89 87 86 80 76 74 72 71 78 79 76 76 73 71 70 72 73 74 74 75 78 78
52 36 39 32 26 20 21 23 22 21 19 22 28 30 58 55 51 43 40 35 34 39 53 62 90 92 90 88 88 86 83 78 77 76 74 76 80 78 78 77 72 70 70 72 74 74 74 78 78
65 41 38 28 26 27 26 23 21 23 19 30 33 30 62 71 75 67 60 48 35 43 53 59 63 80 94 93 88 87 84 84 84 81 81 85 86 82 79 79 77 71 70 72 74 73 73 72 75
52 47 34 27 28 31 24 26 28 26 32 37 43 38 65 70 82 78 66 65 41 46 56 58 60 59 61 68 90 89 88 87 88 87 91 93 90 88 85 86 82 77 74 73 74 74 74 74 73
54 70 50 29 29 29 26 31 33 32 35 35 34 38 48 55 82 84 80 76 51 42 55 55 57 55 55 58 70 85 88 90 92 89 94 90 60 66 68 88 88 82 77 75 73 73 79 80 80
74 69 43 23 22 30 30 24 30 30 34 38 34 37 63 74 86 88 85 82 75 54 61 49 57 55 60 60 59 52 54 55 55 54 61 49 44 50 50 78 89 83 81 79 75 76 80 82 46
55 62 34 38 48 32 36 29 29 24 35 36 40 39 68 85 85 85 82 71 74 56 54 66 66 54 59 59 51 44 47 44 43 44 44 39 41 50 49 57 60 60 81 57 63 67 54 42 40
65 46 54 39 56 37 37 29 31 25 33 32 34 37 56 81 86 90 72 74 64 70 60 72 58 63 55 54 56 40 42 42 41 42 41 40 41 44 41 41 43 45 43 41 43 38 38 41 40
57 65 46 49 44 36 32 36 29 34 35 33 33 33 40 62 73 79 76 64 60 63 55 60 57 60 60 57 51 41 41 44 43 44 40 40 44 45 44 44 41 40 40 42 42 41 36 36 34
42 70 50 56 47 41 42 37 43 29 32 34 35 32 35 39 51 70 70 70 68 67 67 62 60 62 52 57 60 46 42 45 45 47 48 45 45 47 48 47 45 43 44 44 45 42 42 40 37
34 55 55 46 53 46 39 43 50 26 31 31 34 32 32 36 36 52 57 57 63 69 64 63 64 65 61 60 60 57 55 52 46 46 46 49 49 50 50 49 49 47 45 44 44 46 48 48 46
40 44 69 54 45 41 43 43 32 28 30 31 27 26 30 32 34 32 43 49 49 58 63 63 66 69 65 61 60 56 57 48 45 45 45 47 48 52 52 52 51 48 49 51 51 50 51 52 52
48 47 49 49 39 40 46 41 27 26 33 33 27 23 25 28 32 30 29 40 47 50 56 58 67 62 62 62 63 61 57 49 45 46 45 48 48 50 54 53 52 49 52 52 54 54 54 55 54
52 37 31 37 46 43 48 43 27 31 38 34 28 23 22 25 31 30 28 27 48 50 57 59 59 57 54 66 68 75 71 57 59 48 47 49 49 50 54 53 52 51 55 57 56 57 56 57 59
30 33 28 27 35 46 45 39 33 28 34 37 30 25 21 22 26 30 28 24 38 57 56 60 59 62 64 67 68 77 73 73 62 55 54 52 53 53 56 57 55 55 58 57 56 58 62 65 62
41 34 37 38 36 41 35 36 30 28 28 30 30 26 24 21 23 32 29 24 24 50 60 62 62 66 66 66 64 66 76 76 71 72 65 63 61 63 62 61 60 62 65 63 62 64 69 69 67
40 37 45 40 40 39 38 42 35 28 27 27 29 28 28 28 21 26 31 29 26 36 49 59 64 65 67 68 76 85 86 85 71 68 67 65 64 67 73 75 76 78 79 76 71 72 74 79 80
46 34 32 40 46 49 37 37 23 23 28 30 29 29 27 32 26 24 30 31 31 34 46 43 53 64 72 75 80 82 80 79 75 72 67 67 62 65 71 80 84 88 91 92 91 92 93 92 92
42 42 43 44 47 46 46 52 30 24 29 27 26 27 26 29 32 28 32 34 36 44 51 43 41 46 48 53 59 65 68 60 59 49 52 51 58 60 63 66 69 73 78 87 90 92 91 90 91
46 46 44 47 52 86 42 45 33 25 26 24 21 22 24 26 30 31 31 32 33 45 52 50 44 42 42 41 39 41 43 40 45 48 46 46 50 58 61 64 67 72 74 78 81 85 89 94 95
48 48 80 81 88 65 32 33 31 20 20 21 21 20 22 23 26 30 32 31 33 49 53 54 50 51 47 46 43 43 46 46 49 54 52 50 50 57 59 64 64 66 71 74 75 77 76 87 93
48 48 60 61 47 38 41 43 29 19 18 16 21 23 24 23 26 31 34 32 35 48 56 52 48 48 49 50 51 50 51 52 52 53 52 50 51 54 56 56 59 59 61 66 72 81 88 92 96
59 71 39 59 46 50 34 31 23 20 23 24 24 25 26 24 26 30 37 38 34 44 48 47 47 51 51 51 51 49 49 51 52 52 51 51 50 48 49 54 56 57 60 63 67 74 80 87 92
74 46 71 80 74 55 27 33 26 21 21 20 20 20 21 22 25 26 33 44 37 42 45 46 46 51 51 50 47 50 50 51 52 51 52 52 50 51 53 54 55 56 58 60 64 74 76 80 85
68 72 60 52 40 51 35 31 22 22 21 24 24 29 31 31 28 28 31 44 46 45 48 49 49 51 51 50 50 51 52 53 51 52 54 55 54 55 55 55 56 56 57 57 62 65 67 69 73
54 53 49 68 59 52 50 43 21 22 23 25 29 35 37 40 39 37 37 45 50 53 55 52 52 52 51 50 50 52 54 53 53 54 55 54 55 55 58 57 57 58 61 61 61 64 66 67 71

GFSSGP_sfc_rhum_090.txt.gz
RH
64 53 53 53 67 52 40 31 22 24 23 21 20 33 46 51 61 78 47 50 59 67 74 80 86 85 82 83 82 81 82 82 79 76 70 67 68 69 69 68 68 73 69 68 68 67 69 69 68
52 42 48 55 54 46 34 21 29 27 22 20 30 32 41 63 50 48 52 51 54 62 71 77 88 84 85 86 82 84 82 80 79 79 74 70 68 68 69 67 70 72 67 70 69 68 69 70 72
60 47 55 58 47 42 29 21 24 24 22 24 25 45 47 56 47 49 46 47 51 61 62 75 88 87 87 87 85 83 81 77 78 80 80 73 71 68 68 71 71 73 72 73 74 75 76 74 75
57 50 48 43 43 31 24 18 19 25 25 20 24 57 57 54 51 45 42 44 54 56 63 87 90 90 89 88 86 84 78 77 76 78 82 77 74 70 67 71 73 76 78 74 75 77 79 76 78
50 47 58 50 38 25 24 26 27 24 22 25 26 62 72 57 54 46 42 43 50 57 77 85 90 90 90 88 87 84 79 74 74 76 80 78 76 74 70 71 73 75 75 74 75 77 79 79 80
84 57 54 50 38 24 29 29 32 27 23 30 33 69 81 75 62 50 44 44 50 71 73 82 91 91 91 89 89 85 83 80 79 79 82 80 78 78 75 71 71 74 74 75 75 75 78 78 78
82 73 60 42 35 29 30 26 28 28 25 43 47 74 82 88 83 69 52 43 59 62 74 82 86 90 92 92 89 87 85 85 84 83 85 85 85 82 79 75 71 72 74 76 76 75 74 76 77
78 80 62 42 32 36 30 30 31 37 43 43 45 75 88 90 85 82 72 59 56 61 68 78 84 82 85 92 90 90 89 90 88 88 93 92 90 88 86 87 82 74 75 76 76 76 75 74 74
70 87 72 53 39 37 29 40 38 36 41 40 43 63 66 85 87 88 88 80 65 65 67 72 75 74 72 82 87 90 88 90 90 93 94 94 88 88 91 89 88 85 80 76 75 76 80 82 81
81 87 62 40 52 40 31 34 36 40 44 43 50 72 72 88 92 93 90 88 78 72 69 70 67 64 67 65 85 77 79 87 84 83 94 82 77 80 77 92 90 86 84 82 78 78 84 85 79
75 74 49 40 55 59 42 30 30 37 47 43 49 79 87 89 94 92 85 85 86 67 70 71 70 62 67 66 74 64 72 71 70 74 77 74 69 79 84 97 96 97 92 88 87 90 88 77 67
89 62 57 54 57 60 51 36 38 36 46 39 43 68 82 88 93 90 86 80 83 77 78 77 74 72 70 66 71 56 64 64 64 65 63 62 68 71 69 82 81 83 82 80 82 83 74 58 56
78 70 58 65 55 59 51 51 36 47 41 37 36 55 74 83 85 86 85 79 75 78 72 78 73 77 73 63 70 59 61 61 60 62 57 59 65 66 66 65 63 64 64 63 66 62 56 54 53
67 67 74 71 55 50 46 46 49 43 40 40 38 43 55 74 75 81 81 78 81 72 70 73 73 72 75 73 72 62 60 60 62 64 64 57 66 68 68 68 66 65 66 67 66 65 61 60 54
62 76 76 84 61 49 45 52 56 43 39 41 41 41 45 48 62 73 78 76 78 82 80 83 67 63 73 67 77 65 72 56 62 67 62 62 64 67 71 72 71 67 65 62 66 67 67 70 64
65 80 88 69 54 55 53 62 46 39 42 43 42 41 41 44 44 50 67 65 73 81 78 76 78 72 71 70 76 67 67 65 63 64 65 63 63 67 72 74 74 71 70 72 74 73 76 77 76
56 77 84 76 71 56 58 59 35 36 36 42 40 36 39 44 43 40 46 62 64 68 74 79 80 75 74 80 81 78 65 64 60 61 61 62 62 65 74 75 74 68 73 75 76 78 78 81 81
64 51 48 62 68 57 71 57 42 32 42 56 46 40 35 38 42 39 36 40 59 62 73 80 82 79 77 83 86 88 83 70 66 63 63 60 62 65 73 75 73 68 75 80 81 80 81 81 81
39 44 40 42 52 62 51 48 46 35 47 50 47 41 35 32 38 40 34 32 50 70 73 77 79 79 84 90 92 96 93 91 81 72 63 61 62 63 68 76 73 76 78 76 78 72 77 84 85
54 43 43 51 52 61 48 49 40 36 36 44 44 42 38 33 37 43 37 32 54 76 78 78 75 83 86 83 86 95 94 94 92 89 82 81 83 78 80 80 78 74 78 83 85 83 87 86 88
52 52 51 55 47 49 54 54 42 33 31 32 35 37 36 35 38 44 39 36 36 60 75 78 83 83 82 83 94 98 97 96 93 92 92 89 78 83 89 89 90 91 91 90 86 86 87 90 86
58 39 55 57 59 73 48 75 47 37 36 33 36 39 40 37 38 41 42 42 39 42 69 72 77 85 89 95 97 94 95 97 97 94 93 86 78 79 81 85 88 93 96 97 96 95 96 96 96
52 44 52 57 57 62 60 76 52 36 40 36 34 36 39 38 38 42 42 45 46 62 68 64 61 75 86 85 91 95 92 93 86 86 80 73 74 74 76 79 84 90 93 93 95 96 96 97 97
47 57 51 56 63 97 69 64 60 40 33 35 34 33 34 36 39 43 46 45 53 71 70 66 63 60 58 71 70 77 82 62 60 68 66 66 73 78 78 74 82 86 90 92 93 92 92 95 97
60 68 94 96 94 92 43 57 49 34 28 30 31 34 34 34 41 43 50 49 56 72 73 69 61 62 61 56 52 52 56 52 58 64 66 69 69 76 76 75 78 81 81 86 90 93 92 89 92
68 68 86 78 80 65 41 64 42 26 28 28 28 32 34 32 38 44 48 48 55 70 68 67 68 66 63 64 66 66 68 71 71 66 68 66 69 73 67 69 72 72 74 78 82 89 91 96 97
70 80 55 90 66 80 60 47 33 26 30 34 35 36 39 37 36 61 50 51 59 64 62 62 60 63 64 67 65 65 67 65 70 66 64 64 65 54 62 65 68 70 72 74 78 87 92 93 96
84 66 82 95 93 74 45 39 41 33 29 32 33 37 38 35 37 41 46 55 56 60 60 60 62 66 65 62 62 60 62 64 64 64 66 66 63 64 66 66 68 69 70 72 78 89 82 88 92
88 97 90 69 67 81 69 52 35 32 34 35 42 44 47 44 40 40 46 52 57 66 63 58 62 64 64 60 62 64 65 64 64 68 68 66 66 67 68 68 68 70 71 72 76 83 82 83 84
57 69 80 97 79 73 85 66 31 33 32 32 45 47 51 54 53 49 54 63 66 73 73 68 70 66 63 60 60 64 66 65 68 68 68 67 70 70 72 72 72 73 76 79 82 82 81 85 89

GFSSGP_sfc_rhum_093.txt.gz
RH
67 70 75 59 56 70 60 37 29 24 25 28 25 54 80 74 68 72 68 78 84 87 83 82 86 83 82 82 79 78 82 81 77 72 69 70 71 71 71 73 70 67 69 68 68 68 67 65 64
68 60 65 63 67 61 47 32 29 25 27 32 30 61 73 80 55 74 86 78 79 83 83 84 86 85 85 84 82 82 82 80 80 76 69 68 69 66 68 69 66 70 69 69 69 71 73 73 72
69 64 66 74 55 63 41 26 25 30 25 23 37 44 74 72 57 62 69 72 77 81 83 83 87 87 86 86 85 84 83 81 82 79 75 68 68 69 70 74 68 72 72 72 74 75 76 79 78
77 87 68 61 62 44 36 31 24 28 23 20 52 75 75 71 62 61 62 70 77 80 86 90 89 88 88 88 85 82 79 79 82 82 78 71 66 70 72 74 75 78 78 75 78 77 78 80 81
93 92 88 79 54 39 29 31 35 30 25 24 44 74 88 74 68 56 61 65 72 85 90 90 91 90 89 88 86 83 79 79 82 82 78 74 68 69 74 75 76 76 76 76 77 78 78 81 78
94 87 70 77 55 36 30 27 35 33 30 36 70 84 91 87 81 58 59 63 77 85 88 86 92 91 90 89 86 83 81 82 84 85 80 77 73 69 72 75 76 76 76 75 76 78 78 78 75
96 90 84 64 51 39 34 28 30 32 45 61 63 90 89 86 91 78 62 75 79 85 91 94 91 92 94 91 89 86 85 84 85 87 85 84 83 78 72 73 75 75 76 77 76 76 78 77 76
89 89 80 72 51 48 35 40 40 41 52 46 60 97 95 88 91 81 73 77 84 86 94 97 97 94 98 92 92 91 90 89 90 91 92 92 90 88 84 83 80 77 78 78 78 76 74 74 73
85 93 87 71 53 49 43 44 39 40 48 58 66 74 83 88 85 84 80 81 84 86 91 94 93 93 94 94 90 92 93 92 93 96 94 94 95 93 90 90 86 84 81 78 78 78 79 81 79
91 93 76 62 62 43 43 40 40 47 48 77 94 81 90 91 88 87 87 87 86 89 91 89 88 87 87 75 93 95 91 96 96 97 95 96 96 94 86 93 90 87 86 84 79 80 84 84 86
84 83 67 72 60 51 46 40 39 50 56 52 97 98 98 96 91 93 88 85 81 82 83 86 83 78 80 81 89 89 92 96 94 95 96 91 86 95 97 99 97 97 93 95 92 93 94 89 84
84 72 75 73 72 53 60 49 40 47 52 48 84 90 91 95 90 92 92 86 81 84 80 82 76 76 73 78 80 78 78 86 88 87 86 88 91 92 98 99 98 97 96 95 95 97 91 85 76
86 70 69 79 78 65 59 67 55 55 48 51 79 83 90 86 87 87 88 85 78 84 86 80 80 76 77 70 79 73 77 73 74 77 77 71 80 80 82 93 94 95 92 90 93 87 78 74 62
78 75 72 72 73 72 61 65 73 53 48 45 72 84 90 89 87 89 90 87 85 82 84 85 82 82 78 77 79 70 63 65 69 72 68 65 72 72 75 76 74 74 74 72 74 70 68 63 62
64 83 76 66 79 78 66 76 78 51 47 47 50 65 81 82 84 84 83 80 83 84 83 86 84 80 83 78 80 70 70 63 71 68 63 66 71 74 74 76 75 72 73 70 75 75 74 76 72
82 80 86 76 78 68 83 79 72 49 53 54 52 55 54 59 78 78 80 74 84 82 81 81 78 74 74 81 84 75 73 65 67 60 69 65 66 71 76 77 81 74 74 75 79 79 81 82 84
72 95 88 80 78 80 72 76 54 45 50 51 55 54 54 55 53 57 74 78 84 82 81 81 84 78 74 82 85 82 70 68 69 68 65 70 68 70 77 78 78 76 79 81 80 84 85 88 87
75 78 85 83 77 76 83 77 57 45 47 53 53 51 50 55 52 46 55 67 79 80 85 84 86 76 75 84 92 94 85 75 71 69 63 63 69 72 78 81 80 72 75 82 86 83 85 86 86
53 52 55 61 67 71 78 70 55 46 56 53 54 48 46 45 49 46 43 44 66 79 86 87 87 88 88 92 83 97 86 90 82 74 68 63 65 68 74 81 79 78 79 78 73 80 76 81 83
56 52 56 71 64 72 74 72 54 46 51 53 52 51 48 45 51 51 41 40 56 77 87 84 86 87 88 86 89 94 92 95 96 96 93 92 91 88 80 80 83 83 82 80 84 83 85 84 86
62 62 56 72 64 71 74 80 53 42 42 51 50 47 45 43 46 54 47 42 58 84 89 87 83 85 84 86 97 98 98 96 96 96 96 96 93 96 96 95 92 92 91 91 90 90 90 92 89
72 54 56 62 72 86 56 86 61 43 45 39 47 51 45 43 49 48 45 43 49 77 86 88 91 88 89 94 96 95 94 93 96 96 96 95 88 88 89 90 92 94 95 96 97 97 97 97 96
59 56 61 71 64 76 68 82 70 50 47 41 43 46 46 42 40 50 44 40 43 56 85 87 88 94 97 96 93 96 95 95 96 98 94 87 83 78 79 81 83 92 95 94 93 96 96 98 97
52 59 60 59 70 94 78 81 79 53 41 46 42 37 41 44 41 45 48 48 52 77 76 71 76 85 89 94 96 96 95 91 89 94 92 84 83 79 77 79 84 89 92 93 95 94 94 95 94
66 76 96 96 97 91 65 79 63 46 37 34 38 42 42 45 45 52 59 55 64 74 75 72 72 72 71 83 88 83 85 79 77 79 77 74 82 84 80 80 81 82 81 84 91 94 95 98 97
77 79 90 83 96 78 54 72 51 36 34 36 34 36 37 38 44 54 53 52 63 70 77 72 71 70 64 65 69 82 70 72 77 75 68 72 78 75 71 73 73 73 74 78 83 92 95 95 97
73 86 63 89 87 88 71 58 40 34 32 38 35 39 40 38 43 57 62 59 65 73 76 74 74 74 74 76 79 80 81 73 74 74 71 69 69 61 65 67 71 74 75 76 80 88 94 96 96
80 69 81 98 95 85 61 59 49 39 33 37 44 47 44 38 40 51 58 64 72 76 78 72 72 74 77 74 67 68 74 72 70 71 72 68 67 65 66 69 70 72 73 74 79 88 93 94 96
93 95 89 80 77 79 64 52 39 39 41 48 53 55 57 54 50 49 52 62 70 79 79 74 73 70 71 64 64 68 68 69 72 71 68 67 67 67 68 72 71 73 75 77 80 86 88 90 93
68 84 82 94 88 82 85 65 38 40 45 52 55 53 57 55 56 56 62 71 78 81 80 78 79 68 66 67 69 74 66 72 69 67 68 68 70 72 72 74 76 77 82 88 89 88 87 88 92

GFSSGP_sfc_rhum_096.txt.gz
RH
64 69 82 71 63 74 61 48 29 40 32 35 43 60 69 81 73 76 86 83 86 87 83 82 84 82 81 81 80 81 78 77 77 76 75 75 74 77 75 71 69 69 67 65 64 64 64 65 67
76 64 78 74 63 69 56 36 28 53 26 57 61 70 71 76 78 97 94 86 83 83 81 83 85 83 82 79 82 82 80 77 76 76 73 71 72 71 68 69 70 69 69 70 71 71 71 72 73
70 72 78 81 78 46 42 30 28 31 30 30 59 70 73 70 83 84 84 81 83 86 84 84 86 85 84 83 82 84 83 78 75 73 73 72 69 67 65 71 71 71 72 74 76 76 78 78 80
79 93 90 76 69 48 32 34 24 30 32 35 64 87 77 75 65 81 82 82 88 93 88 90 87 87 86 86 85 83 83 77 75 72 70 71 70 72 68 73 74 76 79 76 78 79 80 82 78
93 95 86 89 67 45 33 33 29 28 27 35 53 83 88 81 73 78 82 81 92 96 92 89 88 88 87 86 85 84 84 81 77 73 68 70 72 72 74 77 77 77 77 78 78 79 81 79 74
94 90 87 89 67 40 30 30 32 29 41 55 66 77 92 93 80 83 78 82 88 94 92 87 90 90 89 85 84 85 86 86 83 78 70 68 73 74 76 77 77 77 77 76 77 79 79 75 72
99 91 71 80 59 47 33 28 35 39 62 65 73 68 96 90 95 84 74 85 87 91 94 92 92 92 92 89 87 85 86 88 86 84 81 77 77 77 76 77 77 77 77 78 80 78 76 74 72
93 83 81 72 54 47 36 41 47 51 61 53 69 93 96 93 92 87 83 85 92 94 96 98 97 95 95 95 92 91 90 90 89 89 90 90 86 82 81 84 82 79 79 78 77 76 75 74 70
88 93 88 70 52 47 46 41 42 50 65 83 71 82 82 90 91 89 94 93 91 91 95 97 98 98 96 96 92 93 92 93 95 94 94 95 97 94 90 89 86 85 82 80 78 77 77 80 80
96 91 78 70 60 51 46 41 47 53 74 96 95 94 91 90 83 94 95 97 93 90 94 94 97 97 94 80 96 97 94 98 98 96 96 98 97 96 90 94 89 86 86 85 80 81 83 84 87
88 86 80 82 76 64 46 48 46 53 59 84 91 98 98 96 90 90 94 93 88 87 89 94 95 93 88 89 98 99 99 99 98 97 97 97 93 97 98 98 97 97 93 96 93 93 96 92 89
92 79 79 85 80 67 65 53 54 53 54 72 89 90 95 96 94 89 90 90 95 96 93 91 90 91 88 85 88 94 95 98 99 98 96 98 99 98 99 99 98 98 97 95 96 97 94 91 87
89 91 77 79 74 75 61 76 72 60 58 86 92 92 95 96 96 95 87 85 86 92 91 90 84 86 84 83 88 86 91 92 95 96 93 92 97 98 98 98 98 98 97 96 96 96 93 92 86
84 90 77 77 81 73 65 76 60 56 61 89 92 98 95 92 93 96 91 84 84 87 88 84 81 83 79 81 83 78 81 84 87 89 86 83 84 90 92 96 96 96 96 93 90 92 83 73 70
79 87 84 77 87 84 76 67 71 63 54 76 88 94 93 93 89 93 90 85 84 86 89 87 80 82 78 79 82 76 72 72 78 78 77 73 77 79 80 82 83 81 79 78 82 81 78 78 77
83 81 94 86 87 81 76 78 72 71 64 61 71 88 92 87 87 89 88 84 85 86 88 87 79 82 80 77 88 76 76 69 70 69 69 70 74 76 80 81 81 76 77 77 79 83 85 86 87
76 98 89 86 84 87 78 84 60 66 65 62 62 67 72 80 85 85 86 84 85 85 83 87 86 84 83 85 90 88 78 72 68 66 66 64 71 74 79 81 82 80 81 82 82 86 86 88 89
85 95 90 79 87 85 89 82 73 66 61 57 62 62 63 62 65 76 85 88 88 91 86 83 85 85 84 88 89 95 91 76 76 66 66 66 66 75 81 82 82 82 86 86 88 86 90 89 88
59 76 75 68 69 77 76 80 74 74 66 52 62 62 57 56 54 55 65 82 93 95 96 89 89 85 84 91 90 95 97 92 85 77 70 68 69 71 80 85 84 80 78 74 75 79 80 83 85
64 63 67 73 65 77 67 66 60 69 61 50 57 56 54 52 50 54 52 65 85 88 90 89 89 93 90 90 88 93 96 95 92 92 90 84 81 83 82 87 88 86 88 86 90 87 88 87 88
66 64 70 74 76 76 74 75 67 56 49 50 54 53 51 48 47 55 55 49 61 90 93 91 90 92 86 90 97 98 97 97 98 98 98 98 97 97 95 95 97 96 96 94 93 92 92 92 90
78 58 53 70 81 95 74 92 65 58 47 47 50 58 54 51 50 52 53 51 48 81 91 88 89 91 90 94 96 93 90 92 95 94 96 98 96 96 97 96 94 96 98 97 97 97 97 97 98
66 61 66 73 73 69 74 77 72 61 54 44 47 53 54 51 50 51 55 46 45 60 90 93 94 94 95 96 94 96 97 96 96 98 97 97 93 92 92 90 93 95 95 96 96 95 97 98 98
56 64 65 81 91 95 72 74 72 65 48 40 41 40 41 45 49 52 52 48 48 58 84 89 94 96 97 98 98 97 95 95 97 99 98 96 90 85 83 82 87 90 91 93 94 94 94 95 96
65 89 99 98 99 92 72 85 64 51 46 38 37 42 44 46 48 51 59 59 57 68 80 81 90 93 96 98 97 98 98 96 96 97 97 94 91 88 81 82 83 86 86 89 91 94 95 96 98
78 92 94 86 92 81 68 87 57 42 40 41 35 45 45 45 51 54 59 60 58 70 78 75 81 83 80 87 92 89 95 96 96 94 90 92 89 83 81 82 81 76 77 79 82 90 96 97 98
80 90 64 87 89 91 67 57 42 38 38 46 44 44 48 49 52 52 65 62 61 70 74 73 74 75 73 73 84 90 92 93 93 89 85 86 81 74 71 71 76 75 77 78 81 86 90 97 96
76 66 90 98 97 90 71 73 50 42 40 43 48 49 49 47 52 69 71 67 72 76 81 79 76 76 79 85 85 83 82 81 83 76 75 73 72 68 70 72 72 73 73 76 78 86 91 97 96
89 94 86 74 70 86 65 56 40 38 37 46 50 54 55 57 53 55 68 71 74 84 84 81 81 81 83 78 74 76 71 70 72 75 73 69 71 74 70 70 71 72 74 76 80 85 90 94 94
82 79 71 86 87 82 81 59 43 52 49 55 60 58 64 61 58 57 66 73 82 85 86 82 86 84 78 68 68 75 69 68 66 73 71 67 68 68 71 71 72 75 78 81 83 86 88 90 92

GFSSGP_sfc_rhum_099.txt.gz
RH
70 74 88 76 76 78 76 57 37 51 53 43 53 60 61 70 61 68 88 82 88 90 85 83 84 84 81 76 75 73 77 80 82 81 82 82 78 76 73 70 68 66 64 65 68 69 70 71 73
83 76 85 85 69 83 69 41 38 49 37 67 59 70 73 80 98 92 95 89 86 87 85 84 85 84 81 79 76 74 75 77 79 79 78 79 74 72 72 70 69 68 67 66 68 70 74 75 78
77 68 93 95 92 56 48 36 30 38 42 42 60 79 78 95 87 89 89 84 86 88 85 84 84 83 82 82 80 75 74 75 77 79 79 76 71 71 71 71 71 72 73 74 75 77 79 81 76
86 99 95 88 81 56 33 27 28 45 50 43 63 85 87 85 85 93 83 86 90 93 88 88 86 85 83 84 85 79 73 73 74 76 77 76 72 71 72 73 74 76 78 78 78 80 82 78 78
98 96 88 86 68 53 41 32 32 50 53 53 69 81 93 90 84 84 85 86 93 97 94 86 88 86 85 85 86 84 77 73 71 73 72 72 69 72 74 76 77 78 79 79 79 81 80 76 76
99 98 88 84 71 48 35 31 30 40 47 51 72 85 98 93 90 88 86 90 89 95 92 86 89 88 87 85 86 86 84 77 72 71 73 72 73 74 76 76 77 78 78 79 79 80 77 73 72
89 95 90 69 65 51 39 28 33 52 52 52 61 89 99 95 91 89 90 91 89 94 95 93 92 91 90 88 89 89 86 85 80 76 76 79 80 78 76 77 78 77 77 79 80 79 75 71 70
94 98 77 71 58 52 38 46 47 54 62 60 69 96 95 95 95 88 94 96 96 98 98 97 97 95 96 95 91 92 90 90 87 84 85 86 87 84 82 85 83 79 79 80 80 78 75 73 70
84 98 72 72 49 45 46 48 46 60 69 85 80 86 79 94 92 95 98 94 92 91 91 96 91 95 98 97 94 93 94 94 93 93 92 92 95 93 92 91 88 86 82 79 77 76 75 78 78
98 96 73 89 77 51 49 50 52 67 85 95 92 91 93 91 86 94 92 95 92 94 95 91 87 95 98 86 97 97 96 98 97 97 97 98 97 96 90 93 90 88 87 86 80 79 83 85 89
95 90 83 91 79 71 49 54 52 64 70 86 96 94 89 91 84 87 93 91 90 89 93 94 91 97 96 94 99 100 99 99 98 97 98 98 96 98 98 98 97 97 94 97 93 94 96 91 91
97 91 86 88 77 72 72 58 58 53 52 60 87 90 91 88 86 86 87 96 96 90 90 94 94 95 94 92 98 99 99 99 99 98 98 99 99 99 99 99 98 98 98 95 96 98 94 92 90
93 88 81 80 76 75 66 75 63 66 91 91 93 94 94 91 87 75 78 78 93 93 89 92 93 93 90 90 91 97 97 97 98 99 98 98 99 99 99 99 99 98 97 96 96 96 94 94 92
85 93 81 80 81 79 82 70 63 60 87 98 95 96 98 96 94 92 79 76 89 89 91 90 91 88 84 88 87 85 90 95 98 98 97 97 97 98 99 98 98 98 97 96 96 96 94 89 81
87 92 77 82 81 81 86 70 78 78 65 96 97 96 97 97 94 90 88 80 85 90 89 92 87 84 84 83 86 81 80 86 94 91 93 92 92 96 96 98 98 97 96 94 94 88 87 82 78
89 90 97 82 81 73 78 89 73 75 64 67 84 99 98 94 94 94 92 91 91 89 90 87 81 82 82 80 86 79 78 80 83 85 85 82 82 87 88 88 87 86 84 85 88 89 90 89 90
83 97 99 87 83 81 83 87 69 67 72 65 64 79 93 96 94 93 94 92 91 92 93 93 89 86 83 92 92 89 81 76 74 80 79 74 75 79 81 83 84 81 83 85 85 89 89 92 92
98 94 91 92 86 86 83 83 79 72 70 76 68 68 71 79 83 88 90 94 90 91 94 95 94 88 83 92 96 96 91 83 78 73 73 70 70 74 80 83 84 86 87 87 90 88 94 92 89
75 79 79 78 79 86 85 85 80 71 78 75 69 61 62 62 62 66 83 95 96 95 94 96 97 93 94 97 96 98 94 96 91 84 68 66 67 71 77 85 85 87 86 80 78 79 79 84 85
66 79 78 70 75 76 86 84 77 80 76 74 68 61 61 59 55 60 61 76 94 96 96 95 92 94 88 90 93 95 97 97 94 93 87 81 80 81 81 85 90 90 90 86 88 92 94 93 94
71 79 79 73 80 77 78 82 78 71 65 68 61 58 57 55 51 50 62 60 81 94 96 94 90 92 89 93 97 98 98 99 99 97 97 94 87 91 93 95 97 97 96 96 95 94 95 97 94
79 62 57 85 88 95 73 79 73 65 68 63 60 60 60 60 56 49 55 63 62 82 93 95 93 93 91 96 96 94 88 94 90 97 98 98 96 97 97 96 97 97 98 97 96 97 97 97 98
67 63 64 85 76 78 93 88 69 59 70 58 55 57 56 57 55 53 51 56 55 59 93 95 95 96 97 98 97 98 96 96 97 98 98 99 99 98 99 98 98 98 98 97 96 98 99 99 99
61 74 85 91 86 96 81 82 75 71 53 50 48 45 45 43 52 53 53 57 61 59 88 94 96 96 97 99 98 98 98 98 98 99 99 100 99 99 98 96 96 95 94 96 96 96 95 96 96
78 88 98 98 99 94 77 84 74 54 51 44 40 38 40 38 44 54 55 61 60 59 69 89 94 96 98 99 99 99 99 97 96 98 99 99 96 98 96 91 88 86 87 89 90 94 95 96 97
88 93 95 91 95 96 75 88 68 43 43 45 40 40 42 47 53 56 55 60 62 60 66 82 90 94 97 99 98 93 96 97 98 98 99 98 97 92 86 86 85 77 77 79 84 90 94 97 98
86 94 84 98 90 93 83 62 43 38 38 43 44 46 46 52 51 53 57 60 63 67 72 81 89 90 89 88 93 92 96 96 97 96 96 97 96 92 90 86 80 78 76 77 78 83 88 93 97
79 75 92 98 97 95 80 72 54 41 38 43 50 48 48 47 57 70 69 69 70 74 83 84 83 83 81 81 88 90 94 93 93 94 93 92 87 83 78 76 76 73 76 78 78 85 85 94 98
94 93 84 81 86 93 78 58 50 44 35 41 45 50 54 51 52 65 76 78 81 86 85 83 83 83 87 88 89 90 88 86 83 82 78 75 74 72 79 78 76 76 77 79 79 83 83 91 95
86 79 77 89 92 85 85 67 48 55 50 43 53 60 63 59 56 60 72 80 83 83 85 84 87 88 89 86 86 86 83 81 79 74 70 68 71 73 77 77 78 79 79 82 80 82 90 91 92

GFSSGP_sfc_rhum_102.txt.gz
RH
70 76 95 93 96 88 93 66 59 57 68 67 52 63 60 67 58 66 91 84 88 88 85 83 84 81 77 71 74 78 82 84 83 81 79 78 77 75 71 70 68 67 66 67 68 70 72 74 74
75 74 94 96 95 98 88 55 52 47 48 64 69 78 75 76 97 95 95 88 86 87 85 85 86 81 76 73 75 78 83 83 84 83 81 79 76 72 71 68 66 66 68 70 72 75 77 78 78
70 73 96 98 82 80 61 47 40 44 60 58 68 75 81 91 86 88 86 85 87 89 87 87 86 81 79 74 76 78 80 82 82 84 81 79 74 71 71 69 69 69 72 74 77 79 78 77 81
86 94 99 97 80 59 42 36 29 49 50 55 68 82 91 87 79 88 83 86 91 94 90 88 85 83 84 81 78 78 79 79 79 82 80 78 72 71 72 72 75 77 80 78 80 81 77 81 83
91 98 98 93 76 52 39 34 34 42 51 51 72 85 96 91 89 89 86 84 86 96 94 88 85 85 86 83 80 77 76 76 75 77 76 73 72 73 74 76 79 80 79 80 80 79 76 77 80
97 92 98 97 75 53 39 35 48 46 39 37 56 83 95 93 93 91 82 80 84 94 93 86 88 86 87 85 84 80 75 75 76 78 76 72 73 74 75 77 76 76 78 80 81 78 75 74 76
94 95 98 93 65 58 38 34 55 55 46 42 67 91 95 98 90 90 86 87 91 94 95 96 93 91 90 89 88 85 79 78 79 79 79 79 80 78 76 78 78 76 79 81 81 78 74 72 74
89 99 85 90 62 57 42 41 44 51 52 57 61 83 97 96 96 92 90 95 95 97 98 98 98 97 97 96 91 88 87 83 81 83 86 88 88 84 83 86 79 80 82 82 81 78 75 72 71
90 96 92 86 68 45 49 54 64 60 66 81 73 81 84 95 96 96 97 94 94 96 95 97 96 99 98 97 95 94 93 92 89 89 91 93 96 94 93 92 88 87 82 80 78 77 75 78 81
88 96 84 61 71 51 47 53 69 74 94 91 89 92 95 96 96 95 94 92 94 96 97 88 85 99 98 90 98 98 96 97 97 96 95 97 96 97 92 95 91 89 88 86 80 80 81 86 90
91 95 77 68 88 76 50 60 59 76 85 84 72 97 97 93 88 92 92 90 88 88 94 88 83 99 98 97 99 100 98 97 99 98 98 97 95 97 98 98 98 97 94 97 94 95 96 89 90
83 78 87 86 83 70 57 57 65 62 65 75 89 88 91 93 81 76 89 91 97 95 94 90 86 98 98 99 99 99 98 94 97 98 98 99 99 99 98 99 98 97 98 95 96 97 94 90 89
90 86 82 90 84 76 66 72 70 76 83 88 88 88 90 89 87 83 91 91 95 94 92 93 88 96 97 98 99 99 99 97 91 98 98 98 98 99 99 98 99 98 98 96 95 95 94 92 91
88 87 85 87 84 78 73 72 67 71 72 96 90 86 84 87 89 89 89 84 84 95 92 93 93 93 92 96 97 98 98 98 97 95 98 97 97 98 99 99 98 98 97 97 96 96 95 94 88
83 86 86 87 81 80 81 83 91 83 82 98 98 92 90 81 82 81 83 82 79 85 94 96 94 91 92 93 94 94 97 94 98 99 98 97 97 98 98 98 98 97 97 95 96 94 93 90 82
86 92 100 83 83 77 72 96 78 76 73 72 82 96 97 96 84 76 80 76 81 73 73 81 89 90 88 83 91 84 83 97 97 93 96 97 96 96 98 98 98 97 97 96 94 92 92 90 90
87 98 100 94 81 78 78 93 78 73 74 72 71 74 88 99 99 92 85 74 77 69 70 84 87 92 86 86 91 89 82 83 86 94 95 91 87 92 94 94 92 88 90 90 88 93 91 94 94
96 96 93 97 85 74 82 86 74 72 79 81 77 66 67 76 92 96 94 86 74 73 79 87 94 96 92 92 96 96 93 87 82 84 85 86 81 86 88 87 87 86 87 89 91 89 95 91 91
81 84 87 85 84 81 84 76 72 75 78 83 76 68 60 57 69 84 96 98 98 97 98 95 93 90 95 99 99 97 94 95 92 83 78 78 77 78 82 86 88 91 86 83 86 88 87 92 92
81 85 86 85 85 81 85 74 67 72 81 78 76 70 64 61 55 55 74 95 98 96 96 97 89 86 87 93 95 95 92 96 91 90 87 85 80 84 79 79 82 88 92 90 89 90 95 96 96
76 81 77 84 88 81 90 87 84 76 81 69 68 69 64 59 56 54 56 68 92 97 98 97 96 95 94 94 97 99 99 99 98 97 96 93 86 84 85 85 89 92 95 96 95 95 96 97 96
81 67 63 88 88 93 77 74 84 75 75 70 66 72 66 62 61 58 52 59 65 84 95 95 95 96 96 98 97 97 96 93 97 98 98 97 94 94 94 95 96 98 99 99 98 98 97 98 93
73 73 71 87 87 92 92 89 69 71 76 64 58 60 69 61 59 57 56 52 58 59 87 96 96 97 96 98 96 98 97 96 98 98 98 98 99 98 99 99 99 99 99 98 97 96 98 99 99
66 81 87 93 86 98 85 86 76 71 60 54 48 54 60 55 56 56 55 55 58 64 78 96 97 98 98 99 98 97 97 97 99 99 100 100 99 99 98 98 98 98 98 99 99 97 95 96 97
80 83 98 99 99 95 81 95 71 56 53 47 46 49 52 50 49 56 58 60 58 60 68 92 96 97 98 99 99 98 98 98 97 97 99 99 99 98 97 97 99 99 98 97 94 93 94 96 97
90 84 92 91 98 96 87 96 76 52 43 44 45 43 47 46 45 48 54 55 59 60 64 75 89 94 98 99 99 99 98 99 98 97 99 99 98 97 94 95 91 90 85 83 84 88 91 94 98
90 98 82 92 90 94 90 78 46 38 39 39 42 45 50 52 54 56 58 59 60 62 64 71 83 91 97 99 99 96 97 98 98 98 98 98 97 93 94 92 91 81 78 77 79 80 82 89 94
81 78 96 99 97 96 84 78 59 41 39 42 45 52 50 50 62 69 68 62 73 75 77 83 86 90 92 92 95 95 96 96 97 98 99 98 96 95 93 92 86 74 77 80 82 86 87 90 95
95 99 93 89 87 94 84 61 52 49 41 37 43 52 52 54 56 68 74 79 83 86 87 87 88 88 88 88 91 92 95 95 96 96 96 95 91 88 89 85 81 80 82 84 85 85 87 90 92
81 96 94 92 98 87 87 71 50 56 61 52 47 53 57 60 59 67 77 84 84 86 88 88 88 88 89 90 90 91 92 92 91 88 83 79 79 77 78 74 75 79 84 88 89 89 91 91 92

GFSSGP_sfc_rhum_105.txt.gz
RH
60 67 85 91 91 98 76 66 45 50 51 53 46 48 46 46 48 46 83 72 74 77 70 69 82 80 75 77 81 83 84 80 81 81 81 79 76 73 70 69 67 68 66 66 65 69 73 75 75
67 74 97 93 95 97 77 54 50 46 40 58 61 61 60 51 85 87 90 75 72 74 70 67 83 80 73 79 82 83 84 83 82 82 81 80 75 72 71 68 66 68 67 70 71 72 76 78 76
65 72 99 98 88 86 65 49 42 38 50 54 59 63 62 68 80 78 74 76 75 74 69 73 83 80 73 80 81 85 85 84 83 82 82 80 74 71 69 67 71 75 77 76 74 78 78 81 80
84 95 99 98 90 66 51 36 33 48 58 60 79 72 82 76 75 72 74 77 75 74 69 80 83 82 79 84 84 85 83 82 84 85 83 80 73 71 69 72 78 80 82 80 79 78 81 84 81
86 97 88 83 82 59 47 28 37 48 56 63 72 83 85 84 82 79 76 76 79 77 72 71 85 83 82 82 84 84 82 83 82 82 79 75 71 72 74 75 75 82 80 79 77 77 80 79 78
95 93 89 95 83 62 44 33 33 46 58 63 67 82 80 86 89 87 77 76 76 77 76 71 85 86 83 81 82 83 82 82 82 81 78 72 73 73 75 76 76 80 79 77 77 76 76 78 76
93 91 96 92 81 67 50 29 37 45 52 57 59 79 82 98 85 84 76 77 78 78 76 78 75 81 87 84 82 82 83 78 81 80 79 79 79 78 76 74 76 75 81 82 78 76 75 75 76
85 92 88 95 83 67 40 33 39 42 40 48 53 80 87 92 88 85 84 83 80 85 83 83 81 76 75 77 87 83 83 84 84 77 85 87 86 84 82 78 75 76 82 83 80 76 73 73 74
85 93 97 75 85 62 38 36 54 56 60 68 57 73 82 95 90 93 93 88 85 90 86 85 81 80 80 78 82 87 88 88 88 88 91 87 68 71 74 84 81 87 86 83 79 77 76 80 83
86 87 87 74 62 71 68 42 59 63 79 74 66 74 86 91 97 95 94 95 92 94 93 82 84 83 82 83 83 80 76 72 73 73 73 72 74 72 74 85 92 89 88 86 79 78 81 72 55
84 79 88 77 64 71 74 57 55 65 76 69 66 77 93 92 98 95 92 89 86 90 91 80 84 83 81 82 90 90 85 79 76 76 75 76 78 78 78 83 81 79 87 71 74 74 62 60 58
83 73 84 84 84 76 77 55 62 63 64 61 68 76 81 79 97 94 96 88 90 89 91 83 80 85 82 81 85 92 87 83 78 77 76 79 82 83 81 82 82 79 74 71 70 63 62 60 59
83 83 72 74 82 90 68 66 68 75 67 68 72 81 86 81 88 93 83 87 88 88 88 85 81 84 84 82 86 90 90 85 79 78 75 72 76 78 78 76 74 75 75 67 67 63 61 60 60
79 80 78 75 81 83 77 68 70 75 68 78 65 83 86 80 84 86 89 88 93 87 88 87 85 85 84 82 83 85 86 87 83 82 79 77 75 78 78 76 74 72 69 66 62 61 62 61 58
75 77 81 84 88 84 70 73 79 71 76 76 66 82 83 77 81 85 82 87 91 89 86 89 88 84 83 81 82 80 85 87 90 87 82 81 78 79 82 79 76 71 68 66 66 66 66 65 59
83 84 99 79 86 77 79 78 73 68 70 82 84 66 69 88 82 81 83 85 86 90 91 90 87 90 85 82 86 80 82 82 85 86 82 79 78 77 80 80 77 71 70 70 69 67 64 64 62
80 92 99 86 84 89 80 86 67 65 69 73 78 81 72 75 87 85 83 77 75 86 85 88 90 90 89 86 84 78 73 75 76 77 80 81 80 78 80 78 74 72 74 72 71 67 64 66 67
92 94 88 91 86 85 82 72 63 63 67 75 68 71 80 94 82 78 80 86 80 79 71 70 83 88 90 93 92 87 80 71 72 74 75 76 78 79 80 75 74 71 72 72 70 67 70 66 66
76 80 88 85 80 90 90 75 60 60 60 61 65 63 66 77 84 96 92 81 85 80 77 76 81 94 96 98 98 96 87 88 78 76 74 76 74 74 76 74 73 70 68 66 65 67 71 75 76
77 83 87 83 82 79 84 76 56 64 61 60 61 61 62 56 64 79 97 95 85 83 83 89 81 92 94 95 98 96 96 96 91 84 78 80 77 77 74 74 75 79 81 72 74 76 80 83 90
73 76 84 76 83 82 82 79 68 63 66 59 58 61 60 54 48 53 72 94 94 88 87 91 86 90 89 88 93 95 98 98 98 95 96 93 82 82 80 81 82 85 87 87 82 84 88 94 96
70 61 60 86 89 92 79 74 67 62 59 55 44 55 56 57 52 52 61 58 74 94 93 92 87 86 91 88 90 90 94 93 94 93 96 96 95 90 84 84 85 85 88 95 96 98 96 96 95
68 69 77 83 79 85 86 87 74 66 69 56 52 52 54 56 53 49 50 51 55 71 91 94 95 86 88 89 93 93 91 84 86 89 94 98 93 90 89 86 88 93 97 97 98 99 98 96 93
72 78 82 85 82 94 77 81 66 72 67 55 48 49 53 53 53 51 49 51 52 63 69 85 94 96 94 96 95 95 93 94 98 97 99 98 99 98 97 98 98 98 98 97 97 97 99 98 94
76 80 97 97 98 90 74 90 66 54 49 44 44 43 48 49 47 50 49 51 53 59 65 82 88 92 96 97 96 95 95 96 94 97 98 98 98 98 98 98 98 98 95 94 94 94 97 94 89
87 84 89 91 92 86 82 91 65 53 45 46 41 42 40 47 46 46 48 51 51 55 57 72 87 88 93 96 97 95 93 94 94 94 96 97 96 95 94 94 93 92 87 84 84 86 89 88 90
86 99 75 88 82 82 76 68 44 38 44 40 38 40 43 44 49 46 46 48 49 51 53 57 71 83 92 96 97 96 96 95 93 92 94 95 91 90 89 85 82 76 72 76 76 79 81 75 82
86 83 98 99 96 94 74 69 52 41 36 35 38 42 45 46 58 64 56 54 56 57 56 62 67 78 87 95 91 90 90 90 90 92 94 93 90 85 82 78 72 68 66 68 68 75 72 70 77
94 98 94 93 82 84 71 54 44 44 43 45 38 46 46 48 56 70 71 69 66 69 70 69 73 78 83 85 87 85 87 88 89 91 91 89 86 83 81 73 68 65 65 64 63 65 68 68 72
83 99 100 95 97 77 74 58 43 47 57 61 47 51 52 51 54 63 73 74 75 74 75 73 76 76 77 76 77 82 85 85 87 87 84 80 80 75 73 67 64 64 65 64 63 66 69 69 71

GFSSGP_sfc_rhum_108.txt.gz
RH
50 55 88 99 98 72 54 46 30 33 37 31 29 30 32 30 39 43 56 45 43 48 58 62 82 81 79 82 84 82 85 83 83 82 80 78 77 74 71 74 74 70 65 68 74 74 73 74 72
45 49 95 98 97 88 49 33 36 32 30 31 35 42 35 36 44 68 73 52 46 52 60 57 83 80 79 82 83 83 82 83 83 82 81 79 75 71 70 73 73 70 68 70 73 75 76 75 76
55 52 98 97 90 70 45 31 30 28 26 33 38 39 39 38 54 55 53 57 48 56 54 61 83 80 81 83 85 85 83 84 84 81 81 80 74 70 68 73 74 77 71 76 76 78 78 77 77
66 75 98 97 87 63 35 27 29 28 29 30 33 48 58 57 55 50 54 57 53 54 54 77 82 80 86 86 86 85 85 84 83 84 83 80 75 69 72 77 81 80 82 79 78 81 80 80 77
69 91 87 93 57 60 34 26 28 29 33 31 33 63 56 61 61 54 62 62 55 54 54 63 82 82 87 85 85 85 85 84 86 85 82 77 71 71 73 79 82 82 84 78 80 80 80 77 72
80 75 77 93 75 44 51 30 25 25 26 34 42 54 61 62 65 62 68 65 52 52 60 63 81 84 87 86 86 85 86 87 85 84 80 76 72 74 74 76 82 82 79 78 79 79 78 76 72
75 75 78 62 86 65 57 31 25 24 26 31 34 50 76 74 69 71 70 64 53 51 58 63 56 69 88 89 87 86 86 86 83 84 79 76 79 79 73 79 81 80 80 78 78 77 78 77 75
65 70 67 80 87 73 55 52 32 28 26 25 33 47 58 71 71 79 76 68 57 58 58 57 52 44 58 64 89 88 86 86 86 84 80 87 84 83 80 85 77 85 85 81 79 76 76 76 78
55 73 70 82 84 57 42 54 43 25 38 34 35 32 39 75 84 89 87 84 71 66 62 56 47 46 42 50 72 86 89 89 86 86 90 83 53 60 67 74 86 87 88 82 78 76 76 81 83
68 68 74 79 84 69 66 63 50 33 36 42 41 56 69 81 97 96 91 89 80 78 71 55 48 47 52 50 54 54 60 58 54 54 57 43 45 48 51 74 91 89 89 86 79 77 77 72 42
56 63 62 81 85 86 69 58 48 46 38 37 44 51 64 69 88 98 89 84 78 76 74 60 53 51 65 61 47 44 46 46 47 48 46 44 46 55 54 62 65 64 81 57 62 61 43 41 38
58 67 77 80 88 80 80 55 62 50 38 33 34 44 67 72 79 98 98 91 84 83 72 68 57 54 58 66 60 53 44 45 49 50 48 49 51 53 50 49 52 52 50 49 46 41 41 41 42
63 68 72 71 77 71 64 65 67 46 42 54 37 52 61 77 78 93 95 92 87 82 72 70 61 57 56 67 67 71 54 47 44 51 51 48 51 51 50 48 47 46 45 41 39 37 34 36 40
65 65 66 67 71 72 82 68 65 42 45 52 49 48 58 69 79 90 92 90 86 84 77 71 64 54 52 56 63 69 61 55 53 50 49 46 44 44 46 45 44 44 43 38 38 40 40 41 40
64 70 61 68 66 74 80 73 73 44 48 53 56 53 70 68 77 88 87 89 91 86 83 84 67 55 49 49 60 68 73 65 62 58 54 50 48 50 51 48 50 47 44 42 44 45 46 44 42
58 63 87 71 70 72 86 77 55 49 51 53 46 52 74 76 74 84 83 84 88 85 89 89 74 65 57 52 52 58 66 70 76 71 57 57 56 54 59 58 55 51 51 51 49 49 49 47 47
61 66 91 57 78 81 83 83 55 49 53 67 54 55 64 76 78 78 82 85 80 87 88 88 87 71 67 66 60 55 56 61 70 78 73 60 59 56 58 57 54 53 54 54 52 51 48 51 51
58 61 47 55 69 73 82 82 53 47 55 58 62 73 70 70 71 76 87 94 84 90 85 85 82 77 72 76 76 70 59 55 52 59 61 59 57 58 65 63 56 54 56 56 56 51 51 50 50
53 51 34 63 63 78 83 83 65 45 52 54 64 71 83 73 86 90 90 92 91 90 82 85 81 76 84 91 93 89 74 65 62 56 54 54 59 58 62 60 58 58 57 55 54 52 55 59 60
57 55 62 63 65 80 72 76 59 46 46 47 56 60 68 72 85 90 92 91 92 86 80 73 70 79 86 84 89 84 82 80 74 67 61 60 60 63 65 64 60 60 57 56 58 58 62 64 77
59 54 61 58 68 75 68 62 56 50 44 44 45 50 51 66 70 75 72 86 92 90 76 73 74 80 82 84 88 90 91 87 88 84 80 77 70 74 76 71 66 67 75 79 74 70 71 82 84
52 48 54 65 69 80 58 47 62 49 47 42 40 45 50 52 51 57 72 81 85 92 81 80 84 83 88 92 91 82 91 93 85 85 81 79 81 84 92 94 93 83 87 86 90 91 89 88 96
53 57 52 60 62 62 70 60 41 42 49 42 39 38 41 46 49 49 47 58 81 72 87 79 80 87 94 83 86 93 91 90 94 93 86 77 81 92 92 92 89 88 89 88 93 96 98 93 86
60 59 62 60 64 74 44 58 28 42 38 36 37 37 38 38 43 43 49 52 56 80 82 83 79 79 92 88 84 86 92 92 95 94 95 90 88 91 92 91 92 90 91 93 94 92 94 97 88
61 60 84 82 91 62 57 69 34 34 36 34 34 32 31 37 38 39 40 43 43 55 62 73 76 79 74 83 84 83 89 92 93 86 92 87 91 98 97 97 97 94 91 93 94 95 94 95 96
58 67 66 62 56 52 66 66 33 38 35 31 33 30 31 31 34 35 36 38 40 44 47 49 55 65 76 84 86 83 81 88 87 84 88 89 93 95 97 97 94 93 94 96 93 94 90 86 86
96 93 62 72 57 61 47 46 33 25 30 30 30 29 31 30 34 35 35 35 37 37 40 42 48 52 64 82 87 90 90 85 88 88 87 92 90 91 92 92 91 88 86 85 84 75 74 78 88
71 76 98 95 92 63 46 47 35 32 31 28 28 30 33 38 42 42 43 34 32 33 37 41 42 52 58 72 80 83 82 81 84 78 84 90 89 86 88 85 80 73 68 63 61 61 60 58 64
63 77 85 98 88 58 42 35 29 35 39 40 32 34 34 40 46 49 49 47 43 40 43 42 44 52 61 76 81 81 80 80 79 79 86 86 84 82 79 72 65 60 55 52 52 55 54 53 58
62 86 100 94 84 88 58 37 31 39 44 42 35 38 37 41 47 49 53 52 51 49 48 49 50 52 58 67 73 75 73 73 73 77 82 80 80 75 69 63 57 56 53 49 49 52 52 52 56

GFSSGP_sfc_rhum_111.txt.gz
RH
52 43 83 96 98 96 57 42 24 26 23 23 22 25 26 22 24 44 45 34 33 47 58 66 82 81 81 82 82 87 86 85 83 82 79 77 74 72 76 76 73 68 71 72 68 69 72 71 75
46 50 82 96 95 91 58 33 31 24 19 19 25 28 27 29 33 53 44 37 36 51 60 61 84 82 83 84 83 86 86 85 84 83 82 78 75 73 78 75 74 72 76 78 76 76 70 75 76
42 46 95 94 87 87 52 29 27 21 18 20 28 27 28 30 30 46 41 37 38 60 57 63 84 82 84 85 84 85 84 84 84 83 83 81 76 71 74 75 75 75 77 79 77 77 77 76 76
43 53 76 98 76 65 47 28 22 22 19 23 30 36 35 42 37 38 42 38 55 58 56 78 84 84 80 87 85 84 83 83 83 84 83 80 76 74 75 78 80 78 79 80 78 78 80 78 72
42 65 66 77 83 49 40 33 25 23 22 24 39 40 38 47 44 43 46 45 58 58 59 64 84 85 87 89 86 84 83 83 83 85 82 78 76 76 77 80 79 83 83 81 80 80 79 73 70
64 52 68 69 48 64 40 36 33 26 24 22 39 41 48 46 52 52 51 53 57 58 63 60 82 88 89 88 86 86 85 84 86 85 80 78 77 78 77 75 81 83 79 82 78 78 76 71 70
67 55 64 50 40 39 63 48 47 47 35 27 24 40 53 57 56 57 55 53 59 58 55 57 56 79 91 88 86 86 86 86 87 84 80 70 78 80 77 69 82 80 79 82 82 79 76 73 73
56 66 53 47 46 39 45 57 51 44 54 27 28 35 62 59 60 68 65 62 62 64 59 57 47 65 70 73 90 89 88 87 86 84 85 86 85 80 78 78 80 83 82 82 82 78 78 77 77
48 79 73 47 46 43 48 75 46 43 58 33 30 32 36 56 69 81 85 80 75 71 63 54 41 50 62 71 81 89 91 91 88 85 89 83 57 62 78 78 88 87 85 82 78 77 79 83 85
74 76 55 35 57 78 60 75 74 68 56 36 41 32 59 74 80 88 92 89 82 79 66 52 37 38 50 66 76 76 77 71 67 66 61 46 49 52 54 76 91 89 88 85 79 78 79 79 51
55 79 40 55 74 80 70 70 70 82 72 39 49 74 54 79 84 90 90 90 72 72 69 54 38 33 42 62 66 68 71 60 58 55 46 37 43 53 56 74 78 75 86 65 67 64 50 43 37
62 45 50 62 69 73 82 82 80 69 52 47 76 85 55 77 85 96 97 98 96 82 72 56 36 48 40 42 50 56 57 51 46 47 37 38 45 49 49 59 59 58 60 50 50 45 40 40 37
57 54 61 64 72 74 72 74 78 58 44 43 62 76 57 69 77 83 90 98 97 95 75 61 40 71 51 41 40 42 42 42 42 44 41 42 49 48 48 48 49 48 46 44 42 39 36 35 34
48 57 57 60 66 72 74 63 66 62 45 48 52 62 53 53 66 85 83 90 91 92 92 67 48 61 67 46 46 42 39 40 45 47 47 44 47 49 50 50 48 45 42 36 34 33 34 33 37
54 63 66 59 58 63 56 55 67 57 49 47 44 50 56 54 60 76 82 84 91 90 90 75 56 42 64 62 49 43 43 39 43 46 44 43 44 46 47 45 45 42 40 35 38 37 40 41 39
59 65 81 53 60 66 59 78 58 49 53 44 39 50 56 58 66 72 85 85 89 87 90 79 67 49 46 63 60 59 48 47 47 44 44 42 42 46 52 50 48 41 43 44 45 48 50 48 46
49 58 84 52 58 64 59 61 55 60 48 42 39 45 60 65 66 69 78 86 81 88 86 87 75 58 43 45 52 61 63 66 59 54 52 52 49 51 55 54 50 46 50 51 49 48 47 49 50
53 50 43 55 59 58 57 63 65 63 46 41 44 38 54 71 70 75 82 86 84 88 91 84 83 71 57 55 54 53 60 61 67 73 67 56 54 52 55 56 52 50 54 53 52 50 49 50 52
48 41 37 30 52 58 53 61 64 53 48 45 47 63 59 64 72 76 82 87 84 91 98 92 87 77 81 84 80 70 60 62 56 60 62 62 56 54 57 64 57 55 53 53 52 54 53 59 55
45 40 38 46 49 58 50 54 55 48 42 44 48 61 62 80 77 83 88 91 90 92 97 93 94 80 85 85 84 81 78 74 64 64 57 57 57 60 61 62 65 60 59 57 58 59 60 62 79
43 44 42 46 52 52 62 58 60 47 40 40 44 54 63 77 85 90 96 94 98 95 89 87 96 86 86 86 87 87 87 87 86 80 74 70 62 69 73 69 72 71 76 78 74 72 76 85 86
49 41 45 49 52 51 44 71 59 53 48 44 44 54 60 66 76 87 87 93 95 95 92 93 88 86 83 86 90 89 85 84 81 83 85 84 75 73 80 81 78 79 83 88 87 85 83 88 90
51 47 45 44 46 44 42 49 49 47 50 45 42 45 52 67 76 75 78 82 84 84 86 92 90 89 82 79 82 83 85 83 83 85 82 84 88 81 81 85 84 89 96 93 90 97 99 98 91
47 50 44 44 54 67 38 43 44 46 47 41 36 38 46 54 61 62 70 79 78 83 86 89 90 90 90 87 85 86 87 88 90 94 94 91 90 92 90 92 93 95 96 97 97 98 96 95 90
49 58 82 80 85 58 46 48 33 29 31 39 38 35 36 44 50 53 57 63 77 89 83 76 82 85 84 88 82 84 87 91 89 94 96 94 92 90 86 91 96 97 96 94 94 96 94 93 94
58 58 76 81 57 41 49 50 43 29 29 28 29 30 30 34 39 45 46 52 59 74 78 71 71 76 77 85 82 84 87 90 91 92 90 88 86 88 85 89 90 97 95 97 97 98 96 96 96
76 79 55 71 43 47 36 36 25 24 27 29 29 28 33 28 29 38 37 40 41 48 58 66 68 69 65 77 76 82 87 89 91 92 87 84 81 89 93 95 98 97 98 98 96 95 95 94 90
56 65 82 80 82 55 36 36 38 35 34 27 27 28 29 33 33 34 35 34 37 37 43 44 45 49 60 70 80 80 79 74 78 84 84 84 89 94 96 98 94 94 90 88 86 88 81 82 75
55 74 72 96 86 89 56 48 34 41 39 37 28 32 34 40 42 42 44 40 36 38 40 40 40 46 51 62 77 82 83 85 86 89 89 91 95 93 92 87 82 76 75 69 70 66 62 60 66
49 60 77 78 95 68 69 68 32 36 34 32 35 36 36 40 42 46 47 44 41 42 41 42 42 45 52 62 71 77 81 83 86 85 87 84 88 86 84 76 70 64 62 57 54 57 57 60 61

GFSSGP_sfc_rhum_114.txt.gz
RH
46 47 83 90 99 99 87 63 40 35 31 26 26 28 29 27 32 46 53 45 60 72 74 78 84 83 82 81 87 87 86 85 82 82 79 76 75 77 78 73 69 72 71 68 72 75 75 76 75
48 45 82 92 98 90 66 46 43 35 26 21 24 26 28 31 54 56 56 42 63 66 73 74 84 84 84 83 88 88 87 85 83 83 81 79 76 77 76 74 72 76 75 73 73 72 75 76 73
46 48 91 95 84 80 55 38 38 30 23 23 22 24 26 43 51 50 43 44 60 68 68 73 85 84 85 86 87 88 87 85 84 82 81 80 79 77 76 76 78 81 83 81 77 75 76 77 70
52 62 85 97 80 61 53 44 37 33 24 22 22 26 32 48 53 48 44 50 64 67 66 86 85 85 87 87 86 88 86 86 83 83 83 81 80 79 78 78 82 84 84 82 78 78 77 73 68
54 69 79 87 82 58 44 36 36 40 37 32 23 32 42 54 53 49 48 63 65 64 72 81 86 86 88 88 86 88 86 85 84 85 83 79 80 79 82 81 81 83 84 82 79 78 73 71 68
69 63 78 79 57 46 48 39 38 35 48 39 35 42 43 54 58 56 51 61 62 72 74 78 86 86 88 88 86 87 85 85 86 85 82 79 81 81 80 78 82 82 82 81 79 75 70 70 69
69 74 76 65 52 44 36 33 51 54 56 63 43 60 65 70 61 58 58 59 64 70 72 77 80 87 92 90 87 87 84 86 85 84 80 80 84 80 76 72 82 80 83 83 81 76 72 72 72
64 80 78 69 56 49 32 26 36 46 50 46 46 74 73 77 70 64 75 68 72 71 69 73 75 86 89 89 92 88 88 86 86 84 79 84 88 83 68 81 84 85 86 86 84 79 75 76 76
66 95 92 70 61 47 28 57 40 42 63 63 56 62 62 66 77 77 78 82 82 73 62 62 73 80 82 85 91 92 90 90 91 87 89 83 81 66 65 82 86 88 86 85 81 80 82 87 85
86 88 71 50 43 43 50 63 66 57 62 71 68 57 52 63 78 85 85 91 87 82 67 54 65 78 80 80 87 89 89 84 78 75 70 70 74 60 65 87 89 89 88 86 82 82 84 81 84
65 80 56 50 47 61 76 72 67 76 75 69 73 66 69 88 82 94 87 89 87 81 68 52 55 73 81 82 85 90 86 82 74 67 71 64 66 74 84 88 91 90 93 91 89 88 81 78 72
64 53 53 52 63 73 68 70 70 66 64 57 56 58 62 83 93 89 89 95 91 92 80 54 46 68 77 81 88 85 83 73 68 70 65 56 67 72 81 74 82 89 93 87 85 79 69 65 53
68 55 51 55 63 69 64 66 72 67 49 53 59 56 67 75 88 89 91 94 94 96 96 92 43 52 71 80 83 79 80 74 65 65 57 57 64 70 75 76 81 81 83 75 74 68 60 54 52
60 62 53 58 66 62 66 55 60 49 41 52 55 64 65 81 90 96 96 97 96 94 98 94 88 49 54 62 61 67 63 55 56 60 63 62 65 69 68 70 72 71 69 62 60 52 52 49 52
55 71 64 64 64 66 60 59 48 37 48 61 65 65 70 78 84 92 90 90 92 91 96 96 87 62 57 51 51 53 56 60 61 66 61 61 65 66 69 67 66 63 56 50 51 49 51 57 54
63 64 90 57 63 60 72 57 36 64 52 68 74 72 67 79 88 88 86 86 89 89 92 96 88 73 71 62 55 52 51 58 64 64 63 57 58 60 64 65 64 60 58 58 61 68 68 68 64
64 85 87 72 61 67 79 74 54 61 64 66 72 58 76 89 90 88 88 90 92 85 91 97 92 81 74 71 56 52 53 54 57 60 60 55 56 59 69 69 67 61 64 66 65 69 68 69 69
96 94 61 70 67 66 70 72 51 54 67 75 73 54 72 88 84 78 86 88 89 90 92 93 95 83 71 82 79 83 71 70 72 69 58 62 60 65 70 74 68 65 71 69 70 66 67 69 70
57 56 54 40 59 64 65 58 59 57 53 57 50 51 84 91 80 86 90 92 94 91 94 94 95 88 77 86 88 85 83 84 82 86 76 67 65 65 70 76 69 68 72 73 66 68 69 73 78
50 56 53 52 56 67 61 61 58 54 56 54 56 67 76 88 94 90 94 95 94 92 90 96 94 82 78 77 80 82 86 86 83 83 80 78 72 72 72 77 77 73 75 73 72 73 76 80 89
52 67 52 52 53 60 65 71 65 57 54 48 55 62 70 83 91 96 97 97 97 98 97 97 98 86 82 84 88 93 92 94 92 86 86 82 75 81 79 78 81 85 87 91 88 86 80 91 93
67 57 50 44 52 85 60 83 62 59 60 60 62 78 88 87 92 93 91 99 99 99 96 97 97 99 96 88 86 89 88 92 95 95 94 91 83 84 84 85 89 95 97 97 97 95 94 94 97
60 52 54 52 51 58 52 72 90 58 61 60 61 75 91 87 89 92 87 91 96 97 94 96 96 98 99 97 94 95 95 95 95 96 96 93 91 90 91 93 94 96 98 96 98 98 97 98 98
47 56 56 54 60 90 52 58 96 63 59 58 56 61 74 86 92 85 84 94 94 94 90 97 95 92 98 98 97 92 92 95 97 96 96 97 96 97 95 96 96 96 98 98 97 96 97 98 98
58 72 95 96 97 90 53 57 59 41 39 59 64 66 62 84 85 87 85 95 96 92 89 92 90 93 96 97 95 95 91 95 95 95 96 97 97 98 97 97 98 98 97 98 98 98 98 98 97
69 86 98 96 95 91 54 81 50 37 37 50 61 50 51 67 70 77 77 89 92 88 88 91 91 82 83 91 94 95 95 97 96 94 96 95 95 95 93 92 94 95 95 96 96 97 97 98 98
73 88 68 96 64 76 53 48 40 37 38 35 43 40 38 37 56 62 64 68 77 88 91 84 83 81 86 90 92 92 90 96 94 94 95 96 94 91 94 94 97 98 97 97 98 99 99 98 98
68 66 87 91 95 78 59 62 64 56 49 40 41 46 45 46 46 50 52 54 56 61 75 92 80 80 80 82 89 87 89 89 93 94 91 95 94 92 96 99 98 99 99 99 99 99 98 97 95
76 83 75 95 93 97 96 96 53 54 48 45 49 51 56 56 58 58 56 49 47 48 60 65 77 82 81 82 84 89 90 85 95 95 85 93 92 95 98 99 99 98 98 96 96 92 91 88 82
55 60 92 96 92 92 99 98 43 51 51 47 49 47 49 52 58 62 61 55 53 49 52 53 53 60 69 94 95 95 95 96 97 97 96 97 97 97 95 92 90 89 87 79 73 71 74 78 85

GFSSGP_sfc_rhum_117.txt.gz
RH
52 55 87 89 96 98 86 72 55 52 45 40 34 38 39 34 42 56 65 63 76 80 81 83 85 84 86 88 87 88 87 85 79 82 81 78 76 78 73 72 75 72 69 74 74 72 73 72 78
57 53 89 94 94 97 51 51 52 51 39 33 30 32 30 31 59 65 64 72 76 76 79 81 86 85 85 89 88 88 87 84 83 83 81 80 78 78 76 75 76 74 75 75 76 75 76 77 75
53 50 88 97 95 82 58 52 47 43 38 37 32 27 32 41 58 60 65 73 75 80 77 80 86 86 84 90 89 88 86 84 84 84 82 81 81 78 76 78 78 80 80 79 76 77 74 70 67
59 69 86 96 93 68 60 51 43 42 36 39 42 48 34 57 57 54 69 72 78 80 80 86 87 87 86 90 89 88 87 84 83 84 82 82 81 80 80 84 86 86 84 81 77 77 72 68 71
58 75 93 97 84 70 59 49 44 45 39 37 53 58 49 48 56 60 71 72 80 77 84 84 87 88 88 89 90 88 87 86 85 84 83 83 82 80 83 87 87 87 85 80 77 72 70 68 70
78 74 97 92 73 57 49 46 50 48 41 48 57 64 61 69 68 73 69 74 72 83 83 83 87 89 88 87 91 88 88 86 86 84 83 85 83 83 82 86 86 86 84 80 76 70 70 68 68
76 86 84 82 78 65 51 38 41 44 45 47 55 67 61 54 83 78 72 72 79 82 84 84 86 89 91 88 91 89 88 88 86 84 83 85 85 82 81 83 83 86 85 81 76 71 71 71 70
70 85 85 81 76 68 45 39 32 36 46 48 49 72 80 77 78 83 86 85 84 84 84 89 88 86 92 90 93 90 90 89 87 85 89 90 88 84 78 85 85 87 87 86 83 76 75 75 74
74 98 92 82 77 68 48 50 42 49 56 46 47 58 58 62 66 78 90 93 90 86 85 86 90 92 96 92 92 92 92 90 88 89 90 86 78 61 66 85 91 90 89 87 84 80 82 84 82
92 96 76 66 60 59 50 56 63 74 61 61 51 47 53 59 74 86 92 96 92 90 85 82 90 94 94 85 93 92 89 87 76 70 71 79 73 56 65 84 90 89 90 88 84 84 87 87 90
87 86 67 58 54 56 65 66 72 81 85 68 60 50 55 68 76 88 93 86 89 84 74 81 89 93 88 87 90 89 90 84 74 68 70 78 72 70 78 87 94 97 95 96 94 93 91 88 82
74 68 64 58 56 56 67 61 82 74 67 50 56 55 56 75 77 78 88 94 91 84 73 77 88 92 83 85 86 85 83 82 73 68 70 74 80 72 82 90 97 97 98 97 96 92 84 79 73
82 74 59 55 59 57 68 74 74 59 49 47 51 51 68 77 74 70 84 93 95 95 86 82 91 92 86 87 86 82 83 78 69 70 73 72 80 83 87 67 79 95 97 96 95 88 76 72 59
73 76 76 67 60 71 76 77 73 58 50 51 49 54 75 72 71 81 88 84 99 94 90 88 81 86 90 90 87 80 79 70 71 67 72 71 75 82 80 80 90 90 90 90 86 81 71 62 56
67 81 66 64 61 70 66 80 76 51 43 48 44 56 72 68 80 87 88 93 96 96 93 89 88 82 90 91 88 86 82 69 67 65 68 65 72 78 78 78 82 80 79 72 67 60 57 56 57
74 74 91 60 67 71 73 76 54 54 72 62 67 67 71 75 86 83 94 96 99 97 95 93 88 88 87 88 88 85 79 63 62 66 63 63 68 69 74 75 75 70 65 60 63 67 71 69 64
84 97 90 78 56 71 75 86 63 54 69 72 72 74 73 79 90 83 87 91 96 97 95 95 90 92 91 81 68 70 64 62 64 66 62 63 63 63 64 65 69 64 65 70 68 75 70 73 72
97 92 83 87 63 71 85 91 68 58 62 82 84 81 80 91 94 88 90 94 96 95 94 94 93 94 91 77 77 70 64 64 64 65 60 60 60 64 70 68 67 67 72 74 75 71 73 72 71
83 69 78 67 66 75 79 78 66 52 63 65 74 74 85 88 97 95 94 96 96 97 97 95 97 97 96 86 84 77 70 71 68 64 65 63 61 65 74 72 72 71 73 73 71 72 70 78 86
57 63 84 80 62 68 70 70 59 58 64 63 60 64 82 98 97 95 96 98 96 97 94 96 94 96 97 88 80 69 74 77 72 70 72 68 69 70 74 79 78 74 76 78 76 76 81 82 91
60 72 74 66 50 66 74 71 72 62 57 52 50 74 78 86 97 96 98 98 99 98 96 96 91 94 94 96 95 95 88 90 90 88 83 80 72 77 81 84 89 89 89 90 88 86 82 93 95
80 60 57 62 70 84 69 85 65 72 60 53 61 91 87 86 89 95 98 98 98 99 97 96 96 92 90 93 94 89 85 87 87 85 89 86 81 87 86 87 90 92 94 96 95 96 97 96 97
73 60 61 67 73 75 63 83 94 74 74 70 78 92 94 87 91 91 98 96 97 97 97 97 98 92 93 92 92 92 87 90 90 90 92 93 94 92 91 91 94 95 97 98 97 98 97 98 99
58 66 67 71 76 92 71 78 74 56 74 80 71 71 92 94 90 90 92 94 98 97 98 98 96 99 96 94 89 74 78 93 91 98 97 97 97 97 95 95 96 96 97 98 98 97 98 99 99
60 84 96 94 96 92 65 68 61 47 72 81 77 72 83 94 92 94 98 96 94 97 99 97 93 98 99 96 89 95 92 93 94 94 94 94 96 98 97 97 97 97 96 96 96 97 97 98 99
78 85 98 97 92 95 71 73 65 45 45 84 83 75 63 80 95 95 94 92 92 92 96 95 94 98 96 99 98 96 97 98 96 97 97 97 96 95 96 96 96 96 94 96 97 98 98 98 98
77 93 72 97 93 91 80 70 56 47 46 53 78 82 67 56 64 80 88 97 98 95 92 96 92 88 95 95 98 98 97 98 98 96 95 95 95 94 95 95 96 97 97 96 98 98 98 98 97
72 70 82 92 96 95 88 98 81 68 62 56 58 66 61 64 62 59 58 63 78 91 95 94 94 87 85 88 90 93 95 96 95 95 95 95 95 94 96 96 97 98 98 99 98 99 99 99 99
78 86 87 89 96 98 97 98 59 65 63 64 60 56 59 64 66 65 62 52 50 57 82 96 96 92 87 87 92 93 96 93 97 95 92 95 97 96 97 98 99 99 99 99 99 99 99 99 97
63 71 88 95 93 97 99 99 70 77 60 57 58 52 51 58 68 65 67 68 66 57 60 70 82 95 90 90 87 90 91 96 96 96 92 94 94 95 97 98 99 99 99 99 99 98 98 95 93